[[{"header":{"parameterUnit":"m.s-1","parameterCategory":1,"la1":30.6,"la2":29.2853,"lo1":-89.7004,"lo2":-87.6739,"dy":0.0162,"dx":0.0183,"nx":112,"ny":82,"refTime":"2023-09-04T12:00:00:Z","depth":0,"parameterNumber":2,"parameterNumberName":"U-component_of_WINDS"},"data":[0.0,0.0,0.0,0.0,0.0,0.0,0.0,0.0,0.0,0.0,0.0,0.0,0.0,0.0,0.0,0.0,0.0,0.0,0.0,0.0,0.0,0.0,0.0,0.0,0.0,0.0,0.0,0.0,0.0,0.0,0.0,0.0,0.0,0.0,0.0,0.0,0.0,0.0,0.0,0.0,0.0,0.0,0.0,0.0,0.0,0.0,0.0,0.0,0.0,0.0,0.0,0.0,0.0,0.0,0.0,0.0,0.0,0.0,0.0,0.0,0.0,0.0,0.0,0.0,0.0,0.0,0.0,0.0,0.0,0.0,0.0,0.0,0.0,0.0,0.0,0.0,0.0,0.0,0.0,0.0,0.0,0.0,0.0,0.0,0.0,0.0,0.0,0.0,0.0,0.0,0.0,-3.6084,-4.0441,-4.3503,-4.3983,-4.3989,-4.2627,-3.9501,0.0,0.0,0.0,0.0,0.0,0.0,0.0,0.0,0.0,0.0,0.0,0.0,0.0,0.0,0.0,0.0,0.0,0.0,0.0,0.0,0.0,0.0,0.0,0.0,0.0,0.0,0.0,0.0,0.0,0.0,0.0,0.0,0.0,0.0,0.0,0.0,0.0,0.0,0.0,0.0,0.0,0.0,0.0,0.0,0.0,0.0,0.0,0.0,0.0,0.0,0.0,0.0,0.0,0.0,0.0,0.0,0.0,0.0,0.0,0.0,0.0,0.0,0.0,0.0,0.0,0.0,0.0,0.0,0.0,0.0,0.0,0.0,0.0,0.0,0.0,0.0,0.0,0.0,0.0,0.0,0.0,0.0,0.0,0.0,0.0,0.0,0.0,0.0,0.0,0.0,0.0,0.0,0.0,0.0,0.0,0.0,0.0,0.0,0.0,0.0,0.0,0.0,0.0,0.0,-3.463,-3.7896,-3.969,-4.1128,-4.2272,-4.1605,-4.0344,-3.8522,0.0,0.0,0.0,0.0,0.0,0.0,0.0,0.0,0.0,0.0,0.0,0.0,0.0,0.0,0.0,0.0,0.0,0.0,0.0,0.0,0.0,0.0,0.0,0.0,0.0,0.0,0.0,0.0,0.0,0.0,0.0,0.0,0.0,0.0,0.0,0.0,0.0,0.0,0.0,0.0,0.0,0.0,0.0,0.0,0.0,0.0,0.0,0.0,0.0,0.0,0.0,0.0,0.0,0.0,0.0,0.0,0.0,0.0,0.0,0.0,0.0,0.0,0.0,0.0,0.0,0.0,0.0,0.0,0.0,0.0,0.0,0.0,0.0,0.0,0.0,0.0,0.0,0.0,0.0,0.0,0.0,0.0,0.0,0.0,0.0,0.0,0.0,0.0,0.0,0.0,0.0,0.0,0.0,0.0,0.0,0.0,0.0,0.0,0.0,0.0,0.0,0.0,0.0,-3.4071,-3.5743,-3.8806,-4.0195,-4.1154,-4.1721,-4.1494,-4.0217,-3.7651,-3.6709,0.0,0.0,0.0,0.0,0.0,0.0,0.0,0.0,0.0,0.0,0.0,0.0,0.0,0.0,0.0,0.0,0.0,0.0,0.0,0.0,0.0,0.0,0.0,0.0,0.0,0.0,0.0,0.0,0.0,0.0,0.0,0.0,0.0,0.0,0.0,0.0,0.0,0.0,0.0,0.0,0.0,0.0,0.0,0.0,0.0,0.0,0.0,0.0,0.0,0.0,0.0,0.0,0.0,0.0,0.0,0.0,0.0,0.0,0.0,0.0,0.0,0.0,0.0,0.0,0.0,0.0,0.0,0.0,0.0,0.0,0.0,0.0,0.0,0.0,0.0,0.0,0.0,0.0,0.0,0.0,0.0,0.0,0.0,0.0,0.0,0.0,0.0,0.0,0.0,0.0,0.0,0.0,0.0,0.0,0.0,0.0,0.0,0.0,0.0,0.0,0.0,0.0,-3.614,-3.7009,-3.9312,-4.0503,-4.1197,-4.1287,-4.127,-3.9926,-3.6766,-3.5805,0.0,0.0,0.0,0.0,0.0,0.0,0.0,0.0,0.0,0.0,0.0,0.0,0.0,0.0,0.0,0.0,0.0,0.0,0.0,0.0,0.0,0.0,0.0,0.0,0.0,0.0,0.0,0.0,0.0,0.0,0.0,0.0,0.0,0.0,0.0,0.0,0.0,0.0,0.0,0.0,0.0,0.0,0.0,0.0,0.0,0.0,0.0,0.0,0.0,0.0,0.0,0.0,0.0,0.0,0.0,0.0,0.0,0.0,0.0,0.0,0.0,0.0,0.0,0.0,0.0,0.0,0.0,0.0,0.0,0.0,0.0,0.0,0.0,0.0,0.0,0.0,0.0,0.0,0.0,0.0,0.0,0.0,0.0,0.0,0.0,0.0,0.0,0.0,0.0,0.0,0.0,0.0,0.0,0.0,0.0,0.0,0.0,0.0,0.0,0.0,0.0,0.0,-3.5813,-3.7558,-3.9483,-3.9781,-3.9975,-4.0351,-3.961,-3.8114,-3.5746,-3.4783,0.0,0.0,0.0,0.0,0.0,0.0,0.0,0.0,0.0,0.0,0.0,0.0,0.0,0.0,0.0,0.0,0.0,0.0,0.0,0.0,0.0,0.0,0.0,0.0,0.0,0.0,0.0,0.0,0.0,0.0,0.0,0.0,0.0,0.0,0.0,0.0,0.0,0.0,0.0,0.0,0.0,0.0,0.0,0.0,0.0,0.0,0.0,0.0,0.0,0.0,0.0,0.0,0.0,0.0,0.0,0.0,0.0,0.0,0.0,0.0,0.0,0.0,0.0,0.0,0.0,0.0,0.0,0.0,0.0,0.0,0.0,0.0,0.0,0.0,0.0,0.0,0.0,0.0,0.0,0.0,0.0,0.0,0.0,0.0,0.0,0.0,0.0,0.0,0.0,0.0,0.0,0.0,0.0,0.0,0.0,0.0,0.0,0.0,0.0,0.0,0.0,0.0,-3.5608,-3.7423,0.0,-3.9679,-3.9899,-4.0043,-3.988,-3.8503,-3.5552,0.0,0.0,0.0,0.0,0.0,0.0,0.0,0.0,0.0,0.0,0.0,0.0,0.0,0.0,0.0,0.0,0.0,0.0,0.0,0.0,0.0,0.0,0.0,0.0,0.0,0.0,0.0,0.0,0.0,0.0,0.0,0.0,0.0,0.0,0.0,0.0,0.0,0.0,0.0,0.0,0.0,0.0,0.0,0.0,0.0,0.0,0.0,0.0,0.0,0.0,0.0,0.0,0.0,0.0,0.0,0.0,0.0,0.0,0.0,0.0,0.0,0.0,0.0,0.0,0.0,0.0,0.0,0.0,0.0,0.0,0.0,0.0,0.0,0.0,0.0,0.0,0.0,0.0,0.0,0.0,0.0,0.0,0.0,0.0,0.0,0.0,0.0,0.0,0.0,0.0,0.0,0.0,0.0,0.0,0.0,0.0,0.0,0.0,0.0,0.0,0.0,0.0,-3.3526,-3.543,-3.7121,0.0,-3.9344,-3.952,-3.9053,-3.9183,-3.7992,-3.4977,0.0,0.0,0.0,0.0,0.0,0.0,0.0,0.0,0.0,0.0,0.0,0.0,0.0,0.0,0.0,0.0,0.0,0.0,0.0,0.0,0.0,0.0,0.0,0.0,0.0,0.0,0.0,0.0,0.0,0.0,0.0,0.0,0.0,0.0,0.0,0.0,0.0,0.0,0.0,0.0,0.0,0.0,0.0,0.0,0.0,0.0,0.0,0.0,0.0,0.0,0.0,0.0,0.0,0.0,0.0,0.0,0.0,0.0,0.0,0.0,0.0,0.0,0.0,0.0,0.0,0.0,0.0,0.0,0.0,0.0,0.0,0.0,0.0,0.0,0.0,0.0,0.0,0.0,0.0,0.0,0.0,0.0,0.0,0.0,0.0,0.0,0.0,0.0,0.0,0.0,0.0,0.0,0.0,0.0,0.0,0.0,0.0,0.0,0.0,0.0,0.0,0.0,-3.3267,-3.5224,-3.6726,-3.7604,-3.8657,-3.8689,-3.7234,-3.7122,-3.6139,0.0,0.0,0.0,0.0,0.0,0.0,0.0,0.0,0.0,0.0,0.0,0.0,0.0,0.0,0.0,0.0,0.0,0.0,0.0,0.0,0.0,0.0,0.0,0.0,0.0,0.0,0.0,0.0,0.0,0.0,0.0,0.0,0.0,0.0,0.0,0.0,0.0,0.0,0.0,0.0,0.0,0.0,0.0,0.0,0.0,0.0,0.0,0.0,0.0,0.0,0.0,0.0,0.0,0.0,0.0,0.0,0.0,0.0,0.0,0.0,0.0,0.0,0.0,0.0,0.0,0.0,0.0,0.0,0.0,0.0,0.0,0.0,0.0,0.0,0.0,0.0,0.0,0.0,0.0,0.0,0.0,0.0,0.0,0.0,0.0,0.0,0.0,0.0,0.0,0.0,0.0,0.0,0.0,0.0,0.0,0.0,0.0,0.0,0.0,0.0,0.0,0.0,0.0,-3.3179,-3.4809,-3.6282,-3.744,-3.7965,-3.8117,-3.7829,-3.7889,-3.6919,-3.4492,0.0,0.0,0.0,0.0,0.0,0.0,0.0,0.0,0.0,0.0,0.0,0.0,0.0,0.0,0.0,0.0,0.0,0.0,0.0,0.0,0.0,0.0,0.0,0.0,0.0,0.0,0.0,0.0,0.0,0.0,0.0,0.0,0.0,0.0,0.0,0.0,0.0,0.0,0.0,0.0,0.0,0.0,0.0,0.0,0.0,0.0,0.0,0.0,0.0,0.0,0.0,0.0,0.0,0.0,0.0,0.0,0.0,0.0,0.0,0.0,0.0,0.0,0.0,0.0,0.0,0.0,0.0,0.0,0.0,0.0,0.0,0.0,0.0,0.0,0.0,0.0,0.0,0.0,0.0,0.0,0.0,0.0,0.0,0.0,0.0,0.0,0.0,0.0,0.0,0.0,0.0,0.0,0.0,0.0,0.0,0.0,0.0,0.0,0.0,0.0,0.0,0.0,-3.2919,-3.4771,-3.6282,-3.7137,-3.7713,-3.7815,-3.7276,-3.7328,-3.6483,-3.4369,0.0,0.0,0.0,0.0,0.0,0.0,0.0,0.0,0.0,0.0,0.0,0.0,0.0,0.0,0.0,0.0,0.0,0.0,0.0,0.0,0.0,0.0,0.0,0.0,0.0,0.0,0.0,0.0,0.0,0.0,0.0,0.0,0.0,0.0,0.0,0.0,0.0,0.0,0.0,0.0,0.0,0.0,0.0,0.0,0.0,0.0,0.0,0.0,0.0,0.0,0.0,0.0,0.0,0.0,0.0,0.0,0.0,0.0,0.0,0.0,0.0,0.0,0.0,0.0,0.0,0.0,0.0,0.0,0.0,0.0,0.0,0.0,0.0,0.0,0.0,0.0,0.0,0.0,0.0,0.0,0.0,0.0,0.0,0.0,0.0,0.0,0.0,0.0,0.0,0.0,0.0,0.0,0.0,0.0,0.0,0.0,0.0,0.0,0.0,0.0,0.0,0.0,-3.2659,-3.492,-3.6538,-3.6744,-3.7658,-3.764,-3.6146,-3.607,-3.5455,-3.3895,0.0,0.0,0.0,0.0,0.0,0.0,0.0,0.0,0.0,0.0,0.0,0.0,0.0,0.0,0.0,0.0,0.0,0.0,0.0,0.0,0.0,0.0,0.0,0.0,0.0,0.0,0.0,0.0,0.0,0.0,0.0,0.0,0.0,0.0,0.0,0.0,0.0,0.0,0.0,0.0,0.0,0.0,0.0,0.0,0.0,0.0,0.0,0.0,0.0,0.0,0.0,0.0,0.0,0.0,0.0,0.0,0.0,0.0,0.0,0.0,-3.7697,0.0,0.0,0.0,0.0,0.0,0.0,0.0,0.0,0.0,0.0,0.0,0.0,0.0,0.0,0.0,0.0,0.0,0.0,0.0,0.0,0.0,0.0,0.0,0.0,0.0,0.0,0.0,0.0,0.0,0.0,0.0,0.0,0.0,0.0,0.0,0.0,0.0,0.0,0.0,0.0,0.0,-3.3284,-3.4995,-3.6256,-3.6468,-3.6869,-3.7064,-3.6875,-3.6854,-3.6194,-3.4586,-3.3022,0.0,0.0,0.0,0.0,0.0,0.0,0.0,0.0,0.0,0.0,0.0,0.0,0.0,0.0,0.0,0.0,0.0,0.0,0.0,0.0,0.0,0.0,0.0,0.0,0.0,0.0,0.0,0.0,0.0,0.0,0.0,0.0,0.0,0.0,0.0,0.0,0.0,0.0,0.0,0.0,0.0,0.0,0.0,0.0,0.0,0.0,0.0,0.0,0.0,0.0,0.0,0.0,0.0,0.0,0.0,0.0,0.0,0.0,0.0,0.0,-3.9179,0.0,0.0,0.0,0.0,0.0,0.0,0.0,0.0,0.0,0.0,0.0,0.0,0.0,0.0,0.0,0.0,0.0,0.0,0.0,0.0,0.0,0.0,0.0,0.0,0.0,0.0,0.0,0.0,0.0,0.0,0.0,0.0,0.0,0.0,0.0,0.0,0.0,0.0,0.0,0.0,-3.2808,-3.4264,-3.5361,-3.5563,-3.5705,-3.5827,-3.5946,-3.5946,-3.5444,-3.4209,-3.3068,0.0,0.0,0.0,0.0,0.0,0.0,0.0,0.0,0.0,0.0,0.0,0.0,0.0,0.0,0.0,0.0,0.0,0.0,0.0,0.0,0.0,0.0,0.0,0.0,0.0,0.0,0.0,0.0,0.0,0.0,0.0,0.0,0.0,0.0,0.0,0.0,0.0,0.0,0.0,0.0,0.0,0.0,0.0,0.0,0.0,0.0,0.0,0.0,0.0,0.0,0.0,0.0,0.0,-4.4463,-4.4239,-4.3247,-4.4176,-4.3721,-4.2215,-4.215,-4.1906,-4.1474,0.0,0.0,0.0,0.0,0.0,0.0,0.0,0.0,0.0,0.0,0.0,0.0,0.0,0.0,0.0,0.0,0.0,0.0,0.0,0.0,0.0,0.0,0.0,0.0,0.0,-3.4012,-3.4469,0.0,0.0,0.0,0.0,0.0,0.0,0.0,0.0,0.0,0.0,0.0,0.0,-3.2009,-3.3368,-3.4389,-3.4542,-3.4635,-3.4708,-3.4708,-3.4707,-3.4355,-3.3547,-3.2911,-3.2357,0.0,0.0,0.0,0.0,0.0,0.0,0.0,0.0,0.0,0.0,0.0,0.0,0.0,0.0,0.0,0.0,0.0,0.0,0.0,0.0,0.0,0.0,0.0,0.0,0.0,0.0,0.0,0.0,0.0,0.0,0.0,0.0,-3.4242,-3.5883,0.0,0.0,0.0,0.0,0.0,0.0,0.0,0.0,0.0,0.0,0.0,0.0,0.0,-4.1003,-4.205,-4.3303,-4.4264,-4.4886,-4.527,-4.5696,-4.6012,-4.5048,-4.477,-4.5063,-4.5063,0.0,-4.1521,-4.1445,0.0,0.0,0.0,0.0,0.0,0.0,0.0,0.0,0.0,0.0,0.0,0.0,0.0,0.0,0.0,0.0,0.0,0.0,0.0,0.0,0.0,0.0,-3.6061,-3.5968,-3.6091,-3.6184,0.0,-3.4162,-3.2415,-3.1889,0.0,0.0,0.0,0.0,0.0,0.0,0.0,0.0,-3.1767,-3.3019,-3.3985,-3.3987,-3.443,-3.4708,-3.4708,-3.4689,-3.4356,-3.3547,-3.2774,-3.2701,-3.3451,-3.1477,0.0,0.0,0.0,0.0,0.0,0.0,0.0,0.0,0.0,0.0,0.0,0.0,0.0,0.0,0.0,0.0,0.0,0.0,0.0,0.0,0.0,0.0,0.0,0.0,0.0,0.0,0.0,0.0,0.0,-3.3175,-3.538,-3.5372,-3.6007,-3.5916,0.0,0.0,0.0,0.0,0.0,0.0,0.0,0.0,0.0,-4.0563,-4.0956,-4.1716,-4.2931,-4.3928,-4.4569,-4.4866,-4.5031,-4.5056,-4.4965,-4.5101,-4.4713,-4.3972,-4.4707,-4.3944,-4.2158,-4.2729,-4.2435,-4.1502,0.0,0.0,0.0,0.0,-3.9393,-3.9499,-4.0101,-4.0264,0.0,0.0,0.0,0.0,0.0,0.0,0.0,0.0,0.0,0.0,0.0,0.0,0.0,-3.6399,-3.6492,-3.6492,-3.6492,-3.5643,-3.4645,0.0,-3.3634,-3.3322,-3.2327,0.0,0.0,0.0,0.0,0.0,-3.1065,-3.1909,-3.2309,-3.1659,-3.2147,-3.2427,-3.2183,-3.2926,-3.3156,-3.2576,-3.2611,-3.2821,-3.328,-3.2004,-3.1666,0.0,0.0,0.0,0.0,0.0,0.0,0.0,0.0,0.0,0.0,0.0,0.0,0.0,0.0,0.0,0.0,0.0,0.0,0.0,0.0,0.0,0.0,0.0,0.0,0.0,0.0,0.0,0.0,-3.4767,-3.6102,-3.5036,-3.6484,-3.6783,0.0,0.0,0.0,0.0,0.0,0.0,-3.8917,-3.8553,-3.9211,-4.1276,-4.1389,-4.2146,-4.3673,-4.3996,-4.4242,-4.4453,-4.4248,-4.3997,-4.3717,-4.4478,-4.4124,-4.2909,-4.3747,-4.3518,-4.2666,-4.3404,-4.325,-4.2397,-4.1143,-4.0758,-4.0839,-4.0531,-4.0514,-4.0804,-4.1986,-4.204,-4.1395,-4.0208,0.0,-3.7517,-3.4455,0.0,0.0,0.0,0.0,-3.4714,-3.5217,-3.5354,-3.543,-3.5781,-3.5872,-3.5858,-3.5814,-3.5814,-3.5707,0.0,-3.531,-3.4876,-3.334,0.0,0.0,0.0,0.0,-3.0936,-3.0392,-3.0735,-3.0622,-2.9609,-3.0022,-3.0249,-3.0021,-3.1004,-3.1594,-3.1557,-3.2244,-3.2655,-3.2672,-3.2276,-3.2059,-3.2077,0.0,0.0,0.0,0.0,0.0,0.0,0.0,0.0,0.0,0.0,0.0,0.0,0.0,0.0,0.0,0.0,0.0,0.0,0.0,0.0,0.0,0.0,0.0,0.0,0.0,0.0,0.0,0.0,0.0,-3.6928,-3.8251,0.0,0.0,0.0,0.0,-3.5655,-3.5683,-3.6253,-3.7449,-3.749,-3.8521,-4.0875,-4.093,-4.1812,-4.3618,-4.3012,-4.3063,-4.3732,-4.3112,-4.3127,-4.3673,-4.3053,-4.3097,-4.3614,-4.2994,-4.2659,-4.2585,-4.2659,-4.2099,-4.119,-4.1088,-4.0293,-3.9301,-3.989,-3.9921,-3.9784,-4.0462,-3.994,-3.9099,-4.0273,-3.8929,-3.6507,-3.4484,-3.3878,0.0,0.0,-3.4381,-3.4901,-3.4916,-3.493,-3.4783,-3.4238,-3.4137,-3.4101,-3.3954,-3.394,-3.4425,0.0,-3.5922,-3.5243,-3.4532,0.0,-3.3256,-3.1634,-3.1277,-3.0858,-2.9937,-2.9749,-2.9425,-2.8737,-2.8992,-2.9246,-2.9433,-2.952,-2.9912,-3.0794,-3.1549,-3.1989,-3.2047,-3.1955,-3.1942,-3.2001,-2.9774,0.0,0.0,0.0,0.0,0.0,0.0,0.0,0.0,0.0,0.0,0.0,0.0,0.0,0.0,0.0,0.0,0.0,0.0,0.0,0.0,0.0,0.0,0.0,0.0,0.0,0.0,0.0,0.0,-3.8447,-3.9914,0.0,-3.7611,-3.7099,-3.7008,-3.7292,-3.7456,-3.8034,-3.9139,-3.8813,-3.9173,-4.0418,-4.0076,-4.0203,-4.0852,-4.0586,-4.0606,-4.0853,-4.0643,-4.0419,-4.0336,-4.0887,-4.0787,-4.0164,-4.0444,-4.0488,-4.0377,-4.048,-4.1131,-4.2021,-4.1602,-4.1392,-4.1302,-4.0681,-4.0687,-4.0925,-4.0772,-4.0418,-3.9925,-3.9114,-3.7617,-3.5947,-3.4876,-3.4537,-3.4537,-3.4537,-3.4699,-3.4754,-3.4164,-3.4014,-3.3773,-3.2908,-3.2457,-3.2249,-3.237,-3.2063,-3.2065,-3.2931,-3.4058,-3.4643,-3.3906,-3.3326,-3.2442,-3.0966,-3.0722,-3.0316,-2.9214,-2.9446,-2.9327,-2.8313,-2.8754,-2.9016,-2.8835,-2.8968,-2.9519,-3.0551,-3.0421,-3.082,-3.1951,-3.1354,-3.0866,-3.0576,-2.94,-2.8252,0.0,0.0,0.0,0.0,0.0,0.0,0.0,0.0,0.0,0.0,0.0,0.0,0.0,0.0,0.0,0.0,0.0,0.0,0.0,0.0,0.0,0.0,0.0,0.0,0.0,0.0,-3.9683,-3.8807,-4.029,-4.0468,-3.802,-3.7878,-3.8023,-3.8136,-3.8286,-3.8684,-3.9377,-3.9028,-3.8998,-3.9352,-3.8975,-3.8766,-3.8752,-3.8752,-3.8752,-3.8752,-3.8752,-3.8534,-3.8141,-3.9009,-3.8876,-3.8019,-3.8559,-3.871,-3.8624,-3.8753,-3.9634,-4.0929,-4.1093,-4.1167,-4.1074,-4.0242,-4.0069,-4.0182,-3.9413,-3.8981,-3.852,-3.6784,-3.5612,-3.4786,-3.4154,-3.3953,-3.3953,-3.3953,-3.383,-3.3537,-3.292,-3.2616,-3.2165,-3.1104,-3.0563,-3.0307,-3.0264,-2.9923,-2.9798,-3.0264,-3.2283,-3.364,-3.2693,-3.2453,-3.2013,-3.092,-3.034,-2.9853,-2.9332,-2.9319,-2.8941,-2.7919,-2.8035,-2.8108,-2.7896,-2.826,-2.8834,-2.9641,-2.988,-3.031,-3.0996,-3.0609,-3.013,-2.9556,-2.8939,-2.8095,-2.7083,0.0,0.0,0.0,0.0,0.0,0.0,0.0,0.0,0.0,0.0,0.0,0.0,0.0,0.0,0.0,0.0,0.0,0.0,0.0,0.0,0.0,0.0,0.0,-3.5785,-3.7194,-3.8075,-3.7957,-3.9407,-3.9525,-3.7306,-3.8083,-3.8488,-3.7965,-3.7913,-3.79,-3.79,-3.79,-3.784,-3.7665,-3.7683,-3.7635,-3.7528,-3.757,-3.757,-3.757,-3.757,-3.7557,-3.7543,-3.757,-3.7557,-3.7516,-3.7543,-3.7557,-3.7543,-3.7543,-3.7557,-3.7721,-3.9529,-3.9454,-3.8385,-3.8358,-3.7991,-3.7354,-3.6157,-3.5355,-3.4689,-3.3482,-3.3101,-3.2979,-3.2318,-3.2092,-3.2092,-3.2064,-3.168,-3.1268,-3.1213,-3.0765,-3.0032,-2.8809,-2.851,-2.8298,-2.7678,-2.7502,-2.7708,-2.8437,-3.0772,-3.2219,-3.0968,-3.1604,-3.2062,-3.1401,-3.0176,0.0,-3.0222,-2.9187,-2.8126,-2.7465,-2.6842,-2.6554,-2.6745,-2.7344,-2.7809,-2.8072,-2.9951,-3.0472,-2.913,-2.9753,-2.9801,-2.9091,-2.8356,-2.811,-2.8388,0.0,0.0,0.0,0.0,0.0,0.0,0.0,0.0,0.0,0.0,0.0,0.0,0.0,0.0,0.0,0.0,0.0,0.0,0.0,0.0,0.0,0.0,-3.424,-3.5915,-3.7543,-3.8739,-3.9167,-3.9753,-3.9954,-3.934,-3.8925,-3.8645,-3.8501,-3.8122,-3.79,-3.79,-3.79,-3.7671,-3.719,-3.7177,-3.6977,-3.6515,-3.6501,-3.6501,-3.6501,-3.6501,-3.629,-3.5963,-3.633,-3.6266,-3.5799,-3.5891,-3.612,-3.6318,-3.6035,-3.6145,-3.6615,-3.7867,-3.8121,-3.7747,-3.7256,-3.6483,-3.5546,-3.477,-3.4403,-3.4106,-3.3346,-3.3101,-3.2979,-3.2318,-3.2092,-3.201,-3.1648,-3.1404,-3.0934,-2.9396,-2.8872,-2.8357,-2.6895,-2.6268,-2.5993,-2.6004,-2.5662,-2.5481,-2.5937,-2.7258,-2.8583,-2.9487,-2.9871,-2.9849,-2.919,-2.8775,0.0,-2.8051,-2.7976,-2.7904,-2.7722,-2.7782,-2.7866,-2.7937,-2.779,-2.7741,-2.7809,-2.7903,-2.8065,-2.8356,-2.837,-2.8529,-2.8803,-2.7787,-2.7469,0.0,0.0,0.0,0.0,0.0,0.0,0.0,0.0,0.0,0.0,0.0,0.0,0.0,0.0,0.0,0.0,0.0,0.0,0.0,0.0,0.0,0.0,-3.36,-3.4611,-3.5738,-3.7268,-3.8534,-3.9299,-3.9272,-3.9069,-3.8605,-3.8068,-3.7636,-3.7406,-3.71,-3.6972,-3.7064,-3.7051,-3.6813,-3.6319,-3.6292,-3.6005,-3.5391,-3.5391,-3.5391,-3.5391,-3.5391,-3.5221,-3.4933,-3.5247,-3.5194,0.0,-3.4903,-3.5047,-3.5244,-3.5047,-3.4972,0.0,0.0,0.0,0.0,0.0,-3.4594,-3.3563,-3.319,-3.2948,-3.2693,-3.2345,-3.2238,-3.2081,-3.1456,-3.1256,-3.1135,-3.0619,-3.0271,-2.9741,-2.8239,-2.7689,-2.7161,-2.5795,-2.524,-2.4957,-2.4899,-2.4585,-2.4421,-2.4736,0.0,0.0,-2.7242,-2.7959,-2.8238,-2.7873,-2.7676,-2.7521,-2.7378,-2.7428,-2.7509,-2.7509,-2.747,-2.7427,-2.7427,-2.7452,0.0,0.0,0.0,-2.7444,-2.7663,-2.752,0.0,0.0,0.0,-2.7821,-2.8836,0.0,0.0,0.0,-3.1893,-3.3029,0.0,0.0,0.0,0.0,0.0,0.0,0.0,0.0,0.0,0.0,0.0,0.0,0.0,0.0,0.0,0.0,-3.4749,-3.5424,-3.56,-3.6507,-3.7505,-3.8347,-3.8035,-3.7388,-3.6382,-3.6272,-3.6136,-3.5656,-3.5558,-3.5595,-3.5772,0.0,0.0,0.0,0.0,-3.4871,-3.4272,-3.4356,-3.4397,-3.4397,-3.4397,-3.4397,-3.4397,-3.4397,-3.4397,-3.4397,-3.4397,-3.4358,-3.4306,-3.4306,-3.3979,-3.3639,-3.5142,-3.543,-3.4881,-3.3796,-3.2738,0.0,-3.1732,0.0,0.0,-3.0908,-3.0895,-3.0777,-3.0179,-3.0009,-2.9865,-2.9261,-2.8699,-2.8124,-2.7419,-2.6857,-2.6235,-2.5162,-2.49,-2.4756,-2.423,-2.4031,-2.4066,-2.4315,-2.4306,-2.4351,-2.4661,-2.5953,-2.6972,-2.7029,-2.6734,-2.6736,-2.738,-2.7173,-2.6993,-2.7019,0.0,0.0,-2.6217,-2.6773,-2.6939,-2.6555,-2.7357,-2.7605,-2.7008,-2.7052,-2.7598,-2.8598,-2.8026,-2.849,-3.0026,-3.0103,-3.0179,-3.0287,-3.1893,-3.3454,0.0,0.0,0.0,0.0,0.0,0.0,0.0,0.0,0.0,0.0,0.0,0.0,0.0,0.0,0.0,-3.3077,-3.4106,-3.5109,-3.6016,-3.5679,-3.5387,-3.5596,-3.6038,-3.6075,-3.5515,-3.5649,-3.573,-3.5631,-3.5213,-3.4965,-3.5006,-3.4665,0.0,-3.3619,-3.411,-3.4147,-3.3611,-3.4147,-3.4397,-3.4397,0.0,0.0,-3.4397,-3.4397,-3.4397,-3.4397,-3.4397,-3.4149,-3.3744,-3.3744,-3.3404,-3.2894,-3.3221,-3.3287,-3.3117,-3.2398,-3.1993,-3.1732,-3.1313,-3.1078,-3.0908,-3.0451,-3.0257,-3.0153,-2.9614,-2.9444,0.0,-2.8164,-2.7751,-2.7353,-2.585,-2.5411,-2.5149,-2.4439,-2.4282,-2.4243,-2.4122,-2.3704,-2.338,-2.3437,-2.3085,-2.2838,-2.2892,-2.4296,-2.5437,-2.5437,-2.5369,-2.5481,-2.5883,-2.614,-2.639,-2.6575,-2.6773,-2.692,-2.692,-2.7023,-2.6646,-2.5553,-2.5667,-2.5943,-2.6276,-2.6817,-2.7207,-2.7417,-2.7299,-2.7409,-2.7739,-2.8356,-2.8893,-2.9483,-3.0956,-3.1574,0.0,0.0,0.0,0.0,0.0,0.0,0.0,0.0,0.0,0.0,0.0,-3.059,0.0,0.0,-3.2295,-3.3568,-3.4051,-3.4325,-3.465,-3.4087,-3.3835,-3.4343,-3.4279,-3.4006,-3.3564,-3.3835,-3.4065,-3.4065,-3.3815,-3.3708,-3.3774,-3.3334,-3.297,-3.2744,-3.3071,-3.3108,-3.2846,-3.3177,-3.3348,-3.3348,-3.3348,-3.3348,-3.3348,-3.3713,-3.3894,-3.3882,-3.3627,-3.3522,-3.3548,-3.296,-3.2542,-3.2241,-3.1954,-3.2006,-3.2228,-3.1902,-3.1628,-3.1326,-3.0764,-3.0555,-3.0464,-2.9889,-2.9706,-2.9588,-2.9,-2.8865,-2.8647,-2.7738,-2.7327,-2.6844,-2.5694,-2.5214,-2.4861,-2.4243,-2.4083,-2.4005,-2.3704,-2.3404,-2.3104,-2.2843,-2.2597,-2.2401,-2.24,-2.3106,-2.3698,-2.3698,-2.3808,-2.4081,-2.4544,-2.4654,-2.4838,-2.5279,-2.5238,-2.5251,-2.538,-2.5713,-2.5552,-2.4692,-2.4844,-2.4989,-2.5085,-2.5427,-2.5846,-2.6396,-2.6075,-2.6151,-2.6701,-2.7066,-2.7255,-2.7269,-2.8347,-2.9543,0.0,0.0,0.0,0.0,0.0,0.0,0.0,0.0,-2.8328,-2.927,-2.9988,-3.0766,-3.1859,-3.2169,-3.275,-3.4072,-3.3932,-3.3541,-3.3268,-3.261,-3.2491,-3.33,-3.2673,-3.2039,-3.1561,-3.1868,-3.2096,-3.2096,-3.1957,-3.2018,-3.2125,-3.1646,-3.1473,-3.1613,-3.1733,-3.1865,-3.1952,-3.1984,-3.2072,-3.2171,-3.2171,-3.2171,-3.2171,-3.2691,-3.2965,-3.3013,-3.2373,-3.2383,-3.2833,-3.1733,-3.1281,-3.1229,-3.0802,-3.0906,-3.1306,-3.1551,-3.1248,-3.0607,-3.0218,-3.0022,-2.9839,-2.9287,-2.914,-2.9022,-2.8399,-2.8216,-2.8072,-2.7359,-2.687,-2.6347,-2.5636,-2.5145,-2.4717,-2.423,-2.3913,-2.3681,-2.3274,-2.2949,-2.2596,-2.2152,-2.1982,-2.1891,-2.1904,-2.1877,-2.2009,-2.2336,-2.2577,-2.291,-2.3457,-2.3339,-2.3404,-2.3892,-2.3566,-2.3424,-2.367,-2.4077,-2.4305,-2.4272,-2.4348,-2.4344,-2.4287,-2.4149,-2.4521,-2.5362,-2.4798,-2.4958,-2.5864,-2.5775,-2.5462,-2.499,-2.5623,-2.7375,-2.4045,-2.3833,-2.4195,-2.5487,-2.543,-2.5751,0.0,0.0,-2.8897,-2.9869,-3.106,-3.1866,-3.1559,-3.2131,-3.288,-3.3593,-3.3287,-3.3177,-3.3661,-3.2186,-3.1112,-3.1251,-3.1202,-3.0998,-3.0535,-3.0546,-3.0568,-3.0568,-3.0123,-2.9859,-2.9851,-2.9424,-2.9172,-2.9198,-2.9772,-3.026,-3.0722,-3.0888,-3.1199,-3.1665,-3.1665,-3.1665,-3.1653,-3.1343,-3.1418,-3.1746,-3.0708,-3.0344,-3.0347,-2.9675,-2.9403,-2.9403,-2.9341,-2.9353,-2.9532,-3.0687,-3.0398,-2.9536,-2.9944,-2.9797,-2.9274,-2.8673,-2.8512,-2.8373,-2.7764,-2.7594,-2.7372,-2.6289,-2.5936,-2.5636,-2.4553,-2.4269,-2.4191,-2.4109,-2.3313,-2.2686,-2.3104,-2.2021,-2.0974,-2.0883,-2.0465,-2.01,-2.01,-2.01,-2.061,-2.2166,-2.2414,-2.2549,-2.2871,-2.2871,-2.299,-2.3349,-2.3334,-2.3424,-2.367,-2.322,-2.3473,-2.4838,-2.3864,-2.3752,-2.4852,-2.4374,-2.4171,-2.4292,-2.3968,-2.3979,-2.4368,-2.387,-2.3725,-2.3889,-2.4251,-2.4982,-2.2226,-2.2795,-2.3551,-2.3697,-2.4628,-2.5844,-2.7118,-2.7823,-2.8389,-2.912,-2.9935,-3.0553,-3.065,-3.1131,-3.1793,0.0,-3.2274,-3.207,-3.2355,-3.1021,-2.9846,-2.9571,-2.9589,-2.9539,-2.9365,-2.9657,-2.9832,-2.9832,-2.9646,-2.9489,-2.9489,-2.9008,-2.8735,-2.8735,-2.9002,-2.9268,-2.9452,-2.9521,-2.9692,-2.9932,-2.9932,-2.9783,-2.9588,-2.9758,-2.9656,-2.9336,-2.9206,-2.8807,-2.8186,-2.8522,-2.8676,-2.8715,-2.9003,-2.8897,-2.869,-2.9565,-2.9416,-2.8697,-2.8596,-2.8241,-2.7685,-2.7116,-2.6927,-2.6889,-2.6662,-2.6358,-2.6005,-2.5517,-2.4956,-2.4349,-2.3882,-2.3722,-2.361,-2.3235,-2.2998,-2.2766,-2.2322,-2.1668,-2.0975,-2.0308,-2.0268,-2.0216,-1.9865,-2.0074,-2.0569,-2.1289,-2.1407,-2.155,-2.1983,-2.1772,-2.1625,-2.1779,-2.188,-2.2007,-2.2133,-2.2013,-2.2229,-2.2862,-2.2421,-2.2366,-2.2876,-2.2655,-2.2531,-2.2531,-2.2432,-2.2432,-2.2531,-2.2294,-2.2244,-2.2358,-2.2517,-2.2752,-2.0823,-2.1663,-2.2464,-2.2324,-2.3761,-2.5313,-2.5809,-2.6525,-2.7289,-2.7768,-2.8284,-2.8757,-2.9244,-2.9707,-3.026,-3.114,-3.0807,-3.0539,-3.0956,-2.9688,-2.8778,-2.8774,-2.8576,-2.8498,-2.8662,-2.8907,-2.8993,-2.8912,-2.8901,-2.8901,-2.8901,-2.8509,-2.8315,-2.8315,-2.8315,-2.8362,-2.8491,-2.8362,-2.8362,-2.8491,-2.8361,-2.8158,-2.7878,-2.8255,-2.7882,-2.7043,-2.7607,-2.736,-2.6629,-2.7395,-2.7718,-2.7758,-2.8199,-2.8047,-2.76,-2.818,-2.8161,-2.7779,-2.7422,-2.693,-2.6413,-2.6019,-2.5896,-2.5896,-2.5896,-2.5514,-2.5059,-2.4899,-2.4185,-2.3429,-2.3133,-2.3019,-2.2833,-2.2254,-2.2115,-2.1968,-2.1299,-2.0823,-2.027,-1.9577,-1.9679,-1.9793,-1.9487,-1.9703,-2.0036,-2.0446,-2.0406,-2.0548,-2.1198,-2.0936,-2.0699,-2.0699,-2.0823,-2.0947,-2.0997,-2.118,-2.1394,-2.1667,-2.1355,-2.1328,-2.1654,-2.1355,-2.1247,-2.1399,-2.1326,-2.1326,-2.1399,-2.1277,-2.1229,-2.1302,-2.1229,-2.1204,-2.0677,-2.0663,-2.0826,-2.2621,-2.3109,-2.3572,-2.5065,-2.5474,-2.5594,-2.5915,-2.6491,-2.7008,-2.7323,-2.7884,-2.8508,-2.926,-2.8746,-2.8622,-2.978,-2.8437,-2.7853,-2.9126,-2.8493,-2.811,0.0,-2.8232,-2.7797,-2.7409,-2.7378,-2.7378,-2.7378,-2.7357,-2.7357,-2.7357,-2.7357,-2.7584,-2.8045,-2.7584,-2.7584,-2.8034,-2.7565,-2.7342,-2.7299,-2.6878,-2.6141,-2.5306,-2.578,-2.5948,-2.5937,-2.5979,-2.5979,-2.6021,-2.6404,-2.6277,-2.5943,-2.6394,-2.66,-2.6649,-2.6697,-2.6364,-2.5921,-2.5908,-2.5896,-2.5896,-2.5896,-2.5514,-2.4973,-2.4386,-2.3877,-2.3256,-2.2209,-2.1955,-2.1807,-2.1264,-2.0311,-1.9682,-2.0217,-1.9067,-1.8043,-1.8461,-1.8191,-1.8031,-1.8461,-1.8179,-1.8375,-1.9813,-1.9634,-1.968,-2.061,-2.0712,-2.0699,-2.0699,-2.0699,-2.0799,-2.0997,-2.1021,-2.1385,-2.2303,-2.1254,-2.1155,-2.2328,-2.124,-2.0887,-2.1385,-2.1131,-2.1131,-2.1399,-2.0947,-2.0823,-2.1021,-2.0799,-2.0724,-1.9382,-1.9898,-2.0598,-2.174,-2.2504,-2.3218,-2.4253,-2.4768,-2.5044,-2.5172,-2.4951,-2.4967,-2.5631,-2.6198,-2.6898,-2.7943,-2.832,-2.8595,-2.8962,-2.8483,-2.8183,-2.8435,-2.8667,0.0,0.0,0.0,0.0,-2.7717,-2.7427,-2.7309,-2.7309,-2.7309,-2.7309,-2.7309,-2.7309,-2.7404,-2.7536,-2.7394,-2.7201,-2.7066,-2.6302,-2.5902,-2.5871,-2.5429,-2.5018,-2.4743,-2.4882,-2.4967,-2.5009,-2.5295,-2.5229,-2.5033,-2.5445,-2.5352,-2.4929,-2.4754,-2.454,-2.4405,-2.523,-2.5166,-2.4696,-2.4355,-2.4237,-2.4167,-2.386,-2.3389,-2.2942,-2.2733,-2.2342,-2.182,-2.1094,-2.1146,-2.1157,-2.0237,-2.0016,-1.9953,-1.9754,-1.9261,-1.8695,-1.8154,-1.8474,-1.856,-1.7663,-1.8265,-1.9016,-1.9529,-1.9699,-2.0002,-2.0623,-1.9875,-1.9433,-1.9731,-1.9202,-1.8877,-1.8949,-1.9513,-2.0005,-2.0324,-2.0558,-2.0853,-2.1264,-2.0497,-2.0193,-2.0472,-2.0035,-2.0035,-2.0472,-2.0308,-2.0422,-2.0799,-2.0724,-2.0699,-1.8598,-1.9436,-2.0319,-2.1076,-2.174,-2.238,-2.2961,-2.3373,-2.3641,-2.3774,-2.3367,-2.315,-2.3712,-2.4235,-2.4859,-2.5637,-2.6233,-2.6866,-2.7633,-2.7307,-2.7272,-2.8077,-2.8549,-2.8897,0.0,0.0,0.0,-2.8183,-2.7903,-2.7665,-2.751,-2.7392,-2.7309,-2.7309,-2.7143,-2.7061,-2.7061,-2.6895,-2.6537,-2.6082,-2.5502,-2.5096,-2.4931,-2.4631,-2.4497,-2.4497,-2.4497,-2.4497,-2.4529,-2.465,-2.4577,-2.4323,-2.4602,-2.4407,-2.3991,-2.3831,-2.3371,-2.2919,-2.3708,-2.3652,-2.3236,-2.3036,-2.2853,-2.275,-2.2708,-2.2161,-2.1597,-2.1828,-2.1463,-2.0839,-2.0301,-2.0377,-2.0317,-1.9244,-1.9273,-1.9408,-1.9018,-1.8646,-1.8312,-1.7961,-1.8166,-1.8132,-1.7279,-1.7993,-1.8566,-1.8397,-1.8746,-1.9334,-2.0131,-1.9271,-1.8796,-1.9271,-1.8622,-1.8154,-1.8154,-1.8883,-1.9258,-1.9057,-1.9596,-2.0015,-2.0233,-1.9491,-1.9304,-1.9786,-1.9271,-1.9258,-1.9798,-1.9798,-1.9838,-1.995,-2.0143,-2.0206,-1.8245,-1.9089,-1.9838,-2.055,-2.0775,-2.0929,-2.1306,-2.1446,-2.1549,-2.1884,-2.1763,-2.1617,0.0,0.0,-2.2552,-2.2569,-2.2963,-2.3895,-2.5855,-2.5172,-2.5409,0.0,0.0,0.0,0.0,0.0,0.0,-2.8621,0.0,-2.8411,-2.7945,-2.7521,-2.733,-2.7309,-2.6884,-2.6635,-2.6615,-2.6127,-2.5637,-2.5189,-2.5168,-2.4921,-2.4497,-2.4497,-2.4497,-2.4497,-2.4476,-2.4466,-2.4435,-2.4022,-2.3867,-2.3805,-2.3773,-2.3416,-2.3041,-2.3492,-2.3023,-2.2168,-2.2168,-2.1909,-2.1653,-2.2011,-2.1885,-2.1678,-2.2355,-2.1756,-2.0985,-2.1618,-2.1178,-2.0421,-1.981,-1.9636,-1.9372,-1.8352,-1.8084,-1.8084,-1.8084,-1.7332,-1.6919,-1.7882,-1.7252,-1.6724,-1.7281,-1.7275,-1.7063,-1.6585,-1.6943,-1.776,-1.916,-1.8817,-1.867,-1.9184,-1.8756,-1.8412,-1.8412,-1.8965,-1.9087,-1.856,-1.8534,-1.8804,-1.937,-1.8388,-1.8314,-1.9344,-1.883,-1.8805,-1.9331,-1.9356,-1.9087,-1.8573,-1.9138,-1.9344,-1.5953,-1.694,-1.7931,-1.8096,-1.9061,-1.998,-2.0066,-2.0597,-2.1076,-2.1207,-2.0766,-2.0296,0.0,0.0,0.0,-2.2466,-2.4013,0.0,-2.6258,-2.6394,0.0,-2.7118,0.0,-2.7835,-2.8893,-2.8638,0.0,0.0,-2.8635,-2.8411,-2.7945,-2.781,-2.7603,-2.732,-2.7195,-2.6967,-2.6615,-2.5792,-2.5303,-2.5179,-2.4838,-2.4611,-2.4497,-2.4497,-2.4497,-2.4476,-2.4188,-2.4043,-2.4012,-2.3546,-2.3163,-2.2872,-2.2827,-2.2324,-2.1616,-2.1754,-2.1213,-2.0449,-2.0449,-2.0936,-2.1563,-2.1326,-2.1171,-2.1037,-2.082,-2.0555,-2.0325,-2.0522,-2.0168,-1.9649,-1.9325,-1.9028,-1.8685,-1.8217,-1.8084,-1.8084,-1.8084,-1.7607,-1.7255,-1.7519,-1.6773,-1.622,-1.6713,-1.649,-1.6333,-1.6541,-1.6692,-1.7139,-1.8142,-1.7291,-1.6775,-1.7183,-1.6492,-1.5998,-1.5998,-1.7134,-1.7797,-1.7641,-1.8605,-1.9247,-1.9382,-1.8706,-1.8505,-1.8934,-1.8392,-1.8165,-1.836,-1.8754,-1.8647,-1.8092,-1.9003,-1.8993,-1.4758,-1.5692,-1.6643,-1.6643,-1.7367,-1.8089,-1.8454,-1.8953,-1.9391,-1.9744,-1.9577,-1.92,-1.8699,-2.0014,0.0,0.0,0.0,0.0,-2.5274,-2.5768,-2.6203,0.0,-2.6834,0.0,-2.8026,-2.7929,-2.7921,0.0,-2.8271,-2.8137,-2.7641,-2.7647,-2.7521,-2.732,-2.7112,-2.6687,-2.5989,-2.5285,-2.489,-2.4879,-2.4621,-2.4497,-2.4497,-2.4497,-2.4497,-2.4476,0.0,-2.3919,-2.3867,-2.3153,-2.2729,-2.2459,-2.2056,-2.1419,-2.0761,-2.0777,-2.0216,-1.9437,-1.9724,-2.0099,-2.0465,-2.0353,-2.0093,-1.9844,-2.002,-1.976,-1.9447,-1.9944,-1.9661,-1.9152,-1.8959,-1.8721,-1.8402,-1.8017,-1.8002,-1.8084,-1.8084,-1.7737,-1.7338,-1.7094,-1.6417,-1.5969,-1.6256,-1.5889,-1.5647,-1.5888,-1.5933,-1.6125,-1.6621,-1.6208,-1.6076,-1.6502,-1.5892,-1.5452,-1.5452,-1.6393,-1.6995,-1.6995,-1.7964,-1.8615,-1.8827,-1.8088,-1.7843,-1.8178,-1.7426,-1.7145,-1.7393,-1.792,-1.7885,-1.7351,-1.8364,-1.8516,-1.4111,-1.4949,-1.5739,-1.5726,-1.5852,-1.6121,-1.6785,-1.7095,-1.7364,-1.7836,-1.8208,-1.8206,-1.7432,-1.8822,-1.9824,-1.8965,0.0,-2.3086,-2.3907,-2.4417,-2.515,-2.6184,-2.6399,-2.6641,-2.7101,-2.705,-2.7039,-2.722,-2.74,-2.7369,-2.7097,-2.7067,-2.6996,-2.6931,-2.6526,-2.5935,-2.5057,-2.4594,-2.4368,-2.4368,-2.4368,-2.4325,-2.4229,-2.4325,-2.4368,-2.4348,0.0,0.0,-2.3587,-2.2581,-2.2132,-2.1998,-2.12,-2.0525,-2.0004,-2.0078,-1.951,-1.879,-1.9286,-1.9203,-1.8931,-1.9374,-1.9068,-1.8676,-1.9684,-1.9221,-1.8625,-1.9598,-1.9276,-1.8626,-1.8557,-1.8416,-1.8181,-1.7784,-1.782,-1.7954,-1.8008,-1.7634,-1.7105,-1.6507,-1.6118,-1.5878,-1.5808,-1.5418,-1.5108,-1.5108,-1.5108,-1.5108,-1.5108,-1.5521,-1.5933,-1.6358,-1.6049,-1.5797,-1.5797,-1.622,-1.6507,-1.6507,-1.7002,-1.7473,-1.7894,-1.7068,-1.683,-1.7266,-1.6508,-1.6254,-1.6598,-1.7197,-1.7186,-1.6621,-1.7641,-1.8004,-1.3061,-1.3648,-1.426,-1.4249,-1.493,-1.5575,-1.5544,-1.6395,0.0,-1.6378,-1.694,-1.7235,-1.633,-1.7712,-1.9123,-1.9517,-2.1288,-2.3055,-2.4303,-2.4547,-2.4803,0.0,0.0,0.0,0.0,0.0,0.0,0.0,0.0,-2.5242,-2.5884,-2.5891,-2.5545,-2.4842,-2.4979,-2.4826,-2.4395,-2.3887,-2.3677,-2.3677,-2.3677,-2.3353,-2.2799,-2.3396,-2.3677,-2.3584,0.0,0.0,-2.2379,-2.0926,-2.0178,-1.9936,-1.9753,-1.9215,-1.8462,-1.8492,-1.8142,-1.7693,-1.7797,-1.7773,-1.7852,-1.8865,-1.9079,-1.9038,-1.9199,-1.8874,-1.8424,-1.8636,-1.803,-1.7384,-1.7629,-1.7402,-1.7197,-1.7595,-1.7414,-1.7168,-1.7455,-1.7105,-1.6486,-1.5556,-1.5659,-1.5762,-1.5326,-1.5165,-1.5108,-1.5108,-1.5108,-1.5108,-1.5108,-1.5188,-1.528,-1.536,-1.5292,-1.5246,-1.5246,-1.5728,-1.6026,-1.6026,-1.6461,-1.677,-1.6862,-1.669,-1.6633,-1.6724,-1.6991,-1.6956,-1.6598,-1.7538,-1.7504,-1.6621,-1.7641,-1.7645,-1.2813,-1.3072,-1.3331,-1.3346,-1.3711,-1.4158,-1.4466,0.0,0.0,-1.5723,-1.6132,-1.6327,-1.5973,-1.704,-1.803,-1.8236,-2.0177,-2.1971,-2.2931,-2.3842,0.0,-2.4475,0.0,0.0,0.0,0.0,0.0,0.0,0.0,-2.3845,-2.4854,-2.4914,-2.4744,-2.4297,-2.4034,-2.3783,-2.3625,-2.3153,-2.295,-2.295,-2.295,-2.2765,-2.2394,-2.2765,-2.2834,-2.2601,-2.1616,0.0,-2.1264,-2.0137,-1.9564,-1.9345,-1.8898,-1.8299,-1.7709,-1.7731,-1.7429,-1.7001,-1.7094,-1.7153,-1.7216,-1.7537,-1.7641,-1.7608,-1.7631,-1.7332,-1.7002,-1.7252,-1.6813,-1.6357,-1.6768,-1.6665,-1.657,-1.7088,-1.7065,-1.698,-1.7317,-1.6784,-1.6082,-1.5613,-1.551,-1.5406,-1.5154,-1.5108,-1.5108,-1.5108,-1.5108,-1.5108,-1.5108,-1.5108,-1.5108,-1.5108,-1.5108,-1.5108,-1.5108,-1.5337,-1.5602,-1.5889,-1.6118,-1.6346,-1.6587,-1.6358,-1.6231,-1.6231,-1.621,-1.6084,-1.5819,-1.6575,-1.6828,-1.6621,-1.7366,-1.7596,-1.2759,-1.2813,-1.2813,-1.2813,-1.2813,-1.2926,-1.3385,-1.3689,-1.4046,-1.4806,-1.5273,-1.5525,-1.5562,-1.6343,-1.7011,0.0,-1.8742,-2.04,-2.1342,-2.2632,-2.3505,0.0,0.0,0.0,0.0,0.0,0.0,0.0,0.0,0.0,-2.3616,-2.3682,-2.3632,-2.3548,-2.3102,-2.2809,-2.2761,-2.2387,-2.2183,-2.2183,-2.2183,-2.2085,-2.1952,-2.2001,-2.1926,-2.1607,-2.0838,0.0,0.0,-1.9255,-1.8825,-1.8676,-1.8015,-1.7431,-1.6974,-1.7044,-1.6795,-1.6454,-1.649,-1.6551,-1.6468,-1.5987,-1.6011,-1.6214,-1.6268,-1.5951,-1.5692,-1.6154,-1.5875,-1.5556,-1.6005,-1.5979,-1.592,-1.6161,-1.6337,-1.6453,-1.6538,-1.6033,-1.5573,-1.5573,-1.5325,-1.5108,-1.5108,-1.5108,-1.5108,-1.5108,-1.5108,-1.5108,-1.5108,-1.5108,-1.5108,-1.5108,-1.5108,-1.5108,-1.5108,-1.5108,-1.528,-1.5694,-1.5728,-1.5876,-1.6254,-1.5911,-1.5739,-1.5739,-1.5429,-1.5269,-1.528,-1.5808,-1.6313,-1.677,-1.7186,-1.7656,-1.2657,-1.2813,-1.2813,-1.2813,-1.2813,-1.2694,-1.2349,0.0,-1.3454,-1.284,-1.3913,-1.4872,-1.4585,-1.5348,-1.6316,-1.715,-1.7732,-1.8678,-2.052,-2.1163,-2.1805,-2.2627,0.0,0.0,0.0,0.0,0.0,0.0,0.0,0.0,-2.1655,-2.1691,-2.1549,-2.122,-2.1719,-2.1862,-2.1544,-2.1508,-2.1481,-2.1481,-2.1481,-2.1132,-2.0501,-2.0819,-2.0936,-2.0802,-1.9053,0.0,0.0,-1.7693,-1.6951,-1.6668,-1.659,-1.6283,-1.5954,-1.5947,-1.5903,-1.5816,-1.548,-1.535,-1.523,-1.4536,-1.521,-1.63,-1.63,-1.5951,-1.5702,-1.61,-1.5614,-1.5064,-1.5463,-1.5284,-1.4907,-1.4434,-1.4636,-1.4687,-1.3924,-1.4163,-1.4543,-1.4543,-1.4845,-1.5108,-1.5108,-1.5108,-1.5108,-1.5108,-1.5108,-1.5108,-1.5108,-1.5108,-1.5108,-1.5108,-1.5108,-1.5108,-1.5108,-1.5108,-1.5131,-1.5177,-1.5177,-1.52,-1.5246,-1.52,-1.5177,-1.5177,-1.5602,-1.5832,-1.5831,-1.63,-1.6818,-1.7338,-1.7384,-1.7656,-1.2231,-1.2575,-1.2813,-1.2813,-1.2591,-1.237,-1.228,0.0,-1.2479,-1.2563,-1.3106,-1.3746,-1.4277,-1.4907,-1.5546,-1.6322,-1.7023,-1.7933,-1.9103,-1.9886,-2.0641,-2.139,0.0,0.0,0.0,0.0,0.0,0.0,0.0,0.0,-2.0746,-2.096,-2.1028,-2.0883,-2.0911,-2.0848,-2.0736,-2.0736,-2.0736,-2.0736,-2.0736,-2.0555,-2.0283,-2.0173,-2.0044,-1.9773,-1.8516,0.0,0.0,-1.7035,-1.6482,-1.6293,-1.584,-1.5583,-1.5446,-1.5446,-1.5446,-1.5429,-1.5266,-1.5215,-1.5095,-1.4341,-1.4504,-1.4921,-1.4701,-1.4491,-1.438,-1.4532,-1.4314,-1.4148,-1.4611,-1.4807,-1.4895,-1.4895,-1.4611,-1.4394,-1.4504,-1.4336,-1.4174,-1.4258,-1.4427,-1.4475,-1.4242,-1.4199,-1.4199,-1.4199,-1.4199,-1.4199,-1.4199,-1.4199,-1.4199,-1.4199,-1.4731,-1.5108,-1.5108,-1.5108,-1.5108,-1.5108,-1.5108,-1.4971,-1.4697,-1.4674,-1.4535,-1.4199,-1.4406,-1.4681,-1.5009,-1.5175,-1.5838,-1.6922,-1.6922,-1.7332,-1.1791,-1.2226,-1.2613,-1.2764,-1.2505,-1.2251,-1.2377,-1.2097,-1.1914,-1.232,-1.2562,-1.2919,-1.3685,-1.4143,-1.4711,-1.5461,-1.6237,-1.7106,-1.8132,-1.8979,-1.9747,0.0,0.0,0.0,0.0,0.0,0.0,0.0,0.0,0.0,0.0,-2.0365,-2.0564,-2.0711,-2.0437,-2.024,-2.0129,-2.024,-2.024,-2.0129,-2.0129,-2.0129,-2.0112,-1.9624,-1.9196,-1.8793,0.0,0.0,0.0,-1.6484,-1.6182,-1.6086,-1.5591,-1.5317,-1.5198,-1.5343,-1.5309,-1.5197,-1.5095,-1.5052,-1.4932,-1.417,-1.3922,-1.387,-1.3596,-1.3511,-1.3528,-1.3648,-1.3682,-1.3717,-1.3946,-1.4159,-1.4364,-1.4486,-1.4005,-1.3678,-1.4225,-1.4044,-1.3861,-1.4043,-1.4139,-1.4105,-1.3845,-1.3679,-1.3597,-1.3597,-1.3597,-1.3597,-1.3597,-1.3597,-1.3597,-1.3597,-1.4222,-1.4663,-1.4663,-1.4663,-1.4706,-1.4817,-1.4717,-1.4567,-1.4357,-1.4238,-1.3999,-1.3621,-1.3597,-1.3787,-1.4163,-1.4163,-1.4936,-1.6398,-1.6398,-1.7019,-1.14,-1.1852,-1.2127,-1.2662,-1.2587,-1.2414,-1.2414,-1.2221,-1.2024,-1.1747,-1.2259,-1.2657,-1.2453,-1.2966,-1.3743,-1.4759,-1.5205,-1.6099,-1.8025,-1.8591,0.0,0.0,0.0,0.0,0.0,0.0,0.0,0.0,0.0,0.0,0.0,-1.96,-1.9837,-2.03,-2.0292,-2.0121,-1.9708,-2.0112,-2.0103,-1.9708,-1.9708,-1.9708,-1.9683,-1.8948,-1.84,0.0,0.0,0.0,0.0,-1.5959,-1.5805,-1.5805,-1.5797,-1.5557,-1.5266,-1.5651,-1.5548,-1.5163,-1.4812,-1.4725,-1.4564,-1.3776,-1.3511,-1.3511,-1.3511,-1.3511,-1.3588,-1.3982,-1.4093,-1.3999,-1.3605,-1.3245,-1.2914,-1.252,-1.2331,-1.2193,-1.2061,-1.275,-1.3501,-1.3748,-1.4019,-1.4208,-1.4198,-1.3851,-1.3597,-1.3597,-1.3597,-1.3597,-1.3597,-1.3597,-1.3597,-1.3597,-1.361,-1.3621,-1.3621,-1.3621,-1.3783,-1.4192,-1.3834,-1.3793,-1.4177,-1.3824,-1.3621,-1.3597,-1.3597,-1.3597,-1.361,-1.361,-1.4405,-1.5917,-1.5917,-1.6696,-1.0393,-1.1216,-1.1989,-1.2023,-1.1983,-1.2011,-1.2339,-1.1978,-1.1596,-1.1682,-1.1871,-1.2103,-1.2367,-1.2869,-1.3594,-1.4546,-1.5098,-1.566,0.0,0.0,0.0,0.0,0.0,0.0,0.0,0.0,0.0,0.0,0.0,0.0,0.0,-1.9315,-1.9532,-2.0283,-2.0292,-2.0121,-1.97,-1.9811,-1.9727,-1.9358,-1.9358,-1.9358,-1.9333,-1.8562,0.0,0.0,0.0,0.0,0.0,-1.5557,-1.5257,-1.5043,-1.5043,-1.4795,-1.4504,-1.4889,-1.4958,-1.4872,-1.5,-1.5043,-1.4923,-1.4161,-1.3913,-1.3862,-1.3588,-1.3511,-1.3536,-1.3656,-1.3519,-1.3365,-1.3476,-1.304,-1.264,-1.2757,-1.2358,-1.2016,-1.2357,-1.2476,-1.2669,-1.3222,-1.3383,-1.3391,-1.3201,-1.3065,-1.2884,-1.2622,-1.2559,-1.2559,-1.2559,-1.2559,-1.2559,-1.2559,-1.2559,-1.2959,-1.3922,-1.3762,-1.3783,-1.4177,-1.381,-1.3481,-1.3263,-1.3109,-1.2905,-1.2584,-1.2559,-1.2745,-1.3064,-1.3064,-1.3819,-1.5315,-1.6326,-1.7038,-0.9837,-1.0726,-1.1641,-1.1778,-1.1874,0.0,-1.2457,-1.2134,-1.175,-1.1941,-1.1968,-1.2028,-1.2263,-1.2557,-1.3048,-1.3897,-1.4475,-1.5066,0.0,0.0,0.0,0.0,0.0,0.0,0.0,0.0,0.0,0.0,0.0,0.0,0.0,-1.8466,-1.8689,-1.9588,-1.9775,-1.9692,-1.9307,-1.9453,-1.9264,-1.8751,-1.8888,-1.8879,-1.8725,-1.81,0.0,0.0,0.0,0.0,0.0,-1.5377,-1.5086,-1.4889,-1.4889,-1.4564,-1.4144,-1.4538,-1.459,-1.4495,-1.4718,-1.4786,-1.4692,-1.4076,-1.3879,-1.3827,-1.3579,-1.3511,-1.3511,-1.3511,-1.3254,-1.306,-1.3254,-1.2749,-1.2244,-1.2492,-1.2108,-1.1843,-1.2388,-1.249,-1.268,-1.3298,-1.3421,-1.335,-1.3167,-1.29,-1.2661,-1.2579,-1.2294,-1.2211,-1.2523,-1.2243,-1.2106,-1.2303,-1.2143,-1.2448,-1.3539,-1.3259,-1.3268,-1.3821,-1.3348,-1.2959,-1.2769,-1.2626,-1.2403,-1.2101,-1.2101,-1.224,-1.254,-1.2915,-1.3566,-1.4512,-1.5791,-1.6412,0.0,-1.0368,-1.1082,-1.1759,-1.214,-1.2474,-1.2759,-1.2581,0.0,-1.2414,-1.2414,-1.2344,-1.2164,-1.2121,-1.2362,-1.2992,-1.3543,0.0,0.0,0.0,0.0,0.0,0.0,0.0,0.0,0.0,0.0,0.0,0.0,0.0,0.0,-1.7268,-1.747,-1.8432,-1.8845,-1.893,-1.8588,-1.8938,-1.8708,-1.8,-1.8357,-1.834,-1.7983,-1.7586,0.0,0.0,0.0,0.0,0.0,-1.5326,-1.5163,-1.5137,-1.5137,-1.4692,-1.4101,-1.4495,-1.441,-1.4093,-1.4093,-1.4093,-1.4033,-1.3639,-1.3511,-1.3511,-1.3511,-1.3511,-1.3511,-1.3511,-1.3237,-1.2975,-1.3,-1.2389,-1.178,-1.178,-1.1627,-1.1652,-1.2219,-1.2685,-1.3183,-1.3815,-1.3907,-1.3882,-1.3882,-1.3286,-1.29,-1.3241,-1.2645,-1.2459,-1.3195,-1.2532,-1.2161,-1.2626,-1.2231,-1.2108,-1.2635,-1.2305,-1.2415,-1.3204,-1.2516,-1.2241,-1.2634,-1.2269,-1.2076,-1.2076,-1.2076,-1.2101,-1.2101,-1.308,-1.3547,-1.3547,-1.4584,-1.5039,-0.9449,0.0,-1.1143,-1.1168,-1.1777,-1.2474,0.0,-1.2581,-1.2414,-1.2414,-1.2414,-1.2398,-1.2339,-1.2328,-1.2489,-1.304,0.0,0.0,0.0,0.0,0.0,0.0,0.0,0.0,0.0,0.0,0.0,0.0,0.0,0.0,0.0,-1.6881,-1.7126,-1.7993,-1.7913,-1.807,-1.8588,-1.8149,-1.7929,-1.7991,-1.7826,-1.7834,-1.7965,-1.7085,0.0,0.0,0.0,0.0,-1.4941,-1.4846,-1.4632,-1.4358,-1.4358,-1.4067,-1.3691,-1.4093,-1.4179,-1.4093,-1.4093,-1.4093,-1.4033,-1.3639,-1.3511,-1.3511,-1.3511,-1.3511,-1.3511,-1.3511,-1.304,-1.2595,-1.2932,-1.2201,-1.1482,-1.1746,-1.1576,-1.1455,-1.1867,-1.2023,-1.2364,-1.3223,-1.3449,-1.355,-1.3636,-1.3633,-1.3553,-1.3323,-1.3131,-1.3075,-1.3268,-1.2977,-1.2689,-1.256,-1.2305,-1.2192,-1.2377,-1.2112,-1.2211,-1.2808,-1.2275,-1.1988,-1.2088,-1.1997,-1.1902,-1.1803,-1.1902,-1.2002,-1.2101,-1.2649,-1.2922,-1.2931,-1.3942,-1.4404,-0.9331,-1.0193,-1.1042,-1.1023,-1.1798,-1.2608,-1.278,-1.271,-1.2576,-1.2576,-1.2576,-1.2576,-1.2576,-1.2662,-1.2813,0.0,-1.34,0.0,0.0,0.0,0.0,0.0,0.0,0.0,0.0,0.0,0.0,0.0,0.0,0.0,0.0,-1.5333,-1.5446,-1.6091,-1.6242,-1.6976,-1.8331,-1.7937,-1.7655,-1.7478,-1.7312,-1.7141,-1.694,-1.6191,-1.5925,0.0,0.0,0.0,-1.4915,-1.4752,-1.4341,-1.3827,-1.3827,-1.3485,-1.304,-1.3442,-1.361,-1.361,-1.361,-1.3459,-1.3305,-1.328,-1.2966,-1.2676,-1.291,-1.2639,-1.2373,-1.3258,-1.2971,-1.244,-1.2683,-1.2022,-1.1396,-1.1729,-1.1661,-1.1687,-1.2216,-1.2391,-1.2647,-1.3351,-1.3573,-1.374,-1.3895,-1.382,-1.3779,-1.3855,-1.3534,-1.3433,-1.38,-1.3377,-1.3041,-1.3005,-1.2556,-1.2246,-1.2246,-1.1934,-1.1948,-1.2472,-1.2068,-1.1803,-1.1803,-1.1803,-1.1769,-1.1703,-1.1828,-1.1952,-1.2002,-1.2296,-1.2422,-1.2432,-1.3167,-1.3504,-0.9314,-1.0136,-1.0967,-1.1053,-1.1883,-1.2667,-1.2667,-1.2759,-1.2813,-1.2813,-1.2813,-1.2835,-1.2905,-1.3001,0.0,0.0,0.0,0.0,0.0,0.0,0.0,0.0,0.0,0.0,0.0,0.0,0.0,0.0,0.0,0.0,0.0,-1.3459,-1.351,-1.3991,-1.4686,-1.5847,-1.7572,-1.7681,-1.7419,-1.6833,-1.6833,-1.6499,-1.5865,-1.542,-1.5394,0.0,0.0,0.0,-1.4923,-1.4572,-1.4033,-1.3425,-1.3365,-1.2946,-1.2432,-1.2766,-1.2923,-1.2886,-1.2799,-1.2558,-1.231,-1.2574,-1.2122,-1.1551,-1.2,-1.1479,-1.1056,-1.2738,-1.2719,-1.2221,-1.2276,-1.1816,-1.1396,-1.1729,-1.1788,-1.202,-1.2817,-1.3096,-1.3287,-1.3691,-1.386,-1.401,-1.4207,-1.394,-1.3881,-1.4362,-1.3891,-1.3727,-1.4394,-1.3796,-1.3384,-1.358,-1.2922,-1.2378,-1.2202,-1.1799,-1.1729,-1.2113,-1.1839,-1.1678,-1.1678,-1.1653,-1.1653,-1.1703,-1.1794,-1.1902,-1.1927,-1.2051,-1.2101,-1.211,-1.2505,-1.2661,-0.9347,-1.029,-1.1107,-1.065,-1.134,-1.2127,-1.2127,-1.2467,-1.2813,-1.2813,-1.2813,-1.2937,-1.3342,-1.3222,-1.3238,0.0,0.0,0.0,0.0,0.0,0.0,0.0,0.0,0.0,0.0,0.0,0.0,0.0,0.0,0.0,0.0,0.0,-1.3234,-1.4141,-1.4594,-1.5102,-1.5638,-1.6259,-1.6542,-1.6476,-1.6476,-1.637,-1.6189,-1.5497,-1.5215,0.0,0.0,-1.3716,-1.3742,-1.3382,-1.3198,-1.3023,-1.2689,-1.2492,-1.2398,-1.2458,-1.2475,-1.2427,-1.1978,-1.1777,-1.1652,-1.1202,-1.0952,-1.0857,-1.0942,-1.085,-1.088,-1.1679,-1.1554,-1.1312,-1.1758,-1.1601,-1.1396,-1.1729,-1.1788,-1.202,-1.2817,-1.3009,-1.3141,-1.3472,-1.37,-1.383,-1.386,-1.4055,-1.4156,-1.4091,-1.4218,-1.4309,-1.4318,-1.4198,-1.4008,-1.371,-1.3299,-1.2795,-1.2175,-1.2009,-1.18,-1.148,-1.1504,-1.1519,-1.1519,-1.1427,-1.1477,-1.1703,-1.1728,-1.1852,-1.2076,-1.2076,-1.2101,-1.211,-1.2505,-1.2514,-0.9019,-0.9579,-1.0106,-0.9972,-1.1418,-1.2796,-1.2796,-1.3002,-1.3164,-1.2974,-1.2947,-1.3012,-1.3238,0.0,-1.369,0.0,0.0,0.0,0.0,0.0,0.0,0.0,0.0,0.0,0.0,0.0,0.0,0.0,0.0,0.0,0.0,0.0,-1.1788,-1.2261,-1.3028,-1.3457,-1.346,-1.4419,-1.4956,-1.5104,-1.4768,-1.4482,-1.4225,-1.3892,-1.3875,-1.4032,0.0,-1.3511,-1.3476,-1.3155,-1.2732,-1.2319,-1.2139,-1.1782,-1.1294,-1.1239,-1.1221,-1.119,-1.1135,-1.0854,-1.0497,-1.0444,-1.0082,-0.9719,-1.0026,-0.9672,-0.9378,-1.0277,-1.0751,-1.1124,-1.1647,-1.1415,-1.1111,-1.1497,-1.1475,-1.1527,-1.2081,-1.2462,-1.2789,-1.2915,-1.3321,-1.367,-1.3769,-1.3929,-1.4049,-1.4139,-1.4198,-1.4258,-1.4387,-1.4327,-1.4225,-1.4035,-1.3703,-1.3194,-1.2518,-1.221,-1.187,-1.1444,-1.1477,-1.1477,-1.1393,-1.1678,-1.1772,-1.1603,-1.1949,-1.2085,-1.2002,-1.2287,-1.2413,-1.2432,-1.3056,-1.3249,-0.8714,-0.9017,-0.9361,-0.9681,-1.1252,-1.2842,-1.3106,-1.3255,-1.33,-1.3373,-1.3313,-1.327,0.0,-1.362,0.0,0.0,0.0,0.0,0.0,0.0,0.0,0.0,0.0,0.0,0.0,0.0,0.0,0.0,0.0,0.0,0.0,0.0,-1.0484,-1.0582,-1.1555,-1.1934,-1.1614,-1.2668,-1.3379,-1.3638,-1.3291,-1.2878,-1.2391,-1.2326,-1.2476,-1.2775,-1.2748,-1.2718,-1.2693,-1.2344,-1.1842,-1.1275,-1.1275,-1.0842,-1.0195,-1.0098,-1.0053,-1.009,-1.0202,-0.9888,-0.9442,-0.9597,-0.9172,-0.8672,-0.9066,-0.86,-0.8109,-0.9119,-0.9922,-1.0612,-1.1214,-1.0998,-1.074,-1.1213,-1.1136,-1.1083,-1.1419,-1.1888,-1.2258,-1.2258,-1.2665,-1.313,-1.345,-1.3541,-1.37,-1.4049,-1.4049,-1.41,-1.4357,-1.4327,-1.4297,-1.4327,-1.4046,-1.3607,-1.3027,-1.2518,-1.2123,-1.1893,-1.1599,-1.1437,-1.143,-1.1965,-1.2096,-1.1825,-1.2341,-1.2452,-1.2088,-1.2591,-1.2781,-1.2707,-1.3534,-1.381,-0.858,-0.9244,-0.9983,-1.0135,-1.0396,-1.0943,-1.2021,-1.2534,-1.3024,-1.3917,-1.3927,-1.3766,0.0,-1.3986,0.0,0.0,0.0,0.0,0.0,0.0,0.0,0.0,0.0,0.0,0.0,0.0,0.0,0.0,0.0,0.0,0.0,0.0,0.0,-1.05,-1.1119,-1.1123,-1.044,-1.1316,-1.2045,-1.2599,-1.2932,-1.276,-1.2133,-1.1881,-1.1771,-1.1741,-1.0815,-1.0432,-1.0402,-1.0007,-0.9825,-0.9755,-0.9755,-0.9714,-0.9647,-0.9636,-0.965,-0.9572,-0.9095,-0.8917,-0.8784,-0.8234,-0.802,-0.7981,-0.8002,-0.7955,-0.8029,-0.8672,-0.8896,-0.913,-0.9928,-1.0082,-1.0215,-1.0872,-1.1011,-1.1083,-1.1419,-1.154,-1.1571,-1.1571,-1.1609,-1.1857,-1.2481,-1.2765,-1.3047,-1.348,-1.3821,-1.401,-1.404,-1.4207,-1.4366,-1.4476,-1.4369,-1.4051,-1.357,-1.2924,-1.2677,-1.2959,-1.1921,-1.1456,-1.1755,-1.2,-1.2298,-1.2687,-1.295,-1.2905,-1.2652,-1.3075,-1.3075,-1.2707,-1.3534,-1.3507,-0.8559,-0.9088,-0.9651,-0.9671,-0.9915,-1.0555,-1.2326,-1.2964,-1.3275,-1.3848,-1.4121,0.0,0.0,0.0,0.0,0.0,0.0,0.0,0.0,0.0,0.0,0.0,0.0,0.0,0.0,0.0,0.0,0.0,0.0,0.0,0.0,0.0,0.0,-0.9941,-0.9865,-0.9783,-0.9628,-0.9852,-1.0149,-1.0509,-1.0934,-1.0967,-1.0732,-1.0725,-1.0713,-1.0702,-1.0355,-1.0191,-1.0161,-0.9765,-0.9588,-0.9562,-0.9223,-0.9093,-0.9066,-0.8679,-0.8553,-0.8527,-0.8315,-0.8235,-0.8215,-0.7981,-0.7901,-0.7901,-0.7901,-0.7901,-0.7985,-0.8387,-0.8486,-0.873,-0.9733,-0.9883,-0.9858,-1.0276,-1.0217,-1.0101,-1.023,-1.0566,-1.0881,-1.0881,-1.1212,-1.1578,-1.1826,-1.195,-1.2074,-1.2389,-1.2451,-1.2665,-1.329,-1.3359,-1.358,-1.4139,-1.3994,-1.3807,-1.3654,-1.3089,-1.2812,-1.2967,-1.2511,-1.2148,-1.1991,-1.2787,-1.2995,-1.2502,-1.3213,-1.3552,-1.3451,-1.3608,-1.3708,-1.3818,-1.3855,-1.3855,-0.8559,-0.8959,-0.9335,-0.9388,-0.9579,-1.0264,-1.2121,-1.2875,-1.3369,-1.4093,-1.4183,-1.4129,-1.4067,0.0,0.0,0.0,0.0,0.0,0.0,0.0,0.0,0.0,0.0,0.0,0.0,0.0,0.0,0.0,0.0,0.0,0.0,0.0,0.0,0.0,-0.9138,-0.8968,-0.8936,-0.8971,-0.9,-0.9064,-0.9374,-0.957,-0.9636,-0.9755,-0.9739,-0.9658,-0.9623,-0.959,-0.9569,-0.9217,-0.9066,-0.9014,-0.8653,-0.8521,-0.8468,-0.8055,-0.7901,-0.7901,-0.7901,-0.7901,-0.7901,-0.7901,-0.7901,-0.7901,-0.7901,-0.7901,-0.7937,-0.8117,-0.8225,-0.8499,-0.936,-0.9515,-0.9524,-0.9783,-0.9662,-0.9516,-0.9516,-0.9862,-1.0174,-1.0174,-1.0534,-1.093,-1.1149,-1.118,-1.1305,-1.164,-1.1578,-1.1764,-1.2512,-1.2543,-1.2795,-1.3601,-1.3508,-1.3497,-1.3776,-1.3391,-1.3184,-1.3334,-1.3212,-1.2923,-1.2545,-1.3365,-1.3549,-1.2949,-1.3686,-1.4039,-1.3911,-1.4039,-1.4231,-1.4476,-1.4222,-1.4231,-0.8519,-0.8828,-0.9141,-0.9311,-0.9498,-0.9921,-1.1089,-1.2012,-1.3047,-1.4803,-1.4218,-1.3493,-1.3757,0.0,0.0,0.0,0.0,0.0,0.0,0.0,0.0,0.0,0.0,0.0,0.0,0.0,0.0,0.0,0.0,0.0,0.0,0.0,0.0,0.0,-0.9077,-0.8929,-0.8415,-0.8796,-0.8828,-0.8516,-0.8622,-0.8842,-0.9095,-0.9089,-0.8951,-0.8692,-0.8427,-0.8285,-0.8273,-0.8009,-0.7901,-0.7901,-0.7901,-0.7901,-0.7901,-0.7901,-0.7901,-0.7901,-0.7901,-0.7901,-0.7901,-0.7901,-0.7901,-0.7901,-0.7901,-0.7901,-0.7901,-0.7907,-0.8093,-0.8351,-0.8644,-0.8903,-0.9167,-0.945,-0.9516,-0.9516,-0.9516,-0.9516,-0.9516,-0.9516,-0.9516,-0.9702,-1.039,-1.0485,-1.073,-1.1392,-1.1485,-1.1547,-1.1764,-1.1795,-1.2104,-1.2917,-1.2978,-1.326,-1.395,-1.389,-1.395,-1.4267,-1.3989,-1.3675,-1.3416,-1.3588,-1.3881,-1.4288,-1.4417,-1.4304,-1.392,-1.4313,-1.4515,-1.4515,-1.4515,-1.4515,-0.8024,-0.8586,-0.908,-0.8024,-0.8409,-0.9079,-0.9385,-1.018,-1.1363,-1.3048,-1.3413,-1.3555,-1.3751,0.0,0.0,0.0,0.0,0.0,0.0,0.0,0.0,0.0,0.0,0.0,0.0,0.0,0.0,0.0,0.0,0.0,0.0,0.0,0.0,0.0,-0.8636,-0.8424,-0.8249,-0.8299,-0.8417,-0.8634,-0.8598,-0.8664,-0.8818,-0.8632,-0.8608,-0.868,-0.8207,-0.8123,-0.8273,-0.8009,-0.7901,-0.7901,-0.7901,-0.7901,-0.7901,-0.7901,-0.7901,-0.7901,-0.7901,-0.7901,-0.7901,-0.7901,-0.7901,-0.7901,-0.7901,-0.7901,-0.7979,-0.8345,-0.8369,-0.8441,-0.9107,-0.9185,-0.9167,-0.945,-0.9516,-0.9516,-0.9516,-0.9516,-0.9516,-0.9516,-0.9516,-0.9574,-0.9766,-0.9798,-0.9856,-1.0072,-1.0098,-1.0288,-1.0825,-1.1305,-1.1734,-1.2112,-1.2573,-1.3047,-1.348,-1.3761,-1.407,-1.4426,-1.4267,-1.3989,-1.3634,-1.3799,-1.3841,-1.368,-1.4114,-1.4439,-1.4584,-1.4529,-1.4653,-1.4919,-1.4643,-1.4662,-0.7435,-0.7951,-0.8339,-0.75,-0.7823,-0.8233,-0.784,0.0,0.0,0.0,-1.1639,-1.1676,-1.2007,0.0,0.0,0.0,0.0,0.0,0.0,0.0,0.0,0.0,0.0,0.0,0.0,0.0,0.0,0.0,0.0,0.0,0.0,0.0,0.0,0.0,-0.8473,-0.8328,-0.8328,-0.8207,-0.8285,-0.8595,-0.852,-0.8487,-0.8467,-0.8471,-0.8506,-0.8536,-0.8195,-0.8087,-0.8123,-0.7967,-0.7901,-0.7901,-0.7901,-0.7901,-0.7901,-0.7901,-0.7901,-0.7901,-0.7901,-0.7901,-0.7901,-0.7901,-0.7901,-0.7901,-0.7901,-0.7901,-0.7967,-0.8279,-0.8405,-0.8584,-0.9071,-0.9227,-0.9306,-0.9474,-0.9516,-0.9516,-0.9516,-0.9516,-0.9516,-0.9516,-0.9516,-0.9516,-0.9516,-0.9516,-0.9516,-0.9516,-0.9516,-0.9638,-1.0047,-1.0471,-1.0843,-1.125,-1.1655,-1.2089,-1.2551,-1.2856,-1.323,-1.3791,-1.367,-1.3656,-1.381,-1.4013,-1.4022,-1.3772,-1.4111,-1.4454,-1.4741,-1.4565,-1.4799,-1.5322,-1.4928,-1.5047,-0.6804,-0.7024,-0.7202,-0.736,-0.7381,0.0,-0.6442,-0.7977,-0.9651,-1.0017,0.0,-0.89,0.0,0.0,0.0,0.0,0.0,0.0,0.0,0.0,0.0,0.0,0.0,0.0,0.0,0.0,0.0,0.0,0.0,0.0,0.0,0.0,0.0,0.0,-0.8517,-0.8517,-0.8517,-0.8428,-0.8417,0.0,-0.8464,-0.837,-0.8182,-0.8503,-0.853,-0.8255,-0.8279,-0.8141,-0.7901,-0.7901,-0.7901,-0.7901,-0.7901,-0.7901,-0.7901,-0.7901,-0.7901,-0.7901,-0.7901,-0.7901,-0.7901,-0.7901,-0.7901,-0.7901,-0.7901,-0.7901,-0.7913,-0.7961,-0.8297,-0.8686,-0.8764,-0.9125,-0.9486,-0.951,-0.9516,-0.9516,-0.9516,-0.9516,-0.9516,-0.9516,-0.9516,-0.9516,-0.9516,-0.9516,-0.9516,-0.9516,-0.9516,-0.9516,-0.9516,-0.9516,-0.9734,-1.0326,-1.0453,-1.0755,-1.1392,-1.1478,-1.1888,-1.2765,-1.2634,-1.2978,-1.3941,-1.4169,-1.4267,-1.4267,-1.4297,-1.4357,-1.4446,-1.4485,-1.4882,-1.557,-1.5249,-1.5515,-0.6052,-0.6517,-0.6897,-0.5898,-0.5694,-0.5645,-0.5485,-0.5767,-0.6417,-0.7639,-0.8553,0.0,0.0,0.0,0.0,0.0,0.0,0.0,0.0,0.0,0.0,0.0,0.0,0.0,0.0,0.0,0.0,0.0,0.0,0.0,0.0,0.0,0.0,-0.8517,-0.8517,-0.8517,-0.8517,-0.8495,-0.8564,0.0,-0.8511,-0.8543,-0.8716,-0.8479,-0.8231,-0.7997,-0.8201,-0.8141,-0.7901,-0.7901,-0.7901,-0.7901,-0.7901,-0.7901,-0.7901,-0.7901,-0.7901,-0.7901,-0.7901,-0.7901,-0.7901,-0.7901,-0.7901,-0.7901,-0.7901,-0.7901,-0.7985,-0.8399,-0.8447,-0.8519,-0.9179,-0.9263,-0.9239,-0.9462,-0.9516,-0.9516,-0.9516,-0.9516,-0.9516,-0.9516,-0.9516,-0.9516,-0.9516,-0.9516,-0.9516,-0.9516,-0.9516,-0.9516,-0.9516,-0.9516,-0.9548,-0.9702,-1.0174,-1.0636,-1.093,-1.1423,-1.2081,-1.2917,-1.2917,-1.3169,-1.383,-1.389,-1.395,-1.407,-1.4207,-1.4237,-1.4109,-1.4357,-1.4538,-1.462,-1.493,-1.5359,-0.5277,-0.553,-0.5815,-0.5205,0.0,-0.5166,-0.5135,-0.5041,-0.5203,-0.5864,0.0,0.0,0.0,0.0,0.0,0.0,0.0,0.0,0.0,0.0,0.0,0.0,0.0,0.0,0.0,0.0,0.0,0.0,0.0,0.0,0.0,-0.8413,-0.8517,-0.8517,-0.8404,-0.8398,-0.8517,-0.8398,-0.8462,-0.8641,-0.8611,-0.8703,-0.8874,-0.8473,-0.8213,-0.8087,-0.8099,-0.8027,-0.7901,-0.7901,-0.7901,-0.7901,-0.7901,-0.7901,-0.7901,-0.7901,-0.7901,-0.7901,-0.7901,-0.7901,-0.7901,-0.7901,-0.7901,-0.7901,-0.7901,-0.7901,-0.7955,-0.8231,-0.8415,-0.8602,-0.9023,-0.9209,-0.9336,-0.948,-0.9516,-0.9516,-0.9516,-0.9516,-0.9516,-0.9516,-0.9516,-0.9516,-0.9516,-0.9516,-0.9516,-0.9516,-0.9516,-0.9516,-0.9516,-0.9516,-0.9516,-0.9516,-0.983,-1.0072,-1.0161,-1.0503,-1.1,-1.1748,-1.181,-1.2212,-1.3139,-1.3268,-1.3511,-1.389,-1.4019,-1.4049,-1.401,-1.4169,-1.4327,-1.4455,-1.5038,-1.5501,-0.462,-0.4696,-0.4773,-0.4951,-0.5098,0.0,-0.5006,-0.4949,-0.4885,0.0,0.0,0.0,0.0,0.0,0.0,0.0,0.0,0.0,0.0,0.0,0.0,0.0,0.0,0.0,0.0,0.0,0.0,0.0,0.0,0.0,-0.7265,-0.7775,-0.8068,-0.8068,-0.7908,-0.7902,-0.8063,-0.7902,-0.7902,-0.8068,-0.8388,-0.8626,-0.8785,-0.8426,-0.8291,-0.8279,-0.8015,-0.7901,-0.7901,-0.7901,-0.7901,-0.7901,-0.7901,-0.7925,-0.7967,-0.7967,-0.7967,-0.7967,-0.7967,-0.7937,-0.7901,-0.7901,-0.7901,-0.7901,-0.7901,-0.7931,-0.7979,-0.8021,-0.8375,-0.8782,-0.8836,-0.9179,-0.9516,-0.9516,-0.9516,-0.9516,-0.9516,-0.9516,-0.9516,-0.9516,-0.9516,-0.9516,-0.9516,-0.9516,-0.9516,-0.9516,-0.9516,-0.9516,-0.9516,-0.9516,-0.9516,-0.9516,-0.9516,-0.9516,-0.9516,-0.9548,-0.983,-1.0453,-1.0516,-1.116,-1.2538,-1.2705,-1.3111,-1.3835,-1.3834,-1.389,-1.398,-1.398,-1.4169,-1.4489,-1.511,-1.5613,-0.4419,-0.4592,-0.4811,-0.5045,-0.5049,-0.5002,0.0,0.0,-0.4736,0.0,0.0,0.0,0.0,0.0,0.0,0.0,0.0,0.0,0.0,0.0,0.0,0.0,0.0,0.0,0.0,0.0,0.0,0.0,0.0,0.0,-0.6197,-0.628,-0.6341,-0.6341,-0.6315,-0.6315,-0.6341,-0.6315,-0.6315,-0.6341,-0.7064,-0.7751,-0.8385,-0.8206,-0.8179,-0.8279,-0.8015,-0.7901,-0.7901,-0.7901,-0.7901,-0.7901,-0.7901,-0.8039,-0.8237,-0.8237,-0.8237,-0.8237,-0.8237,-0.8087,-0.7901,-0.7901,-0.7901,-0.7901,-0.7901,-0.8057,-0.8285,-0.8536,-0.8818,-0.9101,-0.9342,-0.9462,-0.9516,-0.9516,-0.9516,-0.9516,-0.9516,-0.9516,-0.9516,-0.9516,-0.9516,-0.9516,-0.9516,-0.9516,-0.9516,-0.9516,-0.9516,-0.9516,-0.9516,-0.9516,-0.9516,-0.9516,-0.9516,-0.9516,-0.9516,-0.9644,-0.9958,-1.0485,-1.0649,-1.1449,-1.2965,-1.271,-1.3003,-1.4047,-1.4005,-1.392,-1.383,-1.395,-1.3976,-1.3917,-1.4644,-1.5205,-0.4483,-0.4669,-0.4802,-0.4934,-0.4963,-0.4959,-0.4906,0.0,0.0,0.0,0.0,0.0,0.0,0.0,0.0,0.0,0.0,0.0,0.0,0.0,0.0,0.0,0.0,0.0,0.0,0.0,0.0,0.0,0.0,-0.5591,-0.5457,-0.5781,-0.5992,-0.5992,-0.5889,-0.5885,-0.5992,-0.5889,-0.5889,-0.5992,-0.6469,-0.6858,-0.7186,-0.7508,-0.7886,-0.8279,-0.8015,-0.7838,-0.7737,-0.7868,-0.7754,-0.7532,-0.7808,-0.7904,-0.7931,-0.8205,-0.8291,-0.8291,-0.8291,-0.8213,-0.8093,-0.7949,-0.7901,-0.7901,-0.7901,-0.8081,-0.8315,-0.8457,-0.8782,-0.9125,-0.9245,-0.9396,-0.9516,-0.9516,-0.9516,-0.9516,-0.9516,-0.9516,-0.9516,-0.9516,-0.9516,-0.9516,-0.9516,-0.9516,-0.9516,-0.9516,-0.9516,-0.9516,-0.9516,-0.9516,-0.9516,-0.9516,-0.9516,-0.9516,-0.9516,-0.958,-0.9766,-1.0085,-1.0085,-1.0576,-1.175,-1.201,-1.246,-1.3194,-1.3749,-1.3926,-1.364,-1.3926,-1.3917,-1.3649,-1.4505,-1.5044,-0.4167,-0.4068,-0.3975,-0.3995,-0.4058,-0.4094,0.0,0.0,0.0,0.0,0.0,0.0,0.0,0.0,0.0,0.0,0.0,0.0,0.0,0.0,0.0,0.0,0.0,0.0,0.0,0.0,0.0,0.0,0.0,-0.4807,-0.4654,-0.5118,-0.5384,-0.5384,-0.5258,-0.5226,-0.5384,-0.5254,-0.5312,-0.562,-0.5763,-0.5935,-0.6103,-0.6615,-0.7165,-0.7722,-0.78,-0.7774,-0.7679,-0.7693,-0.7593,-0.7418,-0.7693,-0.7852,-0.7921,-0.8271,-0.8457,-0.8506,-0.8411,-0.8345,-0.8249,-0.7985,-0.7901,-0.7913,-0.7979,-0.8183,-0.8405,-0.8493,-0.8848,-0.9203,-0.9203,-0.936,-0.9516,-0.9516,-0.9516,-0.9516,-0.9516,-0.9516,-0.9516,-0.9516,-0.9516,-0.9516,-0.9516,-0.9516,-0.9516,-0.9516,-0.9516,-0.9516,-0.9516,-0.9516,-0.9516,-0.9516,-0.9516,-0.9516,-0.9516,-0.9548,-0.9612,-0.9708,-0.9644,-0.9957,-1.0846,-1.1308,-1.1836,-1.2399,-1.3417,-1.3802,-1.3511,-1.3802,-1.3793,-1.3528,-1.4449,-1.5009,-0.3083,-0.2397,-0.1725,-0.1807,-0.1842,-0.1809,0.0,0.0,0.0,0.0,0.0,0.0,0.0,0.0,0.0,0.0,0.0,0.0,0.0,0.0,0.0,0.0,0.0,0.0,0.0,0.0,0.0,0.0,0.0,-0.3873,-0.3671,-0.3713,-0.3713,-0.3713,-0.3708,-0.3705,-0.3713,-0.3705,-0.4011,-0.4567,-0.4598,-0.4919,-0.5544,-0.5586,-0.5773,-0.6177,-0.7175,-0.7707,-0.7841,-0.7424,-0.7478,-0.7835,-0.7685,-0.8048,-0.865,-0.868,-0.8842,-0.9023,-0.877,-0.8524,-0.8249,-0.7985,-0.7901,-0.7949,-0.8195,-0.8481,-0.874,-0.8987,-0.9269,-0.9492,-0.9492,-0.9504,-0.9516,-0.9516,-0.9516,-0.9516,-0.9516,-0.9516,-0.9516,-0.9516,-0.9516,-0.9516,-0.9516,-0.9516,-0.9516,-0.9516,-0.9516,-0.9516,-0.9516,-0.9516,-0.9516,-0.9516,-0.9516,-0.9516,-0.9516,-0.9676,-0.9708,-0.9516,-0.9676,-1.0168,-1.104,-1.0988,-1.1309,-1.2114,-1.3067,-1.3526,-1.3511,-1.3528,-1.3528,-1.3528,-1.4449,-1.5009,-0.2251,-0.1857,-0.1595,-0.1675,-0.1692,-0.1649,-0.1686,0.0,0.0,0.0,0.0,0.0,0.0,0.0,0.0,0.0,0.0,0.0,0.0,0.0,0.0,0.0,0.0,0.0,0.0,0.0,0.0,0.0,0.0,0.0,-0.3624,-0.3613,-0.3613,-0.3613,-0.3613,-0.3613,-0.3613,-0.3613,-0.3694,-0.3913,-0.3913,-0.4049,-0.4294,-0.4783,-0.5054,-0.5234,-0.64,-0.6984,-0.7145,-0.7516,-0.7575,-0.7478,-0.7894,-0.8102,-0.8243,-0.877,-0.9017,-0.9083,-0.8987,-0.8782,-0.8524,-0.8237,-0.8153,-0.8165,-0.8261,-0.8614,-0.8975,-0.9071,-0.93,-0.9516,-0.9516,-0.9516,-0.9516,-0.9516,-0.9516,-0.9516,-0.9516,-0.9516,-0.9516,-0.9516,-0.9516,-0.9516,-0.9516,-0.9516,-0.9516,-0.9516,-0.9516,-0.9516,-0.9516,-0.9516,-0.9516,-0.9516,-0.9516,-0.9516,-0.9516,-0.958,-0.9644,-0.9676,-0.9644,-0.9809,-1.0258,-1.0791,-1.1179,-1.1336,-1.2196,-1.2749,-1.2856,-1.3535,-1.3887,-1.3896,-1.4571,-1.514,-0.123,-0.0827,-0.0556,0.0,-0.0616,-0.0618,-0.0613,0.0,0.0,0.0,0.0,0.0,0.0,0.0,0.0,0.0,0.0,0.0,0.0,0.0,0.0,0.0,0.0,0.0,0.0,0.0,0.0,0.0,0.0,0.0,-0.3624,-0.3613,-0.3613,-0.3613,-0.3613,-0.3613,-0.3613,-0.3613,-0.3613,-0.3613,-0.3613,-0.3613,-0.3613,-0.4101,-0.4346,-0.4474,-0.5712,-0.6451,-0.6822,-0.7425,-0.7581,-0.7466,-0.7906,-0.8109,-0.8225,-0.8776,-0.9083,-0.9221,-0.9131,-0.8981,-0.8782,-0.8405,-0.8345,-0.8445,-0.8445,-0.8752,-0.9119,-0.9209,-0.9372,-0.9516,-0.9516,-0.9516,-0.9516,-0.9516,-0.9516,-0.9516,-0.9516,-0.9516,-0.9516,-0.9516,-0.9516,-0.9516,-0.9516,-0.9516,-0.9516,-0.9516,-0.9516,-0.9516,-0.9516,-0.9516,-0.9516,-0.9516,-0.9516,-0.9516,-0.9516,-0.9516,-0.9548,-0.9676,-0.9665,-0.9675,-0.9843,-1.0676,-1.0993,-1.0701,-1.1659,-1.2116,-1.2101,-1.309,-1.3701,-1.4015,-1.4603,-1.5314,0.0,0.0,0.0,0.0,0.0,0.0,0.1486,0.0,0.0,0.0,0.0,0.0,0.0,0.0,0.0,0.0,0.0,0.0,0.0,0.0,0.0,0.0,0.0,0.0,0.0,0.0,0.0,0.0,0.0,-0.3803,-0.363,-0.3613,-0.3613,-0.3613,-0.3613,-0.3613,-0.3613,-0.3613,-0.3613,-0.3613,-0.3613,-0.3613,-0.3613,-0.3613,-0.3663,-0.3879,-0.5195,-0.6182,-0.6876,-0.7108,-0.7484,-0.7877,-0.7691,-0.8066,-0.8698,-0.8716,-0.9047,-0.9456,-0.9197,-0.9095,-0.8993,-0.8499,-0.8506,-0.8698,-0.8704,-0.8884,-0.9143,-0.9426,-0.9504,-0.9504,-0.951,-0.9516,-0.9516,-0.9516,-0.9516,-0.9516,-0.9516,-0.9516,-0.9484,-0.9528,-0.949,-0.9516,-0.9528,-0.9496,-0.9496,-0.9496,-0.9534,-0.954,-0.954,-0.9534,-0.9496,-0.9496,-0.9516,-0.9516,-0.9516,-0.9516,-0.9516,-0.9528,-0.9763,-0.9907,-0.9913,-1.0623,-1.0782,-1.031,-1.1387,-1.1732,-1.132,-1.2116,-1.2928,-1.3809,-1.4557,-1.553,0.0807,0.0,0.0,0.0,0.0,0.0,0.0,0.0,0.0,0.0,0.0,0.0,0.0,0.0,0.0,0.0,0.0,0.0,0.0,0.0,0.0,0.0,0.0,0.0,0.0,0.0,0.0,0.0,-0.3711,-0.3753,-0.3745,-0.3657,-0.3613,-0.3613,-0.3613,-0.3613,-0.3613,-0.3613,-0.3613,-0.3613,-0.3613,-0.3613,-0.3613,-0.3613,-0.361,-0.3719,-0.4622,-0.5167,-0.5569,-0.7098,-0.7796,-0.7913,-0.8054,-0.8235,-0.8469,-0.8848,-0.8963,-0.8975,-0.9287,-0.9023,-0.8572,-0.8806,-0.8674,-0.8463,-0.865,-0.8758,-0.8872,-0.9137,-0.9215,-0.9257,-0.9462,-0.9516,-0.9516,-0.9516,-0.9516,-0.9516,-0.9516,-0.9516,-0.957,-0.9763,-0.9642,-0.9576,-0.9763,-0.9799,-0.9799,-0.9799,-0.9955,-1.0081,-1.0081,-0.9913,-0.9799,-0.9799,-0.963,-0.9516,-0.9516,-0.9516,-0.9594,-0.9787,-0.9865,-0.9991,-1.0178,-1.0579,-1.0725,-1.0575,-1.0701,-1.1045,-1.1583,-1.2087,-1.2709,-1.3395,-1.4728,-1.5695,0.1239,0.1416,0.0,0.0,0.0,0.0,0.136,0.1355,0.0,0.0,0.0,0.0,0.0,0.0,0.0,0.0,0.0,0.0,0.0,0.0,0.0,0.0,0.0,0.0,0.0,0.0,0.0,-0.365,-0.37,-0.3753,-0.3791,-0.3673,-0.3613,-0.3613,-0.3613,-0.3613,-0.3613,-0.3613,-0.3613,-0.3613,-0.3613,-0.3613,-0.3613,-0.3613,-0.3613,-0.3638,-0.4374,-0.4756,-0.4948,-0.6475,-0.7295,-0.7613,-0.7987,-0.8195,-0.8339,-0.8782,-0.8909,-0.8933,-0.9366,-0.9209,-0.883,-0.8909,-0.8884,-0.8777,-0.8728,-0.8866,-0.9077,-0.9227,-0.9269,-0.9312,-0.9474,-0.9516,-0.9516,-0.9516,-0.9516,-0.9516,-0.9516,-0.9516,-0.9558,-0.9715,-0.9618,-0.9564,-0.9715,-0.9745,-0.9781,-0.9889,-1.0033,-1.013,-1.013,-1.0094,-1.0027,-0.9919,-0.9865,-0.9841,-0.9841,-0.9739,-0.9787,-1.0051,-1.0069,-1.0184,-1.0448,-1.0815,-1.0955,-1.0882,-1.0881,-1.1106,-1.153,-1.1614,-1.2195,-1.329,-1.4722,-1.5636,0.138,0.1382,0.1393,0.0,0.0,0.0,0.1327,0.1315,0.1293,0.0,0.0,0.0,0.0,0.0,0.0,0.0,0.0,0.0,0.0,0.0,0.0,0.0,0.0,0.0,0.0,-0.3539,-0.3606,-0.3665,-0.3758,-0.3789,-0.3794,-0.3687,-0.3624,-0.3613,-0.3613,-0.3613,-0.3613,-0.3613,-0.3613,-0.3613,-0.3613,-0.3613,-0.3613,-0.3613,-0.3613,-0.3638,-0.4291,-0.4591,-0.4673,-0.5515,-0.6312,-0.7025,-0.7601,-0.7958,-0.8195,-0.8573,-0.8836,-0.9059,-0.9402,-0.9474,-0.9322,-0.8842,-0.896,-0.9216,-0.8675,-0.8881,-0.9336,-0.943,-0.9492,-0.9516,-0.9516,-0.9516,-0.9516,-0.9516,-0.9516,-0.9516,-0.9516,-0.9516,-0.9516,-0.9516,-0.9516,-0.9496,-0.9552,-0.9558,-0.9648,-0.9907,-0.9973,-0.9991,-0.9991,-1.0166,-1.0196,-0.9937,-1.0088,-1.0208,-1.0208,-0.9997,-0.9985,-1.0274,-1.0292,-1.0424,-1.0719,-1.1132,-1.1298,-1.1111,-1.1484,-1.1517,-1.1249,-1.0996,-1.1707,-1.3264,-1.4476,-1.5307,0.0,0.0,0.0,0.0,0.0,0.0,0.1377,0.1374,0.1369,0.0,0.0,0.0,0.0,0.0,0.0,0.0,0.0,0.0,0.0,0.0,0.0,0.0,0.0,0.0,0.0,-0.309,-0.3509,-0.3542,-0.3693,-0.3789,-0.3794,-0.3761,-0.3706,-0.3616,-0.3613,-0.3613,-0.3613,-0.3613,-0.3613,-0.3613,-0.3613,-0.3613,-0.3613,-0.3613,-0.3613,-0.3613,-0.3749,-0.3882,-0.4015,-0.467,-0.5464,-0.6281,-0.6972,-0.7274,-0.7449,-0.8357,-0.8608,-0.8572,-0.9244,-0.9233,-0.8824,-0.8609,-0.8317,-0.7982,-0.7557,-0.77,-0.8215,-0.8965,-0.9342,-0.9516,-0.9516,-0.9516,-0.9516,-0.9516,-0.9516,-0.9516,-0.9516,-0.9516,-0.9516,-0.9516,-0.9516,-0.9582,-0.9793,-0.9829,-0.9919,-1.0178,-1.04,-1.0533,-1.0533,-1.0394,-1.0196,-0.9937,-0.9763,-0.9666,-0.9666,-0.9618,-0.9793,-1.0268,-1.0292,-1.0509,-1.1015,-1.1118,-1.1149,-1.1111,-1.1335,-1.1313,-1.0997,-1.1305,-1.1936,-1.2842,-1.3499,-1.4546,0.0,0.0,0.0,0.1343,0.0,0.0,0.0,0.1338,0.134,0.1353,0.0,0.0,0.0,0.0,0.0,0.0,0.0,0.0,0.0,0.0,0.0,0.0,0.0,0.0,0.0,-0.2643,-0.3063,-0.361,-0.3758,-0.3815,-0.3854,-0.3816,-0.3731,-0.3616,-0.3613,-0.3613,-0.3613,-0.3613,-0.3613,-0.3613,-0.3613,-0.3613,-0.3613,-0.3613,-0.3613,-0.3613,-0.3613,-0.3638,-0.3716,-0.4098,-0.4508,-0.5027,-0.6118,-0.6588,-0.678,-0.7901,-0.7973,-0.7752,-0.9062,-0.9109,-0.862,-0.8746,-0.8487,-0.8047,-0.7711,-0.783,-0.8192,-0.8657,-0.9142,-0.9516,-0.9516,-0.9516,-0.9516,-0.9516,-0.9516,-0.9516,-0.9516,-0.9516,-0.9516,-0.9516,-0.9516,-0.9558,-0.969,-0.9709,-0.9799,-1.0063,-1.0208,-1.0346,-1.0472,-1.0491,-1.0388,-1.0124,-1.01,-1.0045,-0.9913,-0.9787,-0.9877,-1.0268,-1.0292,-1.0472,-1.0863,-1.1045,-1.1149,-1.126,-1.1316,-1.1327,-1.1265,-1.1585,-1.1935,-1.2318,-1.3129,-1.4106,0.0,0.0,0.0,0.0,0.0,0.135,0.0,0.0,0.0,0.1333,0.0,0.0,0.0,0.0,0.0,0.0,0.0,0.0,0.0,0.0,0.0,0.0,0.0,0.0,0.0,-0.198,-0.2473,-0.3736,-0.3659,-0.369,-0.3915,-0.3876,-0.3788,-0.3649,-0.3643,-0.3635,-0.3613,-0.3613,-0.3613,-0.3613,-0.3613,-0.3613,-0.3613,-0.3613,-0.3613,-0.3613,-0.3613,-0.3613,-0.3613,-0.3716,-0.3769,-0.3932,-0.5296,-0.59,-0.6114,-0.7236,-0.7387,-0.7215,-0.8757,-0.9009,-0.872,-0.8927,-0.8682,-0.8259,-0.8043,-0.8117,-0.8361,-0.8619,-0.8985,-0.935,-0.9452,-0.9516,-0.9516,-0.9516,-0.9516,-0.9516,-0.9516,-0.9516,-0.9516,-0.9516,-0.9516,-0.9516,-0.9516,-0.9516,-0.9606,-0.9865,-0.9907,-0.9979,-1.0196,-1.0406,-1.0436,-1.0172,-1.0334,-1.037,-1.016,-0.9949,-0.9943,-1.0202,-1.0268,-1.0412,-1.0677,-1.0972,-1.1186,-1.1335,-1.1375,-1.1448,-1.1556,-1.1843,-1.196,-1.1913,-1.2847,-1.3745,0.0,0.0,0.0,0.0,0.129,0.0,0.0,0.0,0.1383,0.1376,0.0,0.0,0.0,0.0,0.0,0.0,0.0,0.0,0.0,0.0,0.0,0.0,0.0,0.0,0.0,0.0,-0.184,-0.3739,-0.3189,-0.3122,-0.4017,-0.4083,-0.3971,-0.3772,-0.3764,-0.3715,-0.3613,-0.3613,-0.3613,-0.3613,-0.3613,-0.3613,-0.3613,-0.3613,-0.3613,-0.3613,-0.3613,-0.3613,-0.3613,-0.361,-0.3691,-0.3907,-0.4835,-0.5218,-0.5348,-0.6374,-0.7191,-0.7847,-0.8296,-0.886,-0.9312,-0.8752,-0.8081,-0.7512,-0.7488,-0.7497,-0.7777,-0.9022,-0.9017,-0.8753,-0.935,-0.9516,-0.9516,-0.9516,-0.9516,-0.9516,-0.9516,-0.9516,-0.9516,-0.9516,-0.9516,-0.9516,-0.9516,-0.9516,-0.9606,-0.9865,-0.9907,-0.9913,-0.9943,-0.9979,-0.9895,-0.963,-0.963,-0.9636,-0.9606,-0.9576,-0.9672,-0.9937,-1.0166,-1.0412,-1.0677,-1.0972,-1.1111,-1.1149,-1.149,-1.1588,-1.1434,-1.1994,-1.2124,-1.1913,-1.2274,-1.32,0.0,0.0,0.0,0.0,0.0,0.0,0.0,0.0,0.1344,0.0,0.0,0.0,0.0,0.0,0.0,0.0,0.0,0.0,0.0,0.0,0.0,0.0,0.0,0.0,0.0,0.0,0.0,0.0,0.0,-0.2982,-0.3875,-0.4051,-0.4037,-0.3863,-0.3819,-0.3761,-0.3712,-0.3643,-0.3613,-0.3613,-0.3613,-0.3613,-0.3613,-0.3613,-0.3613,-0.3613,-0.3613,-0.3613,-0.3613,-0.3613,-0.3638,-0.3747,-0.4267,-0.4512,-0.4754,-0.6097,-0.6677,-0.6916,-0.7865,-0.8228,-0.8172,-0.7512,-0.7349,-0.7256,-0.6474,-0.6502,-0.6957,-0.7544,-0.8096,-0.8554,-0.885,-0.9215,-0.9516,-0.9516,-0.9516,-0.9516,-0.9516,-0.9516,-0.9516,-0.9516,-0.9516,-0.9516,-0.9516,-0.9516,-0.9552,-0.966,-0.9678,-0.9733,-0.9883,-0.9907,-0.9865,-0.9751,-0.9745,-0.9678,-0.9528,-0.9516,-0.9558,-0.9672,-1.0069,-1.0478,-1.0894,-1.1051,-1.1111,-1.1111,-1.1484,-1.1669,-1.1595,-1.2077,-1.2238,-1.2124,-1.2245,-1.2915,-0.1285,0.0,0.0,0.0,0.0,0.0,0.0,0.0,0.0,0.0,0.0,0.0,0.0,0.0,0.0,0.0,0.0,0.0,0.0,0.0,0.0,0.0,0.0,0.0,0.0,0.0,0.0,0.0,-0.2668,-0.2751,-0.3891,-0.407,-0.4081,-0.3957,-0.3865,-0.3816,-0.3812,-0.3668,-0.3613,-0.3613,-0.3613,-0.3613,-0.3613,-0.3613,-0.3613,-0.3613,-0.3613,-0.3613,-0.3613,-0.3613,-0.3613,-0.3638,-0.3885,-0.4052,-0.4286,-0.5562,-0.6022,-0.6164,-0.737,-0.7766,-0.7549,-0.6695,-0.6859,-0.719,-0.6013,-0.6013,-0.6429,-0.6629,-0.7284,-0.7999,-0.8388,-0.8856,-0.9285,-0.9452,-0.9516,-0.9516,-0.9516,-0.9516,-0.9516,-0.9516,-0.9516,-0.9516,-0.9516,-0.9516,-0.9516,-0.9516,-0.9516,-0.9582,-0.9775,-0.9799,-0.9799,-0.9799,-0.9799,-0.9721,-0.9534,-0.9516,-0.9576,-0.9721,-1.0081,-1.0527,-1.1087,-1.1111,-1.1111,-1.1111,-1.1446,-1.1632,-1.1632,-1.2003,-1.2231,-1.2231,-1.2268,-1.2739,0.0,0.0,0.0,-0.0209,0.0,0.0,0.0,0.0,0.1215,0.0,0.0,0.0,0.0,0.0,0.0,0.1301,0.0,0.0,0.0,0.0,0.0,0.0,0.0,0.0,0.0,0.0,0.0,-0.2539,-0.1923,-0.2279,-0.4182,-0.4295,-0.4238,-0.4083,-0.3962,-0.3871,-0.3812,-0.3668,-0.3613,-0.3613,-0.3613,-0.3613,-0.3613,-0.3613,-0.3613,-0.3613,-0.3613,-0.3613,-0.3613,-0.3613,-0.3613,-0.3638,-0.3885,-0.3996,-0.4049,-0.4439,-0.517,-0.6113,-0.6798,-0.766,-0.8226,-0.6854,-0.6859,-0.7256,-0.6564,-0.64,-0.6531,-0.7186,-0.6924,-0.6789,-0.8161,-0.8522,-0.8689,-0.935,-0.9516,-0.9516,-0.9516,-0.9516,-0.9516,-0.9516,-0.9516,-0.9516,-0.9516,-0.9516,-0.9516,-0.9516,-0.9516,-0.9516,-0.9496,-0.9528,-0.9528,-0.9528,-0.9528,-0.9496,-0.9516,-0.9516,-0.9733,-1.0238,-1.0286,-1.0527,-1.1087,-1.1111,-1.1111,-1.1111,-1.1298,-1.1409,-1.1409,-1.1818,-1.2003,-1.2003,-1.2224,-1.2739,0.0,0.0,-0.1379,-0.1188,0.0,0.0,0.0,0.0,0.0,0.0,0.0,0.0,0.0,0.0,0.1241,0.1224,0.1261,0.0,0.0,0.0,0.0,0.0,0.0,0.0,0.0,0.0,0.0,-0.2429,-0.232,-0.2748,0.0,-0.4233,-0.4281,-0.424,-0.4086,-0.3965,-0.3873,-0.3786,-0.3687,-0.3613,-0.3613,-0.3613,-0.3613,-0.3613,-0.3613,-0.3613,-0.3613,-0.3613,-0.3613,-0.3613,-0.3613,-0.3638,-0.3885,-0.4051,-0.4216,-0.4955,-0.5552,-0.6056,-0.645,-0.6842,-0.6953,-0.6046,-0.6207,-0.6597,-0.5947,-0.5752,-0.5785,-0.6017,-0.6239,-0.6494,-0.6985,-0.7804,-0.8554,-0.8786,-0.9183,-0.9564,-0.9739,-0.9636,-0.957,-0.9739,-0.963,-0.9516,-0.9516,-0.9516,-0.9516,-0.9516,-0.966,-0.9709,-0.954,-0.9666,-0.9709,-0.9534,-0.9672,-0.9775,-0.9775,-0.9931,-1.0178,-1.0533,-1.0551,-1.0749,-1.1099,-1.1111,-1.1111,-1.1111,-1.1446,-1.1595,-1.1595,-1.2003,-1.2187,-1.2187,-1.2268,-1.2445,-0.3587,-0.295,0.0,-0.2144,-0.1698,0.0,-0.1137,0.0,0.0,0.0,0.0,0.0,0.0,0.0,0.0,0.0734,0.0835,0.0984,0.0,0.1285,0.0,0.0,0.0,0.0,0.0,0.0,-0.0821,-0.25,-0.2391,-0.2825,0.0,0.0,-0.4344,-0.4303,-0.4181,-0.4027,-0.3905,-0.3843,-0.3725,-0.3613,-0.3613,-0.3613,-0.3613,-0.3613,-0.3613,-0.3613,-0.3613,-0.3613,-0.3613,-0.3613,-0.3613,-0.361,-0.383,-0.402,-0.4219,-0.4984,-0.5618,-0.6072,-0.6043,-0.6203,-0.6301,-0.562,-0.5686,-0.598,-0.5524,-0.5395,-0.5395,-0.5395,-0.5719,-0.6141,-0.6629,-0.7246,-0.7869,-0.8393,-0.8818,-0.9192,-0.9354,-0.9539,-0.9703,-0.9871,-0.9841,-0.9793,-0.9793,-0.9793,-0.9763,-0.9666,-0.9715,-0.9775,-0.9793,-0.9859,-0.9877,-0.9799,-0.9943,-1.0045,-1.0045,-1.0196,-1.0406,-1.0665,-1.0683,-1.084,-1.1099,-1.1111,-1.1111,-1.1111,-1.1409,-1.1632,-1.1706,-1.204,-1.2224,-1.2305,-1.2305,-1.2305]},{"header":{"parameterUnit":"m.s-1","parameterCategory":1,"la1":30.6,"la2":29.2853,"lo1":-89.7004,"lo2":-87.6739,"dy":0.0162,"dx":0.0183,"nx":112,"ny":82,"refTime":"2023-09-04T12:00:00:Z","depth":0,"parameterNumber":3,"parameterNumberName":"V-component_of_WINDS"},"data":[0.0,0.0,0.0,0.0,0.0,0.0,0.0,0.0,0.0,0.0,0.0,0.0,0.0,0.0,0.0,0.0,0.0,0.0,0.0,0.0,0.0,0.0,0.0,0.0,0.0,0.0,0.0,0.0,0.0,0.0,0.0,0.0,0.0,0.0,0.0,0.0,0.0,0.0,0.0,0.0,0.0,0.0,0.0,0.0,0.0,0.0,0.0,0.0,0.0,0.0,0.0,0.0,0.0,0.0,0.0,0.0,0.0,0.0,0.0,0.0,0.0,0.0,0.0,0.0,0.0,0.0,0.0,0.0,0.0,0.0,0.0,0.0,0.0,0.0,0.0,0.0,0.0,0.0,0.0,0.0,0.0,0.0,0.0,0.0,0.0,0.0,0.0,0.0,0.0,0.0,0.0,1.056,0.9756,0.8653,0.7212,0.6672,0.6133,0.5508,0.0,0.0,0.0,0.0,0.0,0.0,0.0,0.0,0.0,0.0,0.0,0.0,0.0,0.0,0.0,0.0,0.0,0.0,0.0,0.0,0.0,0.0,0.0,0.0,0.0,0.0,0.0,0.0,0.0,0.0,0.0,0.0,0.0,0.0,0.0,0.0,0.0,0.0,0.0,0.0,0.0,0.0,0.0,0.0,0.0,0.0,0.0,0.0,0.0,0.0,0.0,0.0,0.0,0.0,0.0,0.0,0.0,0.0,0.0,0.0,0.0,0.0,0.0,0.0,0.0,0.0,0.0,0.0,0.0,0.0,0.0,0.0,0.0,0.0,0.0,0.0,0.0,0.0,0.0,0.0,0.0,0.0,0.0,0.0,0.0,0.0,0.0,0.0,0.0,0.0,0.0,0.0,0.0,0.0,0.0,0.0,0.0,0.0,0.0,0.0,0.0,0.0,0.0,0.0,1.0381,0.9229,0.9026,0.8181,0.627,0.6497,0.6345,0.5457,0.0,0.0,0.0,0.0,0.0,0.0,0.0,0.0,0.0,0.0,0.0,0.0,0.0,0.0,0.0,0.0,0.0,0.0,0.0,0.0,0.0,0.0,0.0,0.0,0.0,0.0,0.0,0.0,0.0,0.0,0.0,0.0,0.0,0.0,0.0,0.0,0.0,0.0,0.0,0.0,0.0,0.0,0.0,0.0,0.0,0.0,0.0,0.0,0.0,0.0,0.0,0.0,0.0,0.0,0.0,0.0,0.0,0.0,0.0,0.0,0.0,0.0,0.0,0.0,0.0,0.0,0.0,0.0,0.0,0.0,0.0,0.0,0.0,0.0,0.0,0.0,0.0,0.0,0.0,0.0,0.0,0.0,0.0,0.0,0.0,0.0,0.0,0.0,0.0,0.0,0.0,0.0,0.0,0.0,0.0,0.0,0.0,0.0,0.0,0.0,0.0,0.0,0.0,1.0539,1.0334,1.0172,0.9095,0.8046,0.7122,0.6572,0.6011,0.5333,0.5159,0.0,0.0,0.0,0.0,0.0,0.0,0.0,0.0,0.0,0.0,0.0,0.0,0.0,0.0,0.0,0.0,0.0,0.0,0.0,0.0,0.0,0.0,0.0,0.0,0.0,0.0,0.0,0.0,0.0,0.0,0.0,0.0,0.0,0.0,0.0,0.0,0.0,0.0,0.0,0.0,0.0,0.0,0.0,0.0,0.0,0.0,0.0,0.0,0.0,0.0,0.0,0.0,0.0,0.0,0.0,0.0,0.0,0.0,0.0,0.0,0.0,0.0,0.0,0.0,0.0,0.0,0.0,0.0,0.0,0.0,0.0,0.0,0.0,0.0,0.0,0.0,0.0,0.0,0.0,0.0,0.0,0.0,0.0,0.0,0.0,0.0,0.0,0.0,0.0,0.0,0.0,0.0,0.0,0.0,0.0,0.0,0.0,0.0,0.0,0.0,0.0,0.0,1.092,1.0525,1.0995,0.9584,0.8429,0.7979,0.7091,0.6234,0.5454,0.5271,0.0,0.0,0.0,0.0,0.0,0.0,0.0,0.0,0.0,0.0,0.0,0.0,0.0,0.0,0.0,0.0,0.0,0.0,0.0,0.0,0.0,0.0,0.0,0.0,0.0,0.0,0.0,0.0,0.0,0.0,0.0,0.0,0.0,0.0,0.0,0.0,0.0,0.0,0.0,0.0,0.0,0.0,0.0,0.0,0.0,0.0,0.0,0.0,0.0,0.0,0.0,0.0,0.0,0.0,0.0,0.0,0.0,0.0,0.0,0.0,0.0,0.0,0.0,0.0,0.0,0.0,0.0,0.0,0.0,0.0,0.0,0.0,0.0,0.0,0.0,0.0,0.0,0.0,0.0,0.0,0.0,0.0,0.0,0.0,0.0,0.0,0.0,0.0,0.0,0.0,0.0,0.0,0.0,0.0,0.0,0.0,0.0,0.0,0.0,0.0,0.0,0.0,1.112,1.0947,1.0441,1.0381,0.9689,0.7981,0.8194,0.7711,0.6142,0.586,0.0,0.0,0.0,0.0,0.0,0.0,0.0,0.0,0.0,0.0,0.0,0.0,0.0,0.0,0.0,0.0,0.0,0.0,0.0,0.0,0.0,0.0,0.0,0.0,0.0,0.0,0.0,0.0,0.0,0.0,0.0,0.0,0.0,0.0,0.0,0.0,0.0,0.0,0.0,0.0,0.0,0.0,0.0,0.0,0.0,0.0,0.0,0.0,0.0,0.0,0.0,0.0,0.0,0.0,0.0,0.0,0.0,0.0,0.0,0.0,0.0,0.0,0.0,0.0,0.0,0.0,0.0,0.0,0.0,0.0,0.0,0.0,0.0,0.0,0.0,0.0,0.0,0.0,0.0,0.0,0.0,0.0,0.0,0.0,0.0,0.0,0.0,0.0,0.0,0.0,0.0,0.0,0.0,0.0,0.0,0.0,0.0,0.0,0.0,0.0,0.0,0.0,1.1699,1.1665,0.0,1.0539,0.9671,0.8969,0.8431,0.7659,0.6669,0.0,0.0,0.0,0.0,0.0,0.0,0.0,0.0,0.0,0.0,0.0,0.0,0.0,0.0,0.0,0.0,0.0,0.0,0.0,0.0,0.0,0.0,0.0,0.0,0.0,0.0,0.0,0.0,0.0,0.0,0.0,0.0,0.0,0.0,0.0,0.0,0.0,0.0,0.0,0.0,0.0,0.0,0.0,0.0,0.0,0.0,0.0,0.0,0.0,0.0,0.0,0.0,0.0,0.0,0.0,0.0,0.0,0.0,0.0,0.0,0.0,0.0,0.0,0.0,0.0,0.0,0.0,0.0,0.0,0.0,0.0,0.0,0.0,0.0,0.0,0.0,0.0,0.0,0.0,0.0,0.0,0.0,0.0,0.0,0.0,0.0,0.0,0.0,0.0,0.0,0.0,0.0,0.0,0.0,0.0,0.0,0.0,0.0,0.0,0.0,0.0,0.0,1.2161,1.2286,1.2286,0.0,1.1096,1.0221,0.9918,0.9136,0.8292,0.7355,0.0,0.0,0.0,0.0,0.0,0.0,0.0,0.0,0.0,0.0,0.0,0.0,0.0,0.0,0.0,0.0,0.0,0.0,0.0,0.0,0.0,0.0,0.0,0.0,0.0,0.0,0.0,0.0,0.0,0.0,0.0,0.0,0.0,0.0,0.0,0.0,0.0,0.0,0.0,0.0,0.0,0.0,0.0,0.0,0.0,0.0,0.0,0.0,0.0,0.0,0.0,0.0,0.0,0.0,0.0,0.0,0.0,0.0,0.0,0.0,0.0,0.0,0.0,0.0,0.0,0.0,0.0,0.0,0.0,0.0,0.0,0.0,0.0,0.0,0.0,0.0,0.0,0.0,0.0,0.0,0.0,0.0,0.0,0.0,0.0,0.0,0.0,0.0,0.0,0.0,0.0,0.0,0.0,0.0,0.0,0.0,0.0,0.0,0.0,0.0,0.0,0.0,1.2853,1.2864,1.2781,1.2628,1.2235,1.1598,1.0589,1.0557,0.9937,0.0,0.0,0.0,0.0,0.0,0.0,0.0,0.0,0.0,0.0,0.0,0.0,0.0,0.0,0.0,0.0,0.0,0.0,0.0,0.0,0.0,0.0,0.0,0.0,0.0,0.0,0.0,0.0,0.0,0.0,0.0,0.0,0.0,0.0,0.0,0.0,0.0,0.0,0.0,0.0,0.0,0.0,0.0,0.0,0.0,0.0,0.0,0.0,0.0,0.0,0.0,0.0,0.0,0.0,0.0,0.0,0.0,0.0,0.0,0.0,0.0,0.0,0.0,0.0,0.0,0.0,0.0,0.0,0.0,0.0,0.0,0.0,0.0,0.0,0.0,0.0,0.0,0.0,0.0,0.0,0.0,0.0,0.0,0.0,0.0,0.0,0.0,0.0,0.0,0.0,0.0,0.0,0.0,0.0,0.0,0.0,0.0,0.0,0.0,0.0,0.0,0.0,0.0,1.3447,1.3843,1.3882,1.3166,1.2657,1.2064,1.134,1.0999,1.0412,0.9444,0.0,0.0,0.0,0.0,0.0,0.0,0.0,0.0,0.0,0.0,0.0,0.0,0.0,0.0,0.0,0.0,0.0,0.0,0.0,0.0,0.0,0.0,0.0,0.0,0.0,0.0,0.0,0.0,0.0,0.0,0.0,0.0,0.0,0.0,0.0,0.0,0.0,0.0,0.0,0.0,0.0,0.0,0.0,0.0,0.0,0.0,0.0,0.0,0.0,0.0,0.0,0.0,0.0,0.0,0.0,0.0,0.0,0.0,0.0,0.0,0.0,0.0,0.0,0.0,0.0,0.0,0.0,0.0,0.0,0.0,0.0,0.0,0.0,0.0,0.0,0.0,0.0,0.0,0.0,0.0,0.0,0.0,0.0,0.0,0.0,0.0,0.0,0.0,0.0,0.0,0.0,0.0,0.0,0.0,0.0,0.0,0.0,0.0,0.0,0.0,0.0,0.0,1.4271,1.4759,1.489,1.4163,1.368,1.3159,1.2563,1.2219,1.1722,1.096,0.0,0.0,0.0,0.0,0.0,0.0,0.0,0.0,0.0,0.0,0.0,0.0,0.0,0.0,0.0,0.0,0.0,0.0,0.0,0.0,0.0,0.0,0.0,0.0,0.0,0.0,0.0,0.0,0.0,0.0,0.0,0.0,0.0,0.0,0.0,0.0,0.0,0.0,0.0,0.0,0.0,0.0,0.0,0.0,0.0,0.0,0.0,0.0,0.0,0.0,0.0,0.0,0.0,0.0,0.0,0.0,0.0,0.0,0.0,0.0,0.0,0.0,0.0,0.0,0.0,0.0,0.0,0.0,0.0,0.0,0.0,0.0,0.0,0.0,0.0,0.0,0.0,0.0,0.0,0.0,0.0,0.0,0.0,0.0,0.0,0.0,0.0,0.0,0.0,0.0,0.0,0.0,0.0,0.0,0.0,0.0,0.0,0.0,0.0,0.0,0.0,0.0,1.5229,1.5685,1.584,1.5408,1.4977,1.4543,1.3966,1.3891,1.3477,1.2631,0.0,0.0,0.0,0.0,0.0,0.0,0.0,0.0,0.0,0.0,0.0,0.0,0.0,0.0,0.0,0.0,0.0,0.0,0.0,0.0,0.0,0.0,0.0,0.0,0.0,0.0,0.0,0.0,0.0,0.0,0.0,0.0,0.0,0.0,0.0,0.0,0.0,0.0,0.0,0.0,0.0,0.0,0.0,0.0,0.0,0.0,0.0,0.0,0.0,0.0,0.0,0.0,0.0,0.0,0.0,0.0,0.0,0.0,0.0,0.0,2.5909,0.0,0.0,0.0,0.0,0.0,0.0,0.0,0.0,0.0,0.0,0.0,0.0,0.0,0.0,0.0,0.0,0.0,0.0,0.0,0.0,0.0,0.0,0.0,0.0,0.0,0.0,0.0,0.0,0.0,0.0,0.0,0.0,0.0,0.0,0.0,0.0,0.0,0.0,0.0,0.0,0.0,1.6144,1.6458,1.6475,1.5904,1.5413,1.4834,1.4247,1.4193,1.3894,1.3233,1.2511,0.0,0.0,0.0,0.0,0.0,0.0,0.0,0.0,0.0,0.0,0.0,0.0,0.0,0.0,0.0,0.0,0.0,0.0,0.0,0.0,0.0,0.0,0.0,0.0,0.0,0.0,0.0,0.0,0.0,0.0,0.0,0.0,0.0,0.0,0.0,0.0,0.0,0.0,0.0,0.0,0.0,0.0,0.0,0.0,0.0,0.0,0.0,0.0,0.0,0.0,0.0,0.0,0.0,0.0,0.0,0.0,0.0,0.0,0.0,0.0,2.737,0.0,0.0,0.0,0.0,0.0,0.0,0.0,0.0,0.0,0.0,0.0,0.0,0.0,0.0,0.0,0.0,0.0,0.0,0.0,0.0,0.0,0.0,0.0,0.0,0.0,0.0,0.0,0.0,0.0,0.0,0.0,0.0,0.0,0.0,0.0,0.0,0.0,0.0,0.0,0.0,1.6402,1.6851,1.6961,1.6442,1.6131,1.5858,1.5537,1.5537,1.532,1.483,1.4122,0.0,0.0,0.0,0.0,0.0,0.0,0.0,0.0,0.0,0.0,0.0,0.0,0.0,0.0,0.0,0.0,0.0,0.0,0.0,0.0,0.0,0.0,0.0,0.0,0.0,0.0,0.0,0.0,0.0,0.0,0.0,0.0,0.0,0.0,0.0,0.0,0.0,0.0,0.0,0.0,0.0,0.0,0.0,0.0,0.0,0.0,0.0,0.0,0.0,0.0,0.0,0.0,0.0,3.2901,3.281,3.2147,3.2763,3.2426,3.1309,3.1332,3.0938,3.034,0.0,0.0,0.0,0.0,0.0,0.0,0.0,0.0,0.0,0.0,0.0,0.0,0.0,0.0,0.0,0.0,0.0,0.0,0.0,0.0,0.0,0.0,0.0,0.0,0.0,2.6513,2.6689,0.0,0.0,0.0,0.0,0.0,0.0,0.0,0.0,0.0,0.0,0.0,0.0,1.693,1.7324,1.7475,1.7081,1.6893,1.6788,1.6788,1.6834,1.671,1.6317,1.561,1.5045,0.0,0.0,0.0,0.0,0.0,0.0,0.0,0.0,0.0,0.0,0.0,0.0,0.0,0.0,0.0,0.0,0.0,0.0,0.0,0.0,0.0,0.0,0.0,0.0,0.0,0.0,0.0,0.0,0.0,0.0,0.0,0.0,3.3649,3.4426,0.0,0.0,0.0,0.0,0.0,0.0,0.0,0.0,0.0,0.0,0.0,0.0,0.0,3.313,3.3448,3.4445,3.4583,3.3901,3.4815,3.5382,3.5707,3.488,3.4664,3.4892,3.4892,0.0,3.0375,3.0181,0.0,0.0,0.0,0.0,0.0,0.0,0.0,0.0,0.0,0.0,0.0,0.0,0.0,0.0,0.0,0.0,0.0,0.0,0.0,0.0,0.0,0.0,2.8174,2.8102,2.8198,2.8206,0.0,2.6095,2.426,2.3329,0.0,0.0,0.0,0.0,0.0,0.0,0.0,0.0,1.9182,1.8586,1.8165,1.8119,1.7307,1.6788,1.6788,1.6826,1.6664,1.6317,1.5941,1.5598,1.5377,1.4387,0.0,0.0,0.0,0.0,0.0,0.0,0.0,0.0,0.0,0.0,0.0,0.0,0.0,0.0,0.0,0.0,0.0,0.0,0.0,0.0,0.0,0.0,0.0,0.0,0.0,0.0,0.0,0.0,0.0,3.3392,3.5303,3.4308,3.5,3.4532,0.0,0.0,0.0,0.0,0.0,0.0,0.0,0.0,0.0,3.5651,3.529,3.5393,3.6103,3.686,3.7067,3.6738,3.7121,3.7306,3.7232,3.6604,3.637,3.641,3.6284,3.5426,3.4063,3.264,3.1472,3.05,0.0,0.0,0.0,0.0,2.8752,2.9495,3.0287,3.0687,0.0,0.0,0.0,0.0,0.0,0.0,0.0,0.0,0.0,0.0,0.0,0.0,0.0,2.8438,2.851,2.851,2.851,2.766,2.6524,0.0,2.4549,2.3713,2.2583,0.0,0.0,0.0,0.0,0.0,1.9318,1.9173,1.8842,1.8094,1.7865,1.7515,1.6977,1.7369,1.7352,1.6688,1.6706,1.6723,1.6638,1.5782,1.5316,0.0,0.0,0.0,0.0,0.0,0.0,0.0,0.0,0.0,0.0,0.0,0.0,0.0,0.0,0.0,0.0,0.0,0.0,0.0,0.0,0.0,0.0,0.0,0.0,0.0,0.0,0.0,0.0,3.5689,3.6979,3.5343,3.7288,3.7268,0.0,0.0,0.0,0.0,0.0,0.0,3.5817,3.5405,3.593,3.7492,3.7513,3.7782,3.8385,3.8669,3.8714,3.8472,3.838,3.8162,3.7919,3.757,3.7354,3.73,3.6953,3.6922,3.6926,3.4757,3.3564,3.2975,3.1144,3.0714,3.1125,3.082,3.1228,3.2095,3.3025,3.3366,3.3297,3.2342,0.0,3.011,2.7715,0.0,0.0,0.0,0.0,2.7861,2.8264,2.8374,2.8435,2.8653,2.8726,2.8651,2.8361,2.8297,2.8023,0.0,2.6487,2.5631,2.4057,0.0,0.0,0.0,0.0,2.0671,1.9973,1.9912,1.9509,1.8368,1.8443,1.822,1.7376,1.79,1.8012,1.7358,1.7689,1.7915,1.7924,1.7343,1.7046,1.7011,0.0,0.0,0.0,0.0,0.0,0.0,0.0,0.0,0.0,0.0,0.0,0.0,0.0,0.0,0.0,0.0,0.0,0.0,0.0,0.0,0.0,0.0,0.0,0.0,0.0,0.0,0.0,0.0,0.0,4.0654,4.1561,0.0,0.0,0.0,0.0,3.6841,3.695,3.7459,3.8611,3.8653,3.9285,4.0608,4.0663,4.0377,3.9794,3.9327,3.8689,3.7932,3.7394,3.7407,3.7881,3.7343,3.7382,3.783,3.7292,3.7083,3.7019,3.5637,3.4936,3.4562,3.3273,3.292,3.3197,3.362,3.4096,3.4584,3.5173,3.4643,3.3913,3.4855,3.3692,3.1596,2.9845,2.9321,0.0,0.0,2.9755,3.0139,3.0152,3.0164,3.0037,2.9502,2.935,2.9061,2.799,2.773,2.7877,0.0,2.7939,2.7411,2.6798,0.0,2.506,2.4384,2.3303,2.2523,2.2355,2.1122,2.0082,1.9566,1.9008,1.8542,1.817,1.8178,1.8285,1.8412,1.8863,1.9079,1.9019,1.9059,1.9004,1.8944,1.7758,0.0,0.0,0.0,0.0,0.0,0.0,0.0,0.0,0.0,0.0,0.0,0.0,0.0,0.0,0.0,0.0,0.0,0.0,0.0,0.0,0.0,0.0,0.0,0.0,0.0,0.0,0.0,0.0,4.1139,4.2896,0.0,3.9808,3.9351,3.9169,3.8871,3.947,4.008,4.0618,4.028,4.0476,4.1309,4.096,4.0644,4.0409,4.0233,3.9991,3.971,3.9506,3.9288,3.9037,3.8801,3.8452,3.8031,3.8046,3.8171,3.8317,3.7665,3.6953,3.6208,3.5375,3.5352,3.5666,3.513,3.5213,3.5654,3.5442,3.5135,3.463,3.3926,3.27,3.1317,3.0317,3.0022,3.0022,3.0022,3.0163,3.0278,3.0093,3.0027,2.9945,2.9565,2.9161,2.872,2.8139,2.7688,2.7386,2.7388,2.7274,2.7006,2.649,2.5804,2.5063,2.4194,2.368,2.3053,2.2115,2.1838,2.1307,2.0242,2.0228,1.9989,1.9176,1.8902,1.8805,1.8813,1.8688,1.8748,1.9103,1.9073,1.8822,1.8282,1.8371,1.7739,0.0,0.0,0.0,0.0,0.0,0.0,0.0,0.0,0.0,0.0,0.0,0.0,0.0,0.0,0.0,0.0,0.0,0.0,0.0,0.0,0.0,0.0,0.0,0.0,0.0,0.0,4.3401,4.1525,4.3586,4.3874,4.0683,4.0976,4.1133,4.0628,4.1236,4.1666,4.1767,4.1398,4.1185,4.1198,4.0802,4.0407,4.0041,4.0041,4.0041,4.0041,4.0041,3.9817,3.941,3.9351,3.8961,3.8353,3.8559,3.8795,3.8963,3.8753,3.8274,3.7669,3.749,3.764,3.7886,3.7118,3.6959,3.6981,3.6115,3.5719,3.5297,3.378,3.2775,3.2086,3.1503,3.1318,3.1318,3.1318,3.1135,3.0934,3.0766,3.0548,3.0258,2.9646,2.9194,2.8698,2.7914,2.7419,2.6948,2.6482,2.6671,2.6639,2.5947,2.5526,2.5011,2.4157,2.3758,2.3271,2.2507,2.2396,2.1958,2.0848,2.0887,2.0657,1.9852,1.9742,1.9632,1.948,1.9684,1.9777,1.9794,1.9925,1.966,1.8965,1.9336,1.8772,1.7212,0.0,0.0,0.0,0.0,0.0,0.0,0.0,0.0,0.0,0.0,0.0,0.0,0.0,0.0,0.0,0.0,0.0,0.0,0.0,0.0,0.0,0.0,0.0,4.2177,4.2976,4.3321,4.2434,4.3862,4.3993,4.1523,4.2295,4.2745,4.2165,4.2107,4.2092,4.2092,4.2092,4.1567,4.048,4.041,3.992,3.8861,3.882,3.882,3.882,3.882,3.8806,3.8792,3.882,3.8806,3.8764,3.8792,3.8806,3.8792,3.8792,3.8806,3.8891,3.9357,3.9626,3.9662,3.9634,3.9255,3.8513,3.7279,3.6452,3.5765,3.4596,3.4203,3.4076,3.3466,3.3304,3.3304,3.3276,3.2806,3.2308,3.2252,3.1789,3.1031,2.9768,2.9459,2.8985,2.7259,2.6909,2.664,2.5774,2.6223,2.6441,2.5471,2.5308,2.5106,2.4589,2.3682,0.0,2.3718,2.2855,2.2024,2.1506,2.0971,2.0514,2.0199,2.0605,2.0766,2.0442,2.1811,2.219,2.1213,2.1617,2.1652,2.1233,2.0649,2.019,1.9831,0.0,0.0,0.0,0.0,0.0,0.0,0.0,0.0,0.0,0.0,0.0,0.0,0.0,0.0,0.0,0.0,0.0,0.0,0.0,0.0,0.0,0.0,4.4825,4.4252,4.5645,4.6786,4.6989,4.6648,4.6063,4.5355,4.39,4.2919,4.276,4.2339,4.2092,4.2092,4.2092,4.1746,4.0943,4.0929,4.053,3.9762,3.9747,3.9747,3.9747,3.9747,3.9517,3.9075,3.956,3.9061,3.7973,3.8742,3.8903,3.8692,3.8982,3.9359,3.9696,3.9212,3.9047,3.9003,3.858,3.7697,3.6648,3.5849,3.547,3.5241,3.4455,3.4203,3.4076,3.3466,3.3304,3.322,3.2701,3.2448,3.2033,3.091,3.0491,3.0145,2.9158,2.8541,2.7997,2.7343,2.6806,2.6329,2.588,2.6037,2.602,2.5351,2.5232,2.5046,2.4494,2.4199,0.0,2.3694,2.3113,2.2647,2.2499,2.2049,2.1722,2.1631,2.118,2.0857,2.0766,2.0836,2.0815,2.0649,2.0993,2.1304,2.1557,2.0468,2.0141,0.0,0.0,0.0,0.0,0.0,0.0,0.0,0.0,0.0,0.0,0.0,0.0,0.0,0.0,0.0,0.0,0.0,0.0,0.0,0.0,0.0,0.0,4.572,4.6988,4.6679,4.7594,4.8336,4.8422,4.7536,4.6664,4.6109,4.4671,4.3678,4.3412,4.3057,4.2625,4.2078,4.2063,4.1518,4.0336,4.0307,3.9987,3.9305,3.9305,3.9305,3.9305,3.9305,3.9117,3.8797,3.9146,3.8746,0.0,3.8509,3.8668,3.8462,3.8668,3.8841,0.0,0.0,0.0,0.0,0.0,3.6855,3.5679,3.5359,3.5024,3.4754,3.4384,3.427,3.4177,3.3585,3.3371,3.3243,3.2549,3.2179,3.1685,3.0549,3.002,2.9577,2.8523,2.7971,2.7596,2.7173,2.6771,2.6418,2.6123,0.0,0.0,2.5571,2.5341,2.5148,2.4823,2.4486,2.4189,2.4116,2.3582,2.3185,2.3185,2.2745,2.2459,2.2459,2.2181,0.0,0.0,0.0,2.1879,2.1759,2.194,0.0,0.0,0.0,2.1396,2.2127,0.0,0.0,0.0,2.3225,2.4218,0.0,0.0,0.0,0.0,0.0,0.0,0.0,0.0,0.0,0.0,0.0,0.0,0.0,0.0,0.0,0.0,4.8048,4.8982,4.8999,4.8889,4.8548,4.7886,4.7285,4.6376,4.513,4.4892,4.4525,4.3934,4.3812,4.3277,4.2162,0.0,0.0,0.0,0.0,3.8984,3.8315,3.824,3.8202,3.8202,3.8202,3.8202,3.8202,3.8202,3.8202,3.8202,3.8202,3.8159,3.8101,3.8101,3.7738,3.736,3.903,3.9349,3.8739,3.7535,3.6359,0.0,3.5319,0.0,0.0,3.4327,3.4312,3.4182,3.359,3.3402,3.3242,3.2498,3.1874,3.1235,3.0451,2.9827,2.9073,2.7884,2.7594,2.7434,2.691,2.6747,2.6611,2.6304,2.6179,2.6056,2.5818,2.5559,2.5373,2.537,2.4713,2.4392,2.4816,2.42,2.3725,2.3695,0.0,0.0,2.2891,2.3324,2.3161,2.2135,2.3365,2.3944,2.353,2.3568,2.3623,2.3679,2.3206,2.3226,2.3777,2.3838,2.3899,2.3983,2.4528,2.567,0.0,0.0,0.0,0.0,0.0,0.0,0.0,0.0,0.0,0.0,0.0,0.0,0.0,0.0,0.0,4.7129,4.8483,4.9448,4.9686,4.8772,4.8042,4.7887,4.7285,4.6592,4.5766,4.4716,4.4025,4.3903,4.3388,4.2986,4.275,4.2146,0.0,4.0603,4.0115,3.9542,3.8922,3.8427,3.8202,3.8202,0.0,0.0,3.8202,3.8202,3.8202,3.8202,3.8202,3.7926,3.7476,3.7476,3.7099,3.6533,3.6896,3.6968,3.678,3.606,3.561,3.5319,3.4777,3.4516,3.4327,3.3819,3.3678,3.3561,3.289,3.2701,0.0,3.1279,3.0888,3.0379,2.871,2.8159,2.7869,2.7142,2.6968,2.6924,2.6849,2.6384,2.5966,2.5915,2.547,2.5088,2.5091,2.5491,2.5772,2.5772,2.5647,2.5481,2.538,2.486,2.4394,2.4192,2.3739,2.3453,2.3453,2.3542,2.3112,2.2018,2.2214,2.2552,2.2943,2.3363,2.3599,2.3624,2.3522,2.3513,2.3639,2.4059,2.4514,2.4904,2.4679,2.4558,0.0,0.0,0.0,0.0,0.0,0.0,0.0,0.0,0.0,0.0,0.0,4.4718,0.0,0.0,4.788,4.907,4.9544,4.9711,4.9485,4.8568,4.7765,4.7378,4.6432,4.554,4.4846,4.4495,4.4294,4.4294,4.3969,4.3534,4.2938,4.219,4.1357,4.0436,4.0118,3.9808,3.9493,3.919,3.9045,3.9045,3.9045,3.9045,3.9045,3.8782,3.8649,3.8634,3.826,3.7806,3.7259,3.6606,3.6141,3.5807,3.5488,3.5546,3.5793,3.5508,3.5203,3.4791,3.4167,3.3935,3.3833,3.3195,3.2991,3.2861,3.2208,3.1988,3.1816,3.0874,3.035,2.9813,2.8536,2.7942,2.755,2.6924,2.6806,2.6718,2.6384,2.605,2.5716,2.5425,2.5042,2.4824,2.4878,2.516,2.5357,2.5357,2.5254,2.521,2.5416,2.4816,2.4409,2.4572,2.4108,2.3754,2.3616,2.3253,2.2906,2.2576,2.2321,2.2451,2.2986,2.3248,2.3426,2.3456,2.3171,2.3085,2.3109,2.3373,2.3484,2.3497,2.3523,2.4191,0.0,0.0,0.0,0.0,0.0,0.0,0.0,0.0,4.3621,4.4965,4.5849,4.6927,4.8709,4.895,4.9362,5.0992,5.0663,4.9961,4.9321,4.8233,4.7274,4.6684,4.5596,4.4608,4.3942,4.437,4.4687,4.4687,4.4595,4.4069,4.3118,4.2379,4.1482,4.0462,4.0343,4.0239,4.017,4.012,4.005,3.9995,3.9995,3.9995,3.9995,3.9394,3.9113,3.8996,3.8156,3.7582,3.7111,3.5946,3.5512,3.5453,3.4892,3.5009,3.5463,3.5272,3.4704,3.3993,3.3634,3.3416,3.3213,3.2527,3.2292,3.2162,3.154,3.1337,3.1177,3.0452,2.9842,2.9261,2.8534,2.7926,2.7391,2.691,2.6617,2.63,2.5905,2.5487,2.5096,2.4602,2.436,2.4259,2.4326,2.4297,2.4389,2.4752,2.4638,2.4676,2.5155,2.4541,2.4236,2.4687,2.4297,2.3889,2.3618,2.2948,2.2764,2.3337,2.2804,2.2751,2.3351,2.3269,2.3219,2.3291,2.2923,2.272,2.2732,2.2803,2.2626,2.2158,2.2769,2.406,3.9919,3.9568,4.0467,4.4035,4.4045,4.4378,0.0,0.0,4.9304,5.0205,5.106,5.1873,5.2653,5.2306,5.1861,5.1729,5.1136,5.0484,5.0022,4.7718,4.6016,4.5898,4.5719,4.5314,4.4637,4.4653,4.4685,4.4685,4.4138,4.3751,4.3638,4.2912,4.2446,4.2285,4.1835,4.1459,4.1142,4.0896,4.0659,4.0347,4.0347,4.0347,4.0332,3.9581,3.9146,3.8856,3.7585,3.6975,3.6896,3.6159,3.5827,3.5827,3.5752,3.5767,3.5746,3.4838,3.3761,3.2803,3.3329,3.3093,3.2513,3.1845,3.1596,3.1511,3.0903,3.0714,3.0467,2.9261,2.8869,2.8534,2.7329,2.6953,2.6866,2.6835,2.5948,2.5251,2.5716,2.4457,2.3192,2.3142,2.2678,2.2323,2.2323,2.2323,2.2889,2.4563,2.4839,2.477,2.4526,2.4419,2.428,2.4126,2.4058,2.3889,2.3618,2.3018,2.3067,2.3933,2.2945,2.2837,2.3947,2.3486,2.3189,2.3204,2.3399,2.336,2.3124,2.3611,2.3673,2.3424,2.4251,2.3811,4.1581,4.1873,4.2817,4.4803,4.5478,4.6504,4.9816,5.0454,5.0563,5.134,5.2111,5.2521,5.2034,5.2067,5.2009,0.0,5.0905,5.034,5.0181,4.7996,4.629,4.5863,4.5782,4.5162,4.3637,4.3864,4.4123,4.4123,4.3848,4.3719,4.3719,4.3006,4.2601,4.2601,4.2396,4.219,4.2061,4.1965,4.182,4.1673,4.1673,4.1467,4.1006,4.0399,3.9623,3.8666,3.7806,3.7374,3.7234,3.6507,3.6212,3.6181,3.5976,3.5685,3.535,3.5312,3.4671,3.3898,3.3779,3.3286,3.2631,3.1961,3.1737,3.1692,3.1424,3.1067,3.065,3.0142,2.9414,2.8699,2.8148,2.7591,2.7041,2.667,2.5994,2.5284,2.4791,2.4065,2.3244,2.2504,2.2461,2.2403,2.2062,2.2294,2.2794,2.3592,2.3722,2.3829,2.4096,2.376,2.3497,2.3355,2.3259,2.314,2.3019,2.2646,2.2571,2.2962,2.2519,2.2464,2.2976,2.2754,2.263,2.263,2.2728,2.2728,2.263,2.2836,2.2884,2.2801,2.3164,2.2851,4.2693,4.3214,4.3969,4.5393,4.6508,4.7859,5.0111,5.0818,5.1188,5.1951,5.2228,5.2147,5.1427,5.1454,5.1629,5.1697,5.0894,5.0326,5.0392,4.8328,4.6618,4.616,4.5732,4.495,4.3612,4.3778,4.3908,4.3681,4.3665,4.3665,4.3665,4.3175,4.2881,4.2881,4.2881,4.2851,4.2741,4.2851,4.2851,4.2741,4.2546,4.2142,4.1624,4.0729,3.9727,3.8622,3.8173,3.7918,3.7767,3.7191,3.6951,3.692,3.6585,3.606,3.5566,3.5907,3.5324,3.4304,3.3788,3.3181,3.2544,3.2059,3.1908,3.1908,3.1908,3.1437,3.0876,3.0679,2.98,2.8803,2.844,2.7801,2.7091,2.6404,2.5779,2.5105,2.4341,2.3745,2.3165,2.2422,2.2489,2.257,2.2319,2.2467,2.2746,2.3009,2.2863,2.2971,2.3543,2.32,2.2888,2.2888,2.2775,2.2661,2.2615,2.2417,2.2348,2.2437,2.2114,2.2086,2.2423,2.2114,2.2002,2.2208,2.2278,2.2278,2.2208,2.2324,2.237,2.2301,2.237,2.2394,4.2394,4.2249,4.2582,4.6379,4.738,4.8197,5.1249,5.1941,5.2187,5.2986,5.2132,5.1469,5.2208,5.1356,5.1035,5.2516,5.1461,5.0589,5.0937,4.8397,4.6586,4.6839,4.5599,4.4986,0.0,4.5071,4.4376,4.3651,4.3602,4.3602,4.3602,4.3568,4.3568,4.3568,4.3568,4.3402,4.3082,4.3402,4.3402,4.3066,4.2346,4.2002,4.1936,4.0225,3.9215,3.8782,3.8492,3.8379,3.8363,3.8335,3.8335,3.8307,3.7972,3.7441,3.6793,3.6495,3.498,3.3056,3.2968,3.2484,3.1938,3.1923,3.1908,3.1908,3.1908,3.1437,3.077,3.0114,2.942,2.8591,2.7303,2.6931,2.6749,2.6083,2.497,2.4197,2.4744,2.3389,2.2232,2.2849,2.2464,2.2217,2.2849,2.2449,2.234,2.325,2.2837,2.2539,2.2889,2.2902,2.2888,2.2888,2.2888,2.2797,2.2615,2.2592,2.2733,2.3045,2.1913,2.1764,2.3021,2.1899,2.1535,2.2194,2.2463,2.2463,2.2208,2.2661,2.2775,2.2592,2.2797,2.2865,4.2165,4.3411,4.4938,4.7293,4.8123,4.8952,5.0991,5.135,5.1347,5.161,5.0457,4.94,4.9368,4.9401,4.9669,5.041,5.096,5.1322,5.1452,5.0601,4.9311,4.7558,4.7828,0.0,0.0,0.0,0.0,4.4357,4.3893,4.3598,4.3598,4.3598,4.3598,4.3598,4.3598,4.3539,4.3432,4.3522,4.332,4.269,4.1486,4.0953,4.0904,3.9819,3.927,3.9121,3.9056,3.9002,3.8975,3.8766,3.8389,3.791,3.7635,3.7061,3.6356,3.5765,3.4723,3.3667,3.3787,3.3396,3.2772,3.232,3.2164,3.207,3.1592,3.0968,3.0376,3.0167,2.9581,2.8825,2.7929,2.7496,2.7019,2.5903,2.5107,2.4531,2.434,2.3785,2.3137,2.2469,2.2864,2.297,2.1812,2.2555,2.343,2.3743,2.3372,2.301,2.2904,2.2914,2.2804,2.2598,2.2384,2.22,2.2138,2.2348,2.2513,2.2621,2.2435,2.2509,2.2953,2.2173,2.2134,2.2987,2.2695,2.2695,2.2987,2.3157,2.3083,2.2797,2.2865,2.2888,4.29,4.4303,4.5771,4.7337,4.798,4.8547,4.9806,4.9981,4.9984,5.0267,4.899,4.7729,4.743,4.7692,4.8008,4.8217,4.9338,5.0395,5.1025,5.0424,4.971,4.9124,4.9077,4.8692,0.0,0.0,0.0,4.5102,4.4655,4.4274,4.4026,4.3731,4.3598,4.3598,4.3333,4.3201,4.3201,4.2936,4.2469,4.174,4.0812,4.026,3.9995,3.9514,3.9299,3.9299,3.9299,3.9299,3.9255,3.8787,3.8301,3.7814,3.7258,3.6614,3.5906,3.5331,3.4487,3.3661,3.378,3.3389,3.2727,3.2221,3.2112,3.2042,3.1399,3.0854,3.0417,3.0252,2.9745,2.9014,2.8006,2.7538,2.7023,2.5654,2.5118,2.4841,2.4451,2.3973,2.3491,2.3145,2.3357,2.326,2.2166,2.2773,2.3341,2.3076,2.3046,2.3092,2.326,2.3068,2.2903,2.2966,2.2541,2.2268,2.2268,2.2705,2.285,2.2611,2.2793,2.3024,2.3275,2.2471,2.2503,2.358,2.2966,2.2951,2.3595,2.3595,2.3382,2.29,2.3172,2.3091,4.4321,4.4836,4.5086,4.6565,4.6936,4.7145,4.7854,4.8027,4.8259,4.9008,4.7755,4.6489,0.0,0.0,4.6239,4.6274,4.7081,4.8321,5.0066,4.8484,4.8294,0.0,0.0,0.0,0.0,0.0,0.0,4.6026,0.0,4.5467,4.4721,4.4042,4.3631,4.3598,4.292,4.2522,4.2489,4.1711,4.1028,4.0409,4.0376,3.9978,3.9299,3.9299,3.9299,3.9299,3.9265,3.9249,3.9199,3.8444,3.8103,3.8004,3.696,3.6144,3.548,3.5159,3.4133,3.2943,3.2943,3.2481,3.1876,3.1654,3.1694,3.1764,3.1268,3.0998,3.0748,3.0307,2.9828,2.9096,2.7517,2.7089,2.6725,2.5318,2.5005,2.5005,2.5005,2.391,2.3341,2.4669,2.3799,2.3072,2.373,2.303,2.2136,2.1469,2.1982,2.2782,2.3766,2.3289,2.3107,2.3796,2.3213,2.2788,2.2788,2.3472,2.3624,2.292,2.2991,2.3325,2.3973,2.2758,2.2666,2.3994,2.3305,2.3274,2.3979,2.4009,2.3624,2.2884,2.3633,2.3414,4.3682,4.4711,4.5521,4.5939,4.6161,4.6366,4.6564,4.695,4.7337,4.7492,4.6234,4.4925,0.0,0.0,0.0,4.7234,4.9785,0.0,5.31,5.3229,0.0,5.1543,0.0,5.0737,4.942,4.9478,0.0,0.0,4.6614,4.5467,4.4721,4.4506,4.4175,4.3615,4.3416,4.3052,4.2489,4.1276,4.0591,4.0393,3.9846,3.9481,3.9299,3.9299,3.9299,3.9265,3.8709,3.8477,3.8427,3.7682,3.7069,3.6514,3.6266,3.5382,3.4259,3.4147,3.3218,3.1945,3.1945,3.1932,3.1819,3.1248,3.1094,3.1043,3.0364,3.0119,3.0063,2.9929,2.9414,2.8657,2.7598,2.6924,2.6256,2.5247,2.5005,2.5005,2.5005,2.429,2.3749,2.4112,2.3085,2.2376,2.3056,2.2542,2.2124,2.2456,2.2661,2.2692,2.2454,2.2281,2.211,2.1993,2.159,2.1327,2.1327,2.2229,2.2728,2.2528,2.3285,2.3821,2.3988,2.3203,2.3264,2.4343,2.3701,2.3407,2.3553,2.4112,2.36,2.2193,2.3415,2.3298,4.3791,4.4936,4.5883,4.5883,4.599,4.6068,4.5965,4.6184,4.6383,4.6234,4.5158,4.3895,4.2749,4.4559,0.0,0.0,0.0,0.0,5.2841,5.3275,5.328,0.0,5.2242,0.0,5.0431,5.0127,4.9729,0.0,4.7519,4.6255,4.5551,4.4677,4.4042,4.3615,4.3284,4.2605,4.1591,4.0464,3.9928,3.9912,3.9497,3.9299,3.9299,3.9299,3.9299,3.9265,0.0,3.8186,3.8103,3.7052,3.6373,3.5943,3.5297,3.4612,3.3962,3.3493,3.2669,3.1795,3.1641,3.1473,3.1214,3.0749,3.0429,3.0196,2.9892,2.9713,2.9662,2.9778,2.9356,2.8663,2.778,2.6924,2.6098,2.5318,2.5064,2.5005,2.5005,2.4413,2.3809,2.3528,2.2596,2.1979,2.2374,2.1869,2.1537,2.1918,2.1981,2.1841,2.1466,2.1706,2.1925,2.1998,2.1576,2.1268,2.1268,2.2104,2.2605,2.2605,2.3464,2.4096,2.4426,2.3467,2.3359,2.4233,2.3283,2.2908,2.3186,2.3889,2.3573,2.2358,2.3772,2.3753,4.425,4.5169,4.5871,4.5834,4.5874,4.5842,4.5499,4.5571,4.5532,4.4992,4.4231,4.3152,4.1444,4.3548,4.4922,4.3102,0.0,4.9791,5.1563,5.1626,5.2142,5.3985,5.266,5.1726,5.206,5.0474,4.9414,4.9359,4.8184,4.7166,4.6465,4.4825,4.3839,4.3626,4.2866,4.1808,4.0491,3.9744,3.9379,3.9379,3.9379,3.9405,3.9441,3.9405,3.9379,3.9345,0.0,0.0,3.8024,3.658,3.5939,3.5723,3.4426,3.3991,3.396,3.3006,3.239,3.1978,3.1704,3.1183,3.0593,3.0338,2.993,2.96,2.981,2.9669,2.9448,2.968,2.9331,2.8682,2.7839,2.6921,2.6086,2.5458,2.5098,2.4882,2.4843,2.427,2.3544,2.2772,2.2185,2.1804,2.1758,2.1221,2.0794,2.0794,2.0794,2.0794,2.0794,2.1363,2.1981,2.2566,2.209,2.1742,2.1742,2.2376,2.2772,2.2772,2.3401,2.4049,2.4685,2.3546,2.3164,2.3765,2.2722,2.2424,2.2898,2.367,2.3654,2.293,2.4337,2.4387,4.4449,4.464,4.4715,4.4513,4.4784,4.4915,4.4202,4.4893,0.0,4.3086,4.2868,4.2392,4.0166,4.211,4.4375,4.529,4.8097,5.118,5.4109,5.4492,5.4268,0.0,0.0,0.0,0.0,0.0,0.0,0.0,0.0,4.6612,4.6102,4.5762,4.5037,4.3797,4.2726,4.1728,4.0802,4.015,3.9798,3.9798,3.9798,3.9944,4.0195,3.9918,3.9798,3.974,0.0,0.0,3.7616,3.6429,3.5574,3.497,3.4737,3.3875,3.2798,3.2601,3.2148,3.1594,3.1536,3.1414,3.1235,3.0634,3.0385,3.0319,3.0356,2.9914,2.9413,2.9464,2.8576,2.7552,2.721,2.6542,2.5859,2.5423,2.4812,2.4292,2.4135,2.3544,2.269,2.141,2.1553,2.1695,2.1094,2.0873,2.0794,2.0794,2.0794,2.0794,2.0794,2.0905,2.1031,2.1142,2.1047,2.0984,2.0984,2.1647,2.2058,2.2058,2.2708,2.3135,2.3262,2.3025,2.2946,2.3072,2.3386,2.3338,2.2898,2.4195,2.4147,2.293,2.4337,2.4286,4.4501,4.4486,4.447,4.4344,4.4498,4.4563,4.4032,0.0,0.0,4.2476,4.2302,4.185,3.9784,4.1522,4.3395,4.3754,4.6962,5.0229,5.258,5.3866,0.0,5.386,0.0,0.0,0.0,0.0,0.0,0.0,0.0,4.6422,4.6377,4.5412,4.4524,4.3833,4.2481,4.1612,4.1231,4.051,4.0154,4.0154,4.0154,4.0237,4.04,4.0237,3.9951,3.9544,3.8598,0.0,3.7204,3.5866,3.5113,3.4721,3.3919,3.3268,3.27,3.2154,3.1852,3.164,3.1078,3.0866,3.0742,2.9996,2.9799,2.9818,2.9782,2.9278,2.8792,2.9143,2.8473,2.7631,2.7429,2.6735,2.601,2.5696,2.4887,2.4138,2.3945,2.3101,2.2186,2.1489,2.1347,2.1205,2.0857,2.0794,2.0794,2.0794,2.0794,2.0794,2.0794,2.0794,2.0794,2.0794,2.0794,2.0794,2.0794,2.111,2.1474,2.182,2.2185,2.255,2.2882,2.2566,2.2392,2.2392,2.2311,2.2137,2.1823,2.2866,2.3214,2.293,2.3958,2.4274,4.4496,4.4501,4.4501,4.4501,4.4501,4.4346,4.3781,4.3748,4.3389,4.1811,4.1539,4.1112,3.9506,4.0835,4.2103,0.0,4.5109,4.8353,5.0584,5.2519,5.3736,0.0,0.0,0.0,0.0,0.0,0.0,0.0,0.0,0.0,4.61,4.4656,4.3752,4.3597,4.2328,4.1576,4.138,4.0805,4.0538,4.0538,4.0538,4.057,4.0642,4.0415,3.9966,3.9384,3.838,0.0,0.0,3.5372,3.4672,3.4397,3.3179,3.2783,3.278,3.1971,3.1838,3.1862,3.085,3.0484,3.0329,2.9368,2.911,2.9176,2.9124,2.8629,2.8237,2.8919,2.8493,2.7777,2.7791,2.7128,2.6299,2.5737,2.4858,2.4051,2.3565,2.2582,2.1783,2.1783,2.124,2.0794,2.0794,2.0794,2.0794,2.0794,2.0794,2.0794,2.0794,2.0794,2.0794,2.0794,2.0794,2.0794,2.0794,2.0794,2.1031,2.1551,2.1647,2.1902,2.2424,2.1949,2.1663,2.1663,2.1237,2.1015,2.1031,2.1758,2.2453,2.3135,2.3654,2.4302,4.4505,4.4501,4.4501,4.4501,4.4501,4.4088,4.2541,0.0,4.2348,3.9961,3.9703,3.9646,3.8752,3.9213,4.0383,4.2448,4.375,4.6085,5.0629,5.2054,5.2804,5.3306,0.0,0.0,0.0,0.0,0.0,0.0,0.0,0.0,4.4155,4.3985,4.3576,4.2911,4.2397,4.1773,4.1058,4.0989,4.0937,4.0937,4.0937,4.114,4.1458,4.0422,3.9899,3.9749,3.7903,0.0,0.0,3.5198,3.428,3.3614,3.3456,3.302,3.2441,3.2336,3.2336,3.2248,3.139,3.1128,3.0882,2.9395,2.8986,2.9106,2.9106,2.8629,2.8254,2.8971,2.8169,2.7246,2.7896,2.7503,2.6551,2.5,2.4359,2.3733,2.2391,2.1706,2.1359,2.1359,2.1054,2.0794,2.0794,2.0794,2.0794,2.0794,2.0794,2.0794,2.0794,2.0794,2.0794,2.0794,2.0794,2.0794,2.0794,2.0794,2.0826,2.0889,2.0889,2.0921,2.0984,2.0921,2.0889,2.0889,2.1425,2.1741,2.179,2.2487,2.3149,2.3809,2.3872,2.4302,4.4482,4.4589,4.4501,4.4501,4.3731,4.2962,4.2825,0.0,4.13,4.0151,4.0038,3.9782,3.87,3.909,3.9848,4.0654,4.2267,4.4385,4.7283,4.922,5.0769,5.1961,0.0,0.0,0.0,0.0,0.0,0.0,0.0,0.0,4.2535,4.2973,4.3114,4.2816,4.217,4.17,4.1363,4.1363,4.1363,4.1363,4.1363,4.1453,4.1587,4.0683,3.9984,3.9442,3.7755,0.0,0.0,3.4544,3.3792,3.3406,3.2476,3.1949,3.1668,3.1668,3.1668,3.1633,3.13,3.1194,3.0949,2.9404,2.8931,2.8894,2.8392,2.8061,2.7921,2.8216,2.7867,2.7469,2.7624,2.7342,2.6803,2.5996,2.5055,2.4254,2.396,2.3054,2.2303,2.2273,2.2163,2.1922,2.1467,2.1402,2.1402,2.1402,2.1402,2.1402,2.1402,2.1402,2.1402,2.1402,2.1039,2.0794,2.0794,2.0794,2.0794,2.0794,2.0794,2.0893,2.1087,2.1103,2.1198,2.1402,2.1663,2.1714,2.1535,2.1824,2.241,2.3291,2.3291,2.391,4.4196,4.4463,4.4537,4.4515,4.3431,4.2549,4.3163,4.2187,4.104,4.0614,4.0458,4.0058,3.8914,3.9124,3.9477,3.9504,4.1088,4.3012,4.5021,4.6975,4.8876,0.0,0.0,0.0,0.0,0.0,0.0,0.0,0.0,0.0,0.0,4.222,4.2514,4.2464,4.1903,4.1499,4.1271,4.1499,4.1499,4.1271,4.1271,4.1271,4.1236,4.0235,3.9357,3.8532,0.0,0.0,0.0,3.3704,3.3178,3.3073,3.1967,3.1405,3.1246,3.1458,3.1388,3.1159,3.0949,3.0861,3.0615,2.9053,2.8544,2.8438,2.7877,2.7701,2.7736,2.7982,2.8052,2.797,2.7594,2.7199,2.6804,2.6404,2.5331,2.4486,2.4826,2.3961,2.3184,2.3371,2.313,2.2738,2.221,2.1945,2.1812,2.1812,2.1812,2.1812,2.1812,2.1812,2.1812,2.1812,2.1386,2.1087,2.1087,2.1087,2.1199,2.1408,2.1215,2.1295,2.1742,2.1563,2.1556,2.1797,2.1812,2.1693,2.1449,2.1449,2.1989,2.3042,2.3042,2.375,4.3492,4.4038,4.4672,4.4524,4.3895,4.3294,4.3294,4.2618,4.176,4.0966,4.0571,4.0142,3.9346,3.9036,3.908,3.9605,4.0397,4.1938,4.4895,4.6015,0.0,0.0,0.0,0.0,0.0,0.0,0.0,0.0,0.0,0.0,0.0,4.1913,4.1823,4.1622,4.1604,4.1253,4.052,4.1236,4.1218,4.052,4.052,4.052,4.0467,3.8848,3.7725,0.0,0.0,0.0,0.0,3.2722,3.2406,3.2406,3.2388,3.1897,3.13,3.209,3.1879,3.1089,3.0369,3.0108,2.986,2.8245,2.7701,2.7701,2.7701,2.7701,2.7859,2.8667,2.8895,2.8702,2.7894,2.7157,2.6405,2.5598,2.4733,2.4125,2.4191,2.3791,2.3621,2.4424,2.3681,2.2904,2.2888,2.2275,2.1812,2.1812,2.1812,2.1812,2.1812,2.1812,2.1812,2.1812,2.1781,2.1797,2.1797,2.1797,2.2111,2.2822,2.2193,2.2127,2.2854,2.2177,2.1797,2.1812,2.1812,2.1812,2.1781,2.1781,2.2341,2.3377,2.3377,2.3955,4.2879,4.3761,4.4548,4.3911,4.2666,4.1886,4.3031,4.1773,4.044,4.0741,4.0727,4.0373,3.9373,4.0053,4.0926,4.1509,4.2785,4.4223,0.0,0.0,0.0,0.0,0.0,0.0,0.0,0.0,0.0,0.0,0.0,0.0,0.0,4.1421,4.1297,4.1587,4.1604,4.1253,4.0502,4.0731,4.0446,3.9691,3.9691,3.9691,3.9638,3.8058,0.0,0.0,0.0,0.0,0.0,3.1897,3.1282,3.0843,3.0843,3.0334,2.9737,3.0527,3.0668,3.0492,3.0756,3.0843,3.0598,2.9035,2.8526,2.8421,2.7859,2.7701,2.7754,2.7999,2.7719,2.7403,2.7631,2.6736,2.5844,2.6156,2.5199,2.4366,2.4851,2.4419,2.4144,2.4801,2.4648,2.422,2.3633,2.3329,2.3005,2.248,2.2426,2.2426,2.2426,2.2426,2.2426,2.2426,2.2426,2.2446,2.2553,2.2077,2.2111,2.2854,2.2209,2.1999,2.2404,2.22,2.2184,2.2412,2.2426,2.2298,2.2068,2.2068,2.2662,2.3752,2.4491,2.5024,4.261,4.3421,4.4216,4.3957,4.2817,0.0,4.3444,4.2318,4.1148,4.1642,4.1736,4.1434,4.0427,4.1072,4.1861,4.2143,4.3577,4.5027,0.0,0.0,0.0,0.0,0.0,0.0,0.0,0.0,0.0,0.0,0.0,0.0,0.0,4.0994,4.0656,4.0838,4.077,4.0375,3.9585,3.9884,3.9498,3.8444,3.8725,3.8708,3.8392,3.711,0.0,0.0,0.0,0.0,0.0,3.1528,3.0931,3.0527,3.0527,2.986,2.9,2.9808,2.9913,2.972,3.0176,3.0317,3.0124,2.886,2.8456,2.8351,2.7841,2.7701,2.7701,2.7701,2.7174,2.6704,2.7174,2.6139,2.5103,2.5612,2.4756,2.4081,2.5119,2.4916,2.4819,2.582,2.5712,2.5308,2.4764,2.4198,2.375,2.3595,2.306,2.2905,2.3491,2.3087,2.2828,2.3078,2.2897,2.2867,2.3216,2.2565,2.2582,2.3639,2.2716,2.2333,2.2801,2.2545,2.249,2.2699,2.2699,2.2602,2.2392,2.2539,2.2973,2.3681,2.4491,2.4855,0.0,4.3187,4.3836,4.4467,4.396,4.3501,4.4313,4.3876,0.0,4.3294,4.3294,4.305,4.2248,4.2098,4.2069,4.2001,4.3282,0.0,0.0,0.0,0.0,0.0,0.0,0.0,0.0,0.0,0.0,0.0,0.0,0.0,0.0,4.0559,3.994,3.9527,3.9288,3.8813,3.8111,3.8722,3.8357,3.7007,3.7637,3.7602,3.6972,3.6057,0.0,0.0,0.0,0.0,0.0,3.1423,3.1089,3.1036,3.1036,3.0124,2.8912,2.972,2.9544,2.8895,2.8895,2.8895,2.8772,2.7964,2.7701,2.7701,2.7701,2.7701,2.7701,2.7701,2.7139,2.6528,2.6581,2.5401,2.4221,2.4286,2.3643,2.3435,2.4984,2.5167,2.5527,2.7113,2.6714,2.6109,2.6109,2.4922,2.4198,2.4902,2.3781,2.3371,2.4816,2.3819,2.3175,2.3746,2.3248,2.3136,2.3764,2.3143,2.335,2.4833,2.3539,2.3022,2.3698,2.3074,2.2712,2.2712,2.2712,2.2699,2.2699,2.3119,2.3346,2.3346,2.3682,2.3836,4.3517,0.0,4.4485,4.3975,4.3573,4.3501,0.0,4.3876,4.3294,4.3294,4.3294,4.3238,4.3031,4.2994,4.3375,4.4557,0.0,0.0,0.0,0.0,0.0,0.0,0.0,0.0,0.0,0.0,0.0,0.0,0.0,0.0,0.0,3.9769,3.9153,3.8697,3.8088,3.7884,3.8111,3.7108,3.6759,3.6989,3.6549,3.6566,3.6937,3.4932,0.0,0.0,0.0,0.0,3.0633,3.044,3.0001,2.9439,2.9439,2.8842,2.807,2.8895,2.907,2.8895,2.8895,2.8895,2.8772,2.7964,2.7701,2.7701,2.7701,2.7701,2.7701,2.7701,2.6736,2.5823,2.6441,2.5015,2.3541,2.415,2.3668,2.3358,2.4331,2.4515,2.4935,2.6449,2.6466,2.6239,2.6194,2.5843,2.5422,2.5057,2.4695,2.4591,2.4954,2.4732,2.4375,2.3936,2.3827,2.3863,2.4031,2.3267,2.3148,2.4026,2.3269,2.2846,2.3037,2.2864,2.2803,2.2855,2.2803,2.2751,2.2699,2.3357,2.3676,2.3693,2.4088,2.427,4.3663,4.4151,4.4289,4.4213,4.4033,4.397,4.4388,4.4144,4.3857,4.3857,4.3857,4.3857,4.3857,4.4158,4.4684,0.0,4.673,0.0,0.0,0.0,0.0,0.0,0.0,0.0,0.0,0.0,0.0,0.0,0.0,0.0,0.0,3.9428,3.8838,3.8491,3.7578,3.7251,3.7584,3.6777,3.6197,3.5936,3.5495,3.5144,3.4829,3.3196,3.2651,0.0,0.0,0.0,3.058,3.0246,2.9404,2.8351,2.8351,2.7648,2.6736,2.7561,2.7827,2.7827,2.7827,2.7596,2.728,2.7227,2.7032,2.6802,2.669,2.6798,2.7072,2.7563,2.6595,2.5507,2.5932,2.4581,2.33,2.4115,2.3975,2.3962,2.5116,2.5335,2.5645,2.6778,2.6929,2.6822,2.6764,2.6407,2.612,2.6057,2.5454,2.5264,2.5954,2.5493,2.5051,2.4982,2.4444,2.4098,2.4098,2.3358,2.3198,2.3894,2.3245,2.2855,2.2855,2.2855,2.285,2.2906,2.2842,2.2777,2.2751,2.3126,2.3302,2.3319,2.3876,2.4113,4.3586,4.3904,4.3985,4.4749,4.4738,4.4542,4.4542,4.4496,4.4501,4.4501,4.4501,4.4576,4.482,4.5341,0.0,0.0,0.0,0.0,0.0,0.0,0.0,0.0,0.0,0.0,0.0,0.0,0.0,0.0,0.0,0.0,0.0,3.8951,3.8416,3.8181,3.7164,3.6663,3.6736,3.6554,3.5813,3.4512,3.4512,3.3828,3.2529,3.1616,3.1563,0.0,0.0,0.0,3.0598,2.9878,2.8772,2.7526,2.7403,2.6542,2.5489,2.6174,2.6423,2.642,2.6462,2.6036,2.5592,2.6288,2.622,2.5793,2.5588,2.5783,2.6285,2.7161,2.637,2.5266,2.5239,2.416,2.33,2.4115,2.4304,2.4712,2.6279,2.6556,2.6723,2.746,2.7572,2.7496,2.7438,2.6851,2.6595,2.7225,2.6193,2.5816,2.7142,2.6221,2.5643,2.6157,2.5157,2.436,2.4142,2.3536,2.3397,2.3903,2.3297,2.2919,2.2919,2.2932,2.2932,2.2906,2.2838,2.2803,2.279,2.2725,2.2699,2.2716,2.3457,2.375,4.3739,4.4349,4.4756,4.5007,4.4858,4.4672,4.4672,4.4578,4.4501,4.4501,4.4501,4.4932,4.634,4.611,4.6167,0.0,0.0,0.0,0.0,0.0,0.0,0.0,0.0,0.0,0.0,0.0,0.0,0.0,0.0,0.0,0.0,0.0,3.6607,3.6245,3.5897,3.5686,3.5646,3.4571,3.3915,3.3687,3.3687,3.3564,3.3284,3.1861,3.1281,0.0,0.0,2.8122,2.8175,2.7438,2.6984,2.67,2.6016,2.5612,2.5419,2.5542,2.5577,2.5622,2.5835,2.5841,2.5791,2.6074,2.6117,2.6051,2.6015,2.6033,2.6105,2.6078,2.5427,2.4679,2.4513,2.3786,2.33,2.4115,2.4304,2.4712,2.6279,2.6598,2.6795,2.7546,2.763,2.7587,2.7572,2.7363,2.7267,2.7432,2.7168,2.7054,2.7359,2.7201,2.6838,2.6266,2.617,2.5593,2.4287,2.4086,2.3797,2.328,2.3072,2.2977,2.2977,2.3045,2.302,2.2906,2.2893,2.2829,2.2712,2.2712,2.2699,2.2716,2.3457,2.3474,4.2431,4.3209,4.3991,4.4982,4.5584,4.5947,4.5947,4.5909,4.5721,4.5247,4.5153,4.5378,4.6167,0.0,4.7744,0.0,0.0,0.0,0.0,0.0,0.0,0.0,0.0,0.0,0.0,0.0,0.0,0.0,0.0,0.0,0.0,0.0,3.6688,3.6512,3.6162,3.5754,3.5294,3.449,3.409,3.4025,3.3169,3.2527,3.2043,3.0308,2.9756,3.0092,0.0,2.7701,2.7631,2.6897,2.6104,2.5327,2.4958,2.4632,2.4429,2.4949,2.5128,2.5206,2.5763,2.5416,2.4804,2.5292,2.527,2.4993,2.4893,2.5032,2.5165,2.4811,2.4652,2.4551,2.435,2.4136,2.417,2.4938,2.5549,2.6274,2.7375,2.7504,2.7504,2.7855,2.7771,2.7644,2.7617,2.7559,2.7498,2.7452,2.7421,2.739,2.7345,2.7376,2.7253,2.6889,2.6534,2.5895,2.4836,2.4423,2.3872,2.308,2.302,2.302,2.304,2.3422,2.3419,2.2957,2.3263,2.3215,2.2751,2.3108,2.3285,2.3319,2.4491,2.4853,4.0998,4.1972,4.3116,4.4586,4.5766,4.6704,4.7259,4.7197,4.6961,4.6636,4.643,4.6279,0.0,4.75,0.0,0.0,0.0,0.0,0.0,0.0,0.0,0.0,0.0,0.0,0.0,0.0,0.0,0.0,0.0,0.0,0.0,0.0,3.6411,3.6159,3.5963,3.5282,3.4092,3.411,3.3964,3.365,3.2589,3.1576,3.0573,2.895,2.8523,2.9032,2.7652,2.7041,2.6988,2.6246,2.5252,2.418,2.418,2.3928,2.3658,2.4378,2.465,2.474,2.5411,2.4864,2.3969,2.46,2.4533,2.4154,2.4009,2.4201,2.4411,2.3989,2.4176,2.4478,2.4466,2.4629,2.4998,2.5942,2.6802,2.7604,2.8353,2.835,2.8192,2.8192,2.8034,2.784,2.773,2.7686,2.763,2.7498,2.7498,2.745,2.736,2.7376,2.7392,2.7376,2.684,2.6209,2.5498,2.4836,2.4182,2.3532,2.32,2.3128,2.337,2.3868,2.3933,2.3523,2.3962,2.3794,2.3037,2.3743,2.3974,2.3836,2.5387,2.5904,4.0148,4.1482,4.2816,4.3683,4.4585,4.5801,4.799,4.7818,4.7566,4.8938,4.857,4.8007,0.0,4.8776,0.0,0.0,0.0,0.0,0.0,0.0,0.0,0.0,0.0,0.0,0.0,0.0,0.0,0.0,0.0,0.0,0.0,0.0,0.0,3.3429,3.3969,3.3124,3.0757,3.2066,3.2216,3.1184,3.1808,3.1287,2.975,2.8861,2.8505,2.8433,2.611,2.5107,2.5034,2.431,2.3941,2.3843,2.3843,2.3818,2.3803,2.385,2.3886,2.3917,2.4165,2.4169,2.4135,2.4431,2.4502,2.4474,2.4446,2.4482,2.4437,2.4154,2.4114,2.4257,2.4806,2.4954,2.5364,2.691,2.7339,2.7604,2.8353,2.8473,2.846,2.846,2.8466,2.8363,2.8116,2.801,2.7901,2.7716,2.7569,2.7496,2.7481,2.7438,2.7378,2.7297,2.731,2.6991,2.6207,2.5572,2.515,2.4961,2.3781,2.3423,2.4168,2.42,2.4466,2.5035,2.501,2.4593,2.3733,2.4525,2.4525,2.3836,2.5387,2.5335,4.0053,4.1857,4.3533,4.3848,4.4955,4.6412,4.8094,4.8593,4.8691,4.8694,4.9246,0.0,0.0,0.0,0.0,0.0,0.0,0.0,0.0,0.0,0.0,0.0,0.0,0.0,0.0,0.0,0.0,0.0,0.0,0.0,0.0,0.0,0.0,3.3294,3.2521,3.1627,3.0652,3.0663,3.0443,2.9989,3.0771,3.0863,3.0201,2.8686,2.8001,2.788,2.5792,2.491,2.4838,2.4092,2.3806,2.3816,2.3949,2.3999,2.4009,2.4173,2.4238,2.4247,2.4321,2.4348,2.4375,2.4474,2.45,2.45,2.45,2.45,2.4575,2.4977,2.5088,2.5087,2.5029,2.5495,2.6278,2.7394,2.8165,2.8725,2.899,2.8932,2.8815,2.8815,2.8646,2.8478,2.8376,2.8324,2.8272,2.8156,2.8129,2.8034,2.7786,2.7774,2.7689,2.7452,2.6955,2.6524,2.6229,2.562,2.5213,2.5177,2.4687,2.4366,2.4248,2.4962,2.5097,2.4537,2.5314,2.5555,2.5232,2.5525,2.5781,2.5988,2.6057,2.6057,4.0053,4.1924,4.3682,4.393,4.5067,4.6538,4.8166,4.9122,4.9678,4.9762,5.0081,5.0096,4.9261,0.0,0.0,0.0,0.0,0.0,0.0,0.0,0.0,0.0,0.0,0.0,0.0,0.0,0.0,0.0,0.0,0.0,0.0,0.0,0.0,0.0,3.1738,3.0893,3.0047,2.969,2.9211,2.8639,2.9175,2.9564,2.9768,2.8432,2.7693,2.7369,2.5824,2.5147,2.5093,2.4328,2.4009,2.4029,2.4182,2.4229,2.4248,2.4429,2.45,2.45,2.45,2.45,2.45,2.45,2.45,2.45,2.45,2.45,2.4611,2.5169,2.5503,2.5681,2.5629,2.6321,2.7272,2.8112,2.8876,2.9396,2.9396,2.9262,2.9134,2.9134,2.8943,2.8754,2.867,2.8658,2.8609,2.8453,2.8478,2.8402,2.8102,2.8088,2.7996,2.7657,2.7093,2.6705,2.6606,2.6211,2.5944,2.5889,2.593,2.5638,2.4888,2.5675,2.5821,2.5142,2.6014,2.6335,2.6094,2.6335,2.6764,2.7297,2.6747,2.6764,4.0081,4.1533,4.3004,4.3806,4.4685,4.5933,4.8274,4.932,5.0449,5.2707,5.1268,4.928,4.8375,0.0,0.0,0.0,0.0,0.0,0.0,0.0,0.0,0.0,0.0,0.0,0.0,0.0,0.0,0.0,0.0,0.0,0.0,0.0,0.0,0.0,3.1654,3.0884,2.8409,2.911,2.8651,2.701,2.6935,2.7315,2.8096,2.8077,2.765,2.6851,2.6033,2.5689,2.5652,2.4834,2.45,2.45,2.45,2.45,2.45,2.45,2.45,2.45,2.45,2.45,2.45,2.45,2.45,2.45,2.45,2.45,2.45,2.4518,2.5094,2.5894,2.6702,2.7501,2.8319,2.9192,2.9396,2.9396,2.9396,2.9396,2.9396,2.9396,2.9396,2.9315,2.9037,2.9003,2.8892,2.8554,2.8516,2.8491,2.8402,2.8389,2.8259,2.794,2.7911,2.78,2.7526,2.7557,2.7526,2.7407,2.7529,2.7205,2.633,2.6242,2.6595,2.7374,2.7329,2.6902,2.6111,2.6919,2.7299,2.7299,2.7299,2.7299,4.1039,4.2441,4.3895,4.4934,4.6214,4.7539,4.8853,4.9212,4.9714,5.1377,4.9625,4.7864,4.8153,0.0,0.0,0.0,0.0,0.0,0.0,0.0,0.0,0.0,0.0,0.0,0.0,0.0,0.0,0.0,0.0,0.0,0.0,0.0,0.0,0.0,2.9992,2.9139,2.8417,2.8015,2.7858,2.7914,2.727,2.7065,2.7241,2.6665,2.6591,2.6814,2.5448,2.5187,2.5652,2.4834,2.45,2.45,2.45,2.45,2.45,2.45,2.45,2.45,2.45,2.45,2.45,2.45,2.45,2.45,2.45,2.45,2.4741,2.5875,2.5949,2.6172,2.8133,2.8374,2.8319,2.9192,2.9396,2.9396,2.9396,2.9396,2.9396,2.9396,2.9396,2.9357,2.9294,2.9283,2.9243,2.9149,2.9119,2.9052,2.8857,2.8609,2.8415,2.8277,2.8075,2.7901,2.7716,2.76,2.7465,2.7346,2.7407,2.7089,2.6261,2.6792,2.6946,2.6633,2.7113,2.7516,2.7793,2.7469,2.7558,2.8058,2.754,2.7575,4.2439,4.3696,4.4995,4.637,4.7386,4.8228,4.8808,0.0,0.0,0.0,4.9188,4.7492,4.7933,0.0,0.0,0.0,0.0,0.0,0.0,0.0,0.0,0.0,0.0,0.0,0.0,0.0,0.0,0.0,0.0,0.0,0.0,0.0,0.0,0.0,2.9429,2.8923,2.8923,2.8042,2.7857,2.8334,2.7438,2.6814,2.6451,2.6265,2.6275,2.6368,2.541,2.5076,2.5187,2.4704,2.45,2.45,2.45,2.45,2.45,2.45,2.45,2.45,2.45,2.45,2.45,2.45,2.45,2.45,2.45,2.45,2.4704,2.5671,2.6061,2.6516,2.8021,2.8505,2.8746,2.9266,2.9396,2.9396,2.9396,2.9396,2.9396,2.9396,2.9396,2.9396,2.9396,2.9396,2.9396,2.9396,2.9396,2.9336,2.9178,2.8966,2.8808,2.8652,2.8489,2.8308,2.8106,2.7968,2.7815,2.7585,2.7644,2.739,2.6742,2.7209,2.7226,2.674,2.718,2.7618,2.8019,2.7538,2.7833,2.8816,2.8075,2.8299,4.389,4.4982,4.6121,4.7816,4.8306,0.0,4.8519,4.932,5.0234,5.0938,0.0,4.7732,0.0,0.0,0.0,0.0,0.0,0.0,0.0,0.0,0.0,0.0,0.0,0.0,0.0,0.0,0.0,0.0,0.0,0.0,0.0,0.0,0.0,0.0,2.9701,2.9701,2.9701,2.8914,2.853,0.0,2.7578,2.6748,2.605,2.6563,2.6349,2.5596,2.5671,2.5243,2.45,2.45,2.45,2.45,2.45,2.45,2.45,2.45,2.45,2.45,2.45,2.45,2.45,2.45,2.45,2.45,2.45,2.45,2.4537,2.4685,2.5726,2.6832,2.7074,2.8189,2.9304,2.9378,2.9396,2.9396,2.9396,2.9396,2.9396,2.9396,2.9396,2.9396,2.9396,2.9396,2.9396,2.9396,2.9396,2.9396,2.9396,2.9396,2.9304,2.906,2.9014,2.8862,2.8554,2.8498,2.835,2.801,2.8047,2.7911,2.7509,2.7436,2.7407,2.7407,2.7392,2.736,2.7313,2.7315,2.7989,2.9282,2.8678,2.9179,4.3408,4.4604,4.6148,4.8038,4.9026,4.9543,4.958,4.8722,4.7932,4.7891,4.7299,0.0,0.0,0.0,0.0,0.0,0.0,0.0,0.0,0.0,0.0,0.0,0.0,0.0,0.0,0.0,0.0,0.0,0.0,0.0,0.0,0.0,0.0,2.9701,2.9701,2.9701,2.9701,2.9504,2.9383,0.0,2.8503,2.7942,2.7643,2.6488,2.5522,2.4797,2.5429,2.5243,2.45,2.45,2.45,2.45,2.45,2.45,2.45,2.45,2.45,2.45,2.45,2.45,2.45,2.45,2.45,2.45,2.45,2.45,2.476,2.6042,2.6191,2.6414,2.8356,2.8616,2.8542,2.9229,2.9396,2.9396,2.9396,2.9396,2.9396,2.9396,2.9396,2.9396,2.9396,2.9396,2.9396,2.9396,2.9396,2.9396,2.9396,2.9396,2.9386,2.9315,2.9134,2.8927,2.8754,2.8541,2.829,2.794,2.794,2.7844,2.7587,2.7557,2.7526,2.7465,2.7438,2.7423,2.7467,2.736,2.7486,2.7862,2.8228,2.8885,4.3765,4.4639,4.5706,4.7528,0.0,4.9673,4.8852,4.7958,4.7037,4.6093,0.0,0.0,0.0,0.0,0.0,0.0,0.0,0.0,0.0,0.0,0.0,0.0,0.0,0.0,0.0,0.0,0.0,0.0,0.0,0.0,0.0,2.9954,2.9701,2.9701,2.9307,2.9288,2.9701,2.9288,2.927,2.9645,2.9186,2.8689,2.8146,2.647,2.5466,2.5076,2.5113,2.489,2.45,2.45,2.45,2.45,2.45,2.45,2.45,2.45,2.45,2.45,2.45,2.45,2.45,2.45,2.45,2.45,2.45,2.45,2.4667,2.5522,2.5996,2.6572,2.7873,2.8449,2.8839,2.9285,2.9396,2.9396,2.9396,2.9396,2.9396,2.9396,2.9396,2.9396,2.9396,2.9396,2.9396,2.9396,2.9396,2.9396,2.9396,2.9396,2.9396,2.9396,2.9272,2.9149,2.9097,2.8955,2.8749,2.8451,2.8425,2.8255,2.7858,2.7818,2.7701,2.7557,2.7513,2.7498,2.7496,2.7436,2.7596,2.7992,2.8657,2.9385,4.3957,4.4676,4.5414,4.7104,4.8502,0.0,4.7628,4.7084,4.6482,0.0,0.0,0.0,0.0,0.0,0.0,0.0,0.0,0.0,0.0,0.0,0.0,0.0,0.0,0.0,0.0,0.0,0.0,0.0,0.0,0.0,2.955,2.9399,2.9341,2.9341,2.8635,2.8616,2.9322,2.8616,2.8616,2.9341,2.9251,2.8774,2.7969,2.6423,2.5708,2.5671,2.4853,2.45,2.45,2.45,2.45,2.45,2.45,2.4574,2.4704,2.4704,2.4704,2.4704,2.4704,2.4611,2.45,2.45,2.45,2.45,2.45,2.4592,2.4741,2.4871,2.5968,2.713,2.7297,2.8356,2.9396,2.9396,2.9396,2.9396,2.9396,2.9396,2.9396,2.9396,2.9396,2.9396,2.9396,2.9396,2.9396,2.9396,2.9396,2.9396,2.9396,2.9396,2.9396,2.9396,2.9396,2.9396,2.9396,2.9386,2.9272,2.9014,2.8991,2.8792,2.8326,2.8122,2.7957,2.7824,2.7672,2.7557,2.7511,2.7511,2.7809,2.8436,2.9104,2.9833,4.2486,4.4156,4.6254,4.7997,4.8036,4.7589,0.0,0.0,4.5064,0.0,0.0,0.0,0.0,0.0,0.0,0.0,0.0,0.0,0.0,0.0,0.0,0.0,0.0,0.0,0.0,0.0,0.0,0.0,0.0,0.0,2.7954,2.7895,2.7882,2.7882,2.7767,2.7767,2.7882,2.7767,2.7767,2.7882,2.7687,2.7483,2.7214,2.6226,2.5744,2.5671,2.4853,2.45,2.45,2.45,2.45,2.45,2.45,2.4927,2.554,2.554,2.554,2.554,2.554,2.5076,2.45,2.45,2.45,2.45,2.45,2.4983,2.5689,2.6368,2.7241,2.8114,2.8858,2.9229,2.9396,2.9396,2.9396,2.9396,2.9396,2.9396,2.9396,2.9396,2.9396,2.9396,2.9396,2.9396,2.9396,2.9396,2.9396,2.9396,2.9396,2.9396,2.9396,2.9396,2.9396,2.9396,2.9396,2.9355,2.9229,2.9003,2.8964,2.8972,2.9119,2.8463,2.8287,2.8721,2.7936,2.7542,2.7587,2.7526,2.7579,2.7762,2.8356,2.9055,4.2656,4.4423,4.6177,4.6948,4.722,4.7181,4.6676,0.0,0.0,0.0,0.0,0.0,0.0,0.0,0.0,0.0,0.0,0.0,0.0,0.0,0.0,0.0,0.0,0.0,0.0,0.0,0.0,0.0,0.0,2.8599,2.775,2.7644,2.7599,2.7599,2.7122,2.7103,2.7599,2.7122,2.7122,2.7599,2.7471,2.7377,2.7293,2.6293,2.5794,2.5671,2.4853,2.4212,2.3814,2.4305,2.3952,2.3182,2.4119,2.4417,2.4408,2.5346,2.5708,2.5708,2.5708,2.5466,2.5094,2.4648,2.45,2.45,2.45,2.5057,2.5782,2.6126,2.713,2.8189,2.856,2.9025,2.9396,2.9396,2.9396,2.9396,2.9396,2.9396,2.9396,2.9396,2.9396,2.9396,2.9396,2.9396,2.9396,2.9396,2.9396,2.9396,2.9396,2.9396,2.9396,2.9396,2.9396,2.9396,2.9396,2.9376,2.9294,2.9186,2.9186,2.9157,2.9083,2.8553,2.8317,2.8457,2.8346,2.8084,2.7659,2.8084,2.8067,2.7677,2.8778,2.9446,4.2786,4.4267,4.5432,4.5665,4.6385,4.6794,0.0,0.0,0.0,0.0,0.0,0.0,0.0,0.0,0.0,0.0,0.0,0.0,0.0,0.0,0.0,0.0,0.0,0.0,0.0,0.0,0.0,0.0,0.0,2.8345,2.7262,2.7119,2.7067,2.7067,2.6435,2.6422,2.7067,2.6416,2.6404,2.7019,2.6969,2.6912,2.6834,2.6048,2.5618,2.5456,2.4552,2.3925,2.3545,2.3766,2.3368,2.2747,2.3766,2.4166,2.4288,2.555,2.6126,2.6275,2.608,2.5875,2.5578,2.476,2.45,2.4537,2.4741,2.5373,2.6061,2.6238,2.7334,2.843,2.843,2.8913,2.9396,2.9396,2.9396,2.9396,2.9396,2.9396,2.9396,2.9396,2.9396,2.9396,2.9396,2.9396,2.9396,2.9396,2.9396,2.9396,2.9396,2.9396,2.9396,2.9396,2.9396,2.9396,2.9396,2.9386,2.9365,2.9334,2.9355,2.9333,2.9203,2.8985,2.8753,2.8515,2.9021,2.8775,2.7701,2.8298,2.828,2.7736,2.922,2.9858,4.2114,4.3039,4.3911,4.4749,4.5607,4.6039,0.0,0.0,0.0,0.0,0.0,0.0,0.0,0.0,0.0,0.0,0.0,0.0,0.0,0.0,0.0,0.0,0.0,0.0,0.0,0.0,0.0,0.0,0.0,2.7344,2.5716,2.5611,2.5611,2.5611,2.5572,2.5553,2.5611,2.5553,2.5507,2.5413,2.5427,2.5308,2.5138,2.5069,2.5006,2.4889,2.3744,2.3721,2.4314,2.2765,2.3015,2.4295,2.3564,2.4678,2.6721,2.6814,2.7315,2.7873,2.7092,2.633,2.5578,2.476,2.45,2.4648,2.541,2.62,2.6999,2.7761,2.8635,2.9322,2.9322,2.9359,2.9396,2.9396,2.9396,2.9396,2.9396,2.9396,2.9396,2.9396,2.9396,2.9396,2.9396,2.9396,2.9396,2.9396,2.9396,2.9396,2.9396,2.9396,2.9396,2.9396,2.9396,2.9396,2.9396,2.9344,2.9334,2.9396,2.9344,2.9529,3.0027,3.0087,2.9948,2.961,3.0141,2.9509,2.7701,2.7736,2.7736,2.7736,2.922,2.9858,4.2069,4.2538,4.2978,4.3855,4.4304,4.4442,4.4147,0.0,0.0,0.0,0.0,0.0,0.0,0.0,0.0,0.0,0.0,0.0,0.0,0.0,0.0,0.0,0.0,0.0,0.0,0.0,0.0,0.0,0.0,0.0,2.5584,2.5507,2.5507,2.5507,2.5507,2.5507,2.5507,2.5507,2.5476,2.5423,2.5423,2.5382,2.5322,2.5194,2.5122,2.5025,2.3884,2.3577,2.3835,2.3659,2.3312,2.3015,2.4296,2.503,2.5559,2.7092,2.7854,2.8059,2.7761,2.713,2.633,2.554,2.528,2.5317,2.5615,2.6609,2.7724,2.8021,2.8728,2.9396,2.9396,2.9396,2.9396,2.9396,2.9396,2.9396,2.9396,2.9396,2.9396,2.9396,2.9396,2.9396,2.9396,2.9396,2.9396,2.9396,2.9396,2.9396,2.9396,2.9396,2.9396,2.9396,2.9396,2.9396,2.9396,2.9376,2.9355,2.9344,2.9355,2.9424,2.958,2.9951,3.01,3.0021,2.9998,2.9321,2.7968,2.8297,2.8473,2.8491,2.9465,3.012,4.174,4.2101,4.2477,0.0,4.3414,4.357,4.3257,0.0,0.0,0.0,0.0,0.0,0.0,0.0,0.0,0.0,0.0,0.0,0.0,0.0,0.0,0.0,0.0,0.0,0.0,0.0,0.0,0.0,0.0,0.0,2.5584,2.5507,2.5507,2.5507,2.5507,2.5507,2.5507,2.5507,2.5507,2.5507,2.5507,2.5507,2.5507,2.5354,2.5293,2.5212,2.4379,2.3971,2.3889,2.3729,2.3331,2.2978,2.4334,2.5048,2.5503,2.7111,2.8059,2.8486,2.8207,2.7743,2.713,2.6061,2.5875,2.6089,2.6089,2.7037,2.817,2.8449,2.8951,2.9396,2.9396,2.9396,2.9396,2.9396,2.9396,2.9396,2.9396,2.9396,2.9396,2.9396,2.9396,2.9396,2.9396,2.9396,2.9396,2.9396,2.9396,2.9396,2.9396,2.9396,2.9396,2.9396,2.9396,2.9396,2.9396,2.9396,2.9386,2.9344,2.9636,2.9776,2.9742,3.0572,3.0937,3.075,3.0671,3.0178,2.9214,2.8806,2.8564,2.8498,2.9449,3.0382,0.0,0.0,0.0,0.0,0.0,0.0,4.2552,0.0,0.0,0.0,0.0,0.0,0.0,0.0,0.0,0.0,0.0,0.0,0.0,0.0,0.0,0.0,0.0,0.0,0.0,0.0,0.0,0.0,0.0,2.7275,2.5623,2.5507,2.5507,2.5507,2.5507,2.5507,2.5507,2.5507,2.5507,2.5507,2.5507,2.5507,2.5507,2.5507,2.546,2.5389,2.5113,2.4908,2.4584,2.2805,2.3033,2.4425,2.3582,2.4733,2.6869,2.6925,2.7947,2.9211,2.8412,2.8096,2.778,2.6256,2.6275,2.6869,2.6888,2.7445,2.8244,2.9118,2.9359,2.9359,2.9378,2.9396,2.9396,2.9396,2.9396,2.9396,2.9396,2.9396,2.9407,2.9434,2.9425,2.9396,2.9434,2.9444,2.9444,2.9444,2.9452,2.9471,2.9471,2.9452,2.9444,2.9444,2.9396,2.9396,2.9396,2.9396,2.9396,2.9434,3.0158,3.0604,3.0623,3.2096,3.2578,3.1849,3.2268,3.2124,3.1421,2.925,2.8042,2.7772,2.9276,3.0645,4.1105,0.0,0.0,0.0,0.0,0.0,0.0,0.0,0.0,0.0,0.0,0.0,0.0,0.0,0.0,0.0,0.0,0.0,0.0,0.0,0.0,0.0,0.0,0.0,0.0,0.0,0.0,0.0,2.8431,2.7578,2.6435,2.5816,2.5507,2.5507,2.5507,2.5507,2.5507,2.5507,2.5507,2.5507,2.5507,2.5507,2.5507,2.5507,2.5488,2.5452,2.5244,2.5118,2.4992,2.4155,2.4082,2.4537,2.4881,2.5439,2.6163,2.7334,2.7687,2.7724,2.869,2.7873,2.6479,2.7204,2.6795,2.6145,2.6721,2.7055,2.7408,2.8226,2.8467,2.8597,2.9229,2.9396,2.9396,2.9396,2.9396,2.9396,2.9396,2.9396,2.9564,3.0158,2.9787,2.9582,3.0158,3.027,3.027,3.027,3.0753,3.1143,3.1143,3.0623,3.027,3.027,2.975,2.9396,2.9396,2.9396,2.9638,3.0233,3.0474,3.0864,3.144,3.2439,3.2885,3.2667,3.2214,3.2077,3.2261,3.0883,3.04,3.0807,3.1405,3.148,4.0567,4.0561,0.0,0.0,0.0,0.0,4.0211,4.0055,0.0,0.0,0.0,0.0,0.0,0.0,0.0,0.0,0.0,0.0,0.0,0.0,0.0,0.0,0.0,0.0,0.0,0.0,0.0,2.9994,2.9082,2.8031,2.6764,2.5932,2.5507,2.5507,2.5507,2.5507,2.5507,2.5507,2.5507,2.5507,2.5507,2.5507,2.5507,2.5507,2.5507,2.5484,2.5289,2.52,2.5163,2.4814,2.4626,2.4611,2.5046,2.541,2.5856,2.713,2.752,2.7594,2.8932,2.8449,2.7278,2.752,2.7445,2.7213,2.6962,2.739,2.804,2.8505,2.8635,2.8765,2.9266,2.9396,2.9396,2.9396,2.9396,2.9396,2.9396,2.9396,2.9527,3.001,2.9712,2.9545,3.001,3.0103,3.0214,3.0549,3.0995,3.1292,3.1292,3.118,3.0976,3.0641,3.0474,3.04,3.04,3.0084,3.0233,3.105,3.1106,3.1459,3.2277,3.304,3.3467,3.3491,3.2998,3.2717,3.2674,3.096,3.0567,3.1405,3.1753,3.1706,3.9527,3.9585,3.9878,0.0,0.0,0.0,3.9216,3.8884,3.822,0.0,0.0,0.0,0.0,0.0,0.0,0.0,0.0,0.0,0.0,0.0,0.0,0.0,0.0,0.0,0.0,3.2975,3.1651,3.068,2.9803,2.8539,2.6783,2.6029,2.5584,2.5507,2.5507,2.5507,2.5507,2.5507,2.5507,2.5507,2.5507,2.5507,2.5507,2.5507,2.5507,2.5484,2.5303,2.523,2.5215,2.5004,2.4855,2.4704,2.4574,2.4953,2.5698,2.6581,2.7297,2.7984,2.9043,2.9266,2.8905,2.7623,2.8098,2.8898,2.7512,2.8062,2.9167,2.924,2.9322,2.9396,2.9396,2.9396,2.9396,2.9396,2.9396,2.9396,2.9396,2.9396,2.9396,2.9396,2.9396,2.9444,2.9508,2.9527,2.9805,3.0604,3.0809,3.0864,3.0864,3.1403,3.1496,3.0697,3.1162,3.1533,3.1533,3.0883,3.0846,3.1738,3.1794,3.2202,3.3113,3.3759,3.4136,3.4197,3.4074,3.3567,3.2668,3.0417,2.9815,3.0779,3.1221,3.1735,0.0,0.0,0.0,0.0,0.0,0.0,4.0699,4.0602,4.0465,0.0,0.0,0.0,0.0,0.0,0.0,0.0,0.0,0.0,0.0,0.0,0.0,0.0,0.0,0.0,0.0,3.3235,3.2369,3.0793,2.9811,2.8539,2.6783,2.6551,2.6165,2.5526,2.5507,2.5507,2.5507,2.5507,2.5507,2.5507,2.5507,2.5507,2.5507,2.5507,2.5507,2.5507,2.5468,2.5408,2.5348,2.5196,2.5036,2.4843,2.4719,2.4754,2.5048,2.6404,2.6591,2.6479,2.8663,2.8523,2.7567,2.8718,2.8417,2.7721,2.8204,2.8003,2.7735,2.8219,2.8858,2.9396,2.9396,2.9396,2.9396,2.9396,2.9396,2.9396,2.9396,2.9396,2.9396,2.9396,2.9396,2.9601,3.0251,3.0363,3.0641,3.144,3.2128,3.2537,3.2537,3.2109,3.1496,3.0697,3.0158,2.9861,2.9861,2.9712,3.0251,3.1719,3.1794,3.2462,3.39,3.4092,3.4185,3.4197,3.4124,3.3327,3.1825,3.1925,3.1924,3.1886,3.2588,3.267,0.0,0.0,0.0,3.8453,0.0,0.0,0.0,3.9548,3.9606,3.8746,0.0,0.0,0.0,0.0,0.0,0.0,0.0,0.0,0.0,0.0,0.0,0.0,0.0,0.0,0.0,3.4058,3.2551,3.0785,2.9803,2.8732,2.7426,2.6938,2.6339,2.5526,2.5507,2.5507,2.5507,2.5507,2.5507,2.5507,2.5507,2.5507,2.5507,2.5507,2.5507,2.5507,2.5507,2.5484,2.5433,2.5335,2.5245,2.5127,2.4884,2.4804,2.4975,2.6463,2.6808,2.6812,2.8742,2.8891,2.8306,2.8717,2.8652,2.8414,2.8527,2.8474,2.8453,2.8764,2.9106,2.9396,2.9396,2.9396,2.9396,2.9396,2.9396,2.9396,2.9396,2.9396,2.9396,2.9396,2.9396,2.9527,2.9935,2.9991,3.027,3.1087,3.1533,3.1961,3.2351,3.2407,3.2091,3.1273,3.1199,3.1032,3.0623,3.0233,3.0511,3.1719,3.1794,3.2351,3.3559,3.3993,3.4185,3.4148,3.3698,3.3013,3.2146,3.2488,3.257,3.2406,3.3012,3.3032,0.0,0.0,0.0,0.0,0.0,3.9918,0.0,0.0,0.0,3.7027,0.0,0.0,0.0,0.0,0.0,0.0,0.0,0.0,0.0,0.0,0.0,0.0,0.0,0.0,0.0,3.4866,3.2797,3.0986,3.0347,2.9516,2.8305,2.758,2.6745,2.5758,2.572,2.5662,2.5507,2.5507,2.5507,2.5507,2.5507,2.5507,2.5507,2.5507,2.5507,2.5507,2.5507,2.5507,2.5507,2.5433,2.5406,2.5361,2.5052,2.4936,2.5106,2.6429,2.7097,2.7527,2.8755,2.9352,2.9439,2.8641,2.8961,2.9531,2.8881,2.9145,2.9644,2.957,2.9502,2.9429,2.9417,2.9396,2.9396,2.9396,2.9396,2.9396,2.9396,2.9396,2.9396,2.9396,2.9396,2.9396,2.9396,2.9396,2.9675,3.0474,3.0604,3.0827,3.1496,3.2147,3.224,3.1422,3.1924,3.2035,3.1385,3.0734,3.0716,3.1515,3.1719,3.2165,3.2983,3.377,3.4173,3.4124,3.3389,3.3013,3.2975,3.2873,3.2748,3.2619,3.3144,3.3184,0.0,0.0,0.0,0.0,3.695,0.0,0.0,0.0,3.9605,3.9409,0.0,0.0,0.0,0.0,0.0,0.0,0.0,0.0,0.0,0.0,0.0,0.0,0.0,0.0,0.0,0.0,3.37,3.1891,3.2382,3.1702,2.9276,2.905,2.8257,2.6629,2.6571,2.6223,2.5507,2.5507,2.5507,2.5507,2.5507,2.5507,2.5507,2.5507,2.5507,2.5507,2.5507,2.5507,2.5507,2.5488,2.5456,2.5385,2.5165,2.5088,2.516,2.5927,2.6604,2.7252,2.8118,2.8866,2.9421,2.9429,2.9641,2.9851,2.9756,2.9794,2.9803,2.9511,2.9492,2.9551,2.9429,2.9396,2.9396,2.9396,2.9396,2.9396,2.9396,2.9396,2.9396,2.9396,2.9396,2.9396,2.9396,2.9396,2.9675,3.0474,3.0604,3.0623,3.0716,3.0827,3.0567,2.975,2.975,2.9768,2.9675,2.9582,2.988,3.0697,3.1403,3.2165,3.2983,3.377,3.4197,3.4185,3.3969,3.3894,3.3926,3.3753,3.3311,3.2619,3.3381,3.3404,0.0,0.0,0.0,0.0,0.0,0.0,0.0,0.0,3.8492,0.0,0.0,0.0,0.0,0.0,0.0,0.0,0.0,0.0,0.0,0.0,0.0,0.0,0.0,0.0,0.0,0.0,0.0,0.0,0.0,3.2069,2.9433,2.9291,2.8722,2.7484,2.6957,2.6551,2.6203,2.572,2.5507,2.5507,2.5507,2.5507,2.5507,2.5507,2.5507,2.5507,2.5507,2.5507,2.5507,2.5507,2.5484,2.5448,2.5327,2.5264,2.5339,2.5893,2.6657,2.7483,2.812,2.8931,2.9717,2.9851,2.9891,2.9934,3.0133,3.0107,2.9985,2.9842,2.9697,2.9589,2.9522,2.9451,2.9396,2.9396,2.9396,2.9396,2.9396,2.9396,2.9396,2.9396,2.9396,2.9396,2.9396,2.9396,2.9508,2.9842,2.9898,3.0065,3.053,3.0604,3.0474,3.0121,3.0103,2.9898,2.9434,2.9396,2.9527,2.988,3.1106,3.237,3.3652,3.4011,3.4197,3.4197,3.4074,3.4011,3.4036,3.3868,3.3623,3.3311,3.3642,3.3536,3.0989,0.0,0.0,0.0,0.0,0.0,0.0,0.0,0.0,0.0,0.0,0.0,0.0,0.0,0.0,0.0,0.0,0.0,0.0,0.0,0.0,0.0,0.0,0.0,0.0,0.0,0.0,0.0,3.3429,3.2677,2.9806,2.9663,2.9268,2.8378,2.7503,2.6938,2.6702,2.5894,2.5507,2.5507,2.5507,2.5507,2.5507,2.5507,2.5507,2.5507,2.5507,2.5507,2.5507,2.5507,2.5507,2.5484,2.5427,2.5402,2.5442,2.5754,2.6612,2.7661,2.7991,2.8856,2.9861,3.0044,3.0007,2.995,3.0228,3.0228,3.0082,3.0059,2.9907,2.9724,2.9616,2.9541,2.945,2.9417,2.9396,2.9396,2.9396,2.9396,2.9396,2.9396,2.9396,2.9396,2.9396,2.9396,2.9396,2.9396,2.9396,2.9601,3.0196,3.027,3.027,3.027,3.027,3.0028,2.9452,2.9396,2.9582,3.0028,3.1143,3.2518,3.4123,3.4197,3.4197,3.4197,3.4086,3.4023,3.4023,3.3895,3.3834,3.3834,3.382,3.3625,0.0,0.0,0.0,3.1894,0.0,0.0,0.0,0.0,3.4783,0.0,0.0,0.0,0.0,0.0,0.0,3.6129,0.0,0.0,0.0,0.0,0.0,0.0,0.0,0.0,0.0,0.0,0.0,3.4673,3.5221,3.4201,3.0732,3.0559,3.0153,2.9287,2.8416,2.7542,2.6702,2.5894,2.5507,2.5507,2.5507,2.5507,2.5507,2.5507,2.5507,2.5507,2.5507,2.5507,2.5507,2.5507,2.5507,2.5484,2.5427,2.541,2.5382,2.5337,2.6293,2.7573,2.7392,2.8338,2.9662,2.9988,3.0007,2.9934,3.0073,3.0109,3.008,2.9931,2.9992,3.0003,2.968,2.9598,2.957,2.9429,2.9396,2.9396,2.9396,2.9396,2.9396,2.9396,2.9396,2.9396,2.9396,2.9396,2.9396,2.9396,2.9396,2.9396,2.9444,2.9434,2.9434,2.9434,2.9434,2.9444,2.9396,2.9396,3.0065,3.1626,3.1775,3.2518,3.4123,3.4197,3.4197,3.4197,3.4136,3.4099,3.4099,3.3959,3.3895,3.3895,3.3815,3.3625,0.0,0.0,3.0809,3.1091,0.0,0.0,0.0,0.0,0.0,0.0,0.0,0.0,0.0,0.0,3.447,3.5057,3.6111,0.0,0.0,0.0,0.0,0.0,0.0,0.0,0.0,0.0,0.0,3.4739,3.4257,3.307,0.0,3.0607,3.0462,3.0172,2.9306,2.8436,2.7561,2.6725,2.6029,2.5507,2.5507,2.5507,2.5507,2.5507,2.5507,2.5507,2.5507,2.5507,2.5507,2.5507,2.5507,2.5484,2.5427,2.5758,2.6246,2.6096,2.6694,2.7745,2.8798,2.949,2.9966,3.0221,3.0169,3.0066,3.0241,3.0299,3.0292,3.0247,3.0162,3.0068,2.9958,2.9775,2.9589,2.9541,2.9461,2.9545,3.0084,2.9768,2.9564,3.0084,2.975,2.9396,2.9396,2.9396,2.9396,2.9396,2.9842,2.9991,2.9471,2.9861,2.9991,2.9452,2.988,3.0196,3.0196,3.0679,3.144,3.2537,3.2593,3.3083,3.416,3.4197,3.4197,3.4197,3.4086,3.4036,3.4036,3.3895,3.3829,3.3829,3.382,3.3734,3.0591,3.0639,0.0,3.0667,3.1106,0.0,3.1581,0.0,0.0,0.0,0.0,0.0,0.0,0.0,0.0,3.3625,3.4775,3.6061,0.0,3.7986,0.0,0.0,0.0,0.0,0.0,0.0,3.7608,3.5204,3.4742,3.3553,0.0,0.0,3.0907,3.0617,2.9747,2.8881,2.801,2.7131,2.63,2.5507,2.5507,2.5507,2.5507,2.5507,2.5507,2.5507,2.5507,2.5507,2.5507,2.5507,2.5507,2.5488,2.5436,2.5743,2.6265,2.6409,2.7159,2.8261,2.9704,3.015,3.0129,3.0323,3.0311,3.0235,3.0361,3.0404,3.0404,3.0404,3.0305,3.0182,3.0059,2.9896,2.9758,2.9635,2.9532,2.9602,3.0124,3.0025,2.9973,3.0493,3.04,3.0251,3.0251,3.0251,3.0158,2.9861,3.001,3.0196,3.0251,3.0456,3.0511,3.027,3.0716,3.1032,3.1032,3.1496,3.2147,3.2946,3.3001,3.3361,3.416,3.4197,3.4197,3.4197,3.4099,3.4023,3.3998,3.3881,3.3815,3.3807,3.3807,3.3807]}]]